[[{"header":{"parameterUnit":"m.s-1","parameterCategory":1,"la1":30.6,"la2":28.766,"lo1":-90.7593,"lo2":-88.6598,"dy":0.0162,"dx":0.0183,"nx":116,"ny":114,"refTime":"2023-05-22T12:00:00:Z","depth":0,"parameterNumber":2,"parameterNumberName":"U-component_of_WINDS"},"data":[0.0,0.0,0.0,0.0,0.0,0.0,0.0,0.0,0.0,0.0,0.0,0.0,0.0,0.0,0.0,0.0,0.0,0.0,0.0,0.0,0.0,0.0,0.0,0.0,0.0,0.0,0.0,0.0,0.0,0.0,0.0,0.0,0.0,0.0,0.0,0.0,0.0,0.0,0.0,0.0,0.0,0.0,0.0,0.0,0.0,0.0,0.0,0.0,0.0,0.0,0.0,0.0,0.0,0.0,0.0,0.0,0.0,0.0,0.0,0.0,0.0,0.0,0.0,0.0,0.0,0.0,0.0,0.0,0.0,0.0,0.0,0.0,0.0,0.0,0.0,0.0,0.0,0.0,0.0,0.0,0.0,0.0,0.0,0.0,0.0,0.0,0.0,0.0,0.0,0.0,0.0,0.0,0.0,0.0,0.0,0.0,0.0,0.0,0.0,0.0,0.0,0.0,0.0,0.0,0.0,0.0,0.0,0.0,0.0,0.0,0.0,0.0,0.0,0.0,0.0,0.0,0.0,0.0,0.0,0.0,0.0,0.0,0.0,0.0,0.0,0.0,0.0,0.0,0.0,0.0,0.0,0.0,0.0,0.0,0.0,0.0,0.0,0.0,0.0,0.0,0.0,0.0,0.0,0.0,0.0,0.0,0.0,0.0,0.0,0.0,0.0,0.0,0.0,0.0,0.0,0.0,0.0,0.0,0.0,0.0,0.0,0.0,0.0,0.0,0.0,0.0,0.0,0.0,0.0,0.0,0.0,0.0,0.0,0.0,0.0,0.0,0.0,0.0,0.0,0.0,0.0,0.0,0.0,0.0,0.0,0.0,0.0,0.0,0.0,0.0,0.0,0.0,0.0,0.0,0.0,0.0,0.0,0.0,0.0,0.0,0.0,0.0,0.0,0.0,0.0,0.0,0.0,0.0,0.0,0.0,0.0,0.0,0.0,0.0,0.0,0.0,0.0,0.0,0.0,0.0,0.0,0.0,0.0,0.0,0.0,0.0,0.0,0.0,0.0,0.0,0.0,0.0,0.0,0.0,0.0,0.0,0.0,0.0,0.0,0.0,0.0,0.0,0.0,0.0,0.0,0.0,0.0,0.0,0.0,0.0,0.0,0.0,0.0,0.0,0.0,0.0,0.0,0.0,0.0,0.0,0.0,0.0,0.0,0.0,0.0,0.0,0.0,0.0,0.0,0.0,0.0,0.0,0.0,0.0,0.0,0.0,0.0,0.0,0.0,0.0,0.0,0.0,0.0,0.0,0.0,0.0,0.0,0.0,0.0,0.0,0.0,0.0,0.0,0.0,0.0,0.0,0.0,0.0,0.0,0.0,0.0,0.0,0.0,0.0,0.0,0.0,0.0,0.0,0.0,0.0,0.0,0.0,0.0,0.0,0.0,0.0,0.0,0.0,0.0,0.0,0.0,0.0,0.0,0.0,0.0,0.0,0.0,0.0,0.0,0.0,0.0,0.0,0.0,0.0,0.0,0.0,0.0,0.0,0.0,0.0,0.0,0.0,0.0,0.0,0.0,0.0,0.0,0.0,0.0,0.0,0.0,0.0,0.0,0.0,0.0,0.0,0.0,0.0,0.0,0.0,0.0,0.0,0.0,0.0,0.0,0.0,0.0,0.0,0.0,0.0,0.0,0.0,0.0,0.0,0.0,0.0,0.0,0.0,0.0,0.0,0.0,0.0,0.0,0.0,0.0,0.0,0.0,0.0,0.0,0.0,0.0,0.0,0.0,0.0,0.0,0.0,0.0,0.0,0.0,0.0,0.0,0.0,0.0,0.0,0.0,0.0,0.0,0.0,0.0,0.0,0.0,0.0,0.0,0.0,0.0,0.0,0.0,0.0,0.0,0.0,0.0,0.0,0.0,0.0,0.0,0.0,0.0,0.0,0.0,0.0,0.0,0.0,0.0,0.0,0.0,0.0,0.0,0.0,0.0,0.0,0.0,0.0,0.0,0.0,0.0,0.0,0.0,0.0,0.0,0.0,0.0,0.0,0.0,0.0,0.0,0.0,0.0,0.0,0.0,0.0,0.0,0.0,0.0,0.0,0.0,0.0,0.0,0.0,0.0,0.0,0.0,0.0,0.0,0.0,0.0,0.0,0.0,0.0,0.0,0.0,0.0,0.0,0.0,0.0,0.0,0.0,0.0,0.0,0.0,0.0,0.0,0.0,0.0,0.0,0.0,0.0,0.0,0.0,0.0,0.0,0.0,0.0,0.0,0.0,0.0,0.0,0.0,0.0,0.0,0.0,0.0,0.0,0.0,0.0,0.0,0.0,0.0,0.0,0.0,0.0,0.0,0.0,0.0,0.0,0.0,0.0,0.0,0.0,0.0,0.0,0.0,0.0,0.0,0.0,0.0,0.0,0.0,0.0,0.0,0.0,0.0,0.0,0.0,0.0,0.0,0.0,0.0,0.0,0.0,0.0,0.0,0.0,0.0,0.0,0.0,0.0,0.0,0.0,0.0,0.0,0.0,0.0,0.0,0.0,0.0,0.0,0.0,0.0,0.0,0.0,0.0,0.0,0.0,0.0,0.0,0.0,0.0,0.0,0.0,0.0,0.0,0.0,0.0,0.0,0.0,0.0,0.0,0.0,0.0,0.0,0.0,0.0,0.0,0.0,0.0,0.0,0.0,0.0,0.0,0.0,0.0,0.0,0.0,0.0,0.0,0.0,0.0,0.0,0.0,0.0,0.0,0.0,0.0,0.0,0.0,0.0,0.0,0.0,0.0,0.0,0.0,0.0,0.0,0.0,0.0,0.0,0.0,0.0,0.0,0.0,0.0,0.0,0.0,0.0,0.0,0.0,0.0,0.0,0.0,0.0,0.0,0.0,0.0,0.0,0.0,0.0,0.0,0.0,0.0,0.0,0.0,0.0,0.0,0.0,0.0,0.0,0.0,0.0,0.0,0.0,0.0,0.0,0.0,0.0,0.0,0.0,0.0,0.0,0.0,0.0,0.0,0.0,0.0,0.0,0.0,0.0,0.0,0.0,0.0,0.0,0.0,0.0,0.0,0.0,0.0,0.0,0.0,0.0,0.0,0.0,0.0,0.0,0.0,0.0,0.0,0.0,0.0,0.0,0.0,0.0,0.0,0.0,0.0,0.0,0.0,0.0,0.0,0.0,0.0,0.0,0.0,0.0,0.0,0.0,0.0,0.0,0.0,0.0,0.0,0.0,0.0,0.0,0.0,0.0,0.0,0.0,0.0,0.0,0.0,0.0,0.0,0.0,0.0,0.0,0.0,0.0,0.0,0.0,0.0,0.0,0.0,0.0,0.0,0.0,0.0,0.0,0.0,0.0,0.0,0.0,0.0,0.0,0.0,0.0,0.0,0.0,0.0,0.0,0.0,0.0,0.0,0.0,0.0,0.0,0.0,0.0,0.0,0.0,0.0,0.0,0.0,0.0,0.0,0.0,0.0,0.0,0.0,0.0,0.0,0.0,0.0,0.0,0.0,0.0,0.0,0.0,0.0,0.0,0.0,0.0,0.0,0.0,0.0,0.0,0.0,0.0,0.0,0.0,0.0,0.0,0.0,0.0,0.0,0.0,0.0,0.0,0.0,0.0,0.0,0.0,0.0,0.0,0.0,0.0,0.0,0.0,0.0,0.0,0.0,0.0,0.0,0.0,0.0,0.0,0.0,0.0,0.0,0.0,0.0,0.0,0.0,0.0,0.0,0.0,0.0,0.0,0.0,0.0,0.0,0.0,0.0,0.0,0.0,0.0,0.0,0.0,0.0,0.0,0.0,0.0,0.0,0.0,0.0,0.0,0.0,0.0,0.0,0.0,0.0,0.0,0.0,0.0,0.0,0.0,0.0,0.0,0.0,0.0,0.0,0.0,0.0,0.0,0.0,0.0,0.0,0.0,0.0,0.0,0.0,0.0,0.0,0.0,0.0,0.0,0.0,0.0,0.0,0.0,0.0,0.0,0.0,0.0,0.0,0.0,0.0,0.0,0.0,0.0,0.0,0.0,0.0,0.0,0.0,0.0,0.0,0.0,0.0,0.0,0.0,0.0,0.0,0.0,0.0,0.0,0.0,0.0,0.0,0.0,0.0,0.0,0.0,0.0,0.0,0.0,0.0,0.0,0.0,0.0,0.0,0.0,0.0,0.0,0.0,0.0,0.0,0.0,0.0,0.0,0.0,0.0,0.0,0.0,0.0,0.0,0.0,0.0,0.0,0.0,0.0,0.0,0.0,0.0,0.0,0.0,0.0,0.0,0.0,0.0,0.0,0.0,0.0,0.0,0.0,0.0,0.0,0.0,0.0,0.0,0.0,0.0,0.0,0.0,0.0,0.0,0.0,0.0,0.0,0.0,0.0,0.0,0.0,0.0,0.0,0.0,0.0,0.0,0.0,0.0,0.0,0.0,0.0,0.0,0.0,0.0,0.0,0.0,0.0,0.0,0.0,0.0,0.0,0.0,0.0,0.0,0.0,0.0,0.0,0.0,0.0,0.0,0.0,0.0,0.0,0.0,0.0,0.0,0.0,0.0,0.0,0.0,0.0,0.0,0.0,0.0,0.0,0.0,0.0,0.0,0.0,0.0,0.0,0.0,0.0,0.0,0.0,0.0,0.0,0.0,0.0,0.0,0.0,0.0,0.0,0.0,0.0,0.0,0.0,0.0,0.0,0.0,0.0,0.0,0.0,0.0,0.0,0.0,0.0,0.0,0.0,0.0,0.0,0.0,0.0,0.0,0.0,0.0,0.0,0.0,0.0,0.0,0.0,0.0,0.0,0.0,0.0,0.0,0.0,0.0,0.0,0.0,0.0,0.0,0.0,0.0,0.0,0.0,0.0,0.0,0.0,0.0,0.0,0.0,0.0,0.0,0.0,0.0,0.0,0.0,0.0,0.0,0.0,0.0,0.0,0.0,0.0,0.0,0.0,0.0,0.0,0.0,0.0,0.0,0.0,0.0,0.0,0.0,0.0,0.0,0.0,0.0,0.0,0.0,0.0,0.0,0.0,0.0,0.0,0.0,0.0,0.0,0.0,0.0,0.0,0.0,0.0,0.0,0.0,0.0,0.0,0.0,0.0,0.0,0.0,0.0,0.0,0.0,0.0,0.0,0.0,0.0,0.0,0.0,0.0,0.0,0.0,0.0,0.0,0.0,0.0,0.0,0.0,0.0,0.0,0.0,0.0,0.0,0.0,0.0,0.0,0.0,0.0,0.0,0.0,0.0,0.0,0.0,0.0,0.0,0.0,0.0,0.0,0.0,0.0,0.0,0.0,0.0,0.0,0.0,0.0,0.0,0.0,0.0,0.0,0.0,0.0,0.0,0.0,0.0,0.0,0.0,0.0,0.0,0.0,0.0,0.0,0.0,0.0,0.0,0.0,0.0,0.0,0.0,0.0,0.0,0.0,0.0,0.0,0.0,0.0,0.0,0.0,0.0,0.0,0.0,0.0,0.0,0.0,0.0,0.0,0.0,0.0,0.0,0.0,0.0,0.0,0.0,0.0,0.0,0.0,0.0,0.0,0.0,0.0,0.0,0.0,0.0,0.0,0.0,0.0,0.0,0.0,0.0,0.0,0.0,0.0,0.0,0.0,0.0,0.0,0.0,0.0,0.0,0.0,0.0,0.0,0.0,0.0,0.0,0.0,0.0,0.0,0.0,0.0,0.0,0.0,0.0,0.0,0.0,0.0,0.0,0.0,0.0,0.0,0.0,0.0,0.0,0.0,0.0,0.0,0.0,0.0,0.0,0.0,0.0,0.0,0.0,0.0,0.0,0.0,0.0,0.0,0.0,0.0,0.0,0.0,0.0,0.0,0.0,0.0,0.0,0.0,0.0,0.0,0.0,0.0,0.0,0.0,0.0,0.0,0.0,0.0,0.0,0.0,0.0,0.0,0.0,0.0,0.0,0.0,0.0,0.0,0.0,0.0,0.0,0.0,0.0,0.0,0.0,0.0,0.0,0.0,0.0,0.0,0.0,0.0,0.0,0.0,0.0,0.0,0.0,0.0,0.0,0.0,0.0,0.0,0.0,0.0,0.0,0.0,0.0,0.0,0.0,0.0,0.0,0.0,0.0,0.0,0.0,0.0,0.0,0.0,0.0,0.0,0.0,0.0,0.0,0.0,0.0,0.0,0.0,3.3006,3.2766,0.0,0.0,0.0,0.0,0.0,0.0,0.0,0.0,0.0,0.0,0.0,0.0,0.0,0.0,0.0,0.0,0.0,0.0,0.0,0.0,0.0,0.0,0.0,0.0,0.0,0.0,0.0,0.0,0.0,0.0,0.0,0.0,0.0,0.0,0.0,0.0,0.0,0.0,2.3577,2.3853,2.4406,2.5234,2.5762,2.6063,0.0,0.0,0.0,0.0,0.0,0.0,0.0,0.0,0.0,0.0,0.0,0.0,0.0,0.0,0.0,0.0,0.0,0.0,0.0,0.0,0.0,0.0,0.0,0.0,0.0,0.0,0.0,0.0,0.0,0.0,0.0,0.0,0.0,0.0,0.0,0.0,0.0,0.0,0.0,0.0,0.0,0.0,0.0,0.0,0.0,0.0,0.0,0.0,0.0,0.0,0.0,0.0,0.0,0.0,0.0,0.0,0.0,0.0,0.0,0.0,0.0,0.0,0.0,0.0,0.0,0.0,0.0,0.0,0.0,0.0,3.4113,3.3784,0.0,0.0,0.0,0.0,0.0,0.0,0.0,0.0,0.0,0.0,0.0,0.0,0.0,0.0,0.0,0.0,0.0,0.0,0.0,0.0,0.0,0.0,0.0,0.0,2.1242,2.2372,2.2046,2.197,0.0,0.0,0.0,0.0,0.0,0.0,0.0,0.0,0.0,0.0,2.3703,2.413,2.5285,2.6189,2.6339,2.5912,2.6289,0.0,0.0,0.0,0.0,0.0,0.0,0.0,0.0,0.0,0.0,0.0,0.0,0.0,0.0,0.0,0.0,0.0,0.0,0.0,0.0,0.0,0.0,0.0,0.0,0.0,0.0,0.0,0.0,0.0,0.0,0.0,0.0,0.0,0.0,0.0,0.0,0.0,0.0,0.0,0.0,0.0,0.0,0.0,0.0,0.0,0.0,0.0,0.0,0.0,0.0,0.0,0.0,0.0,0.0,0.0,0.0,0.0,0.0,0.0,0.0,0.0,0.0,0.0,3.5968,3.6297,3.6207,3.6746,3.6776,3.6327,3.5759,3.519,3.4651,3.4532,0.0,0.0,0.0,0.0,0.0,0.0,0.0,0.0,0.0,0.0,0.0,0.0,0.0,0.0,0.0,0.0,0.0,0.0,0.0,0.0,0.0,2.1418,2.182,2.2924,2.289,2.2949,0.0,0.0,0.0,0.0,0.0,0.0,0.0,2.3627,2.3929,2.4004,2.4858,2.5837,2.6967,2.7118,2.7143,2.7042,2.664,2.6785,2.7143,0.0,0.0,0.0,0.0,0.0,0.0,0.0,0.0,0.0,0.0,0.0,0.0,0.0,0.0,0.0,0.0,0.0,0.0,0.0,0.0,0.0,0.0,0.0,0.0,0.0,0.0,0.0,0.0,0.0,0.0,0.0,0.0,0.0,0.0,0.0,0.0,0.0,0.0,0.0,0.0,0.0,3.142,3.2168,0.0,0.0,0.0,0.0,0.0,0.0,0.0,0.0,0.0,0.0,0.0,0.0,0.0,3.5729,3.6746,3.8093,3.8452,3.7883,3.917,3.9469,3.8901,3.899,3.929,3.9738,3.9649,0.0,3.531,3.4711,0.0,0.0,0.0,0.0,0.0,0.0,0.0,0.0,0.0,0.0,0.0,0.0,0.0,0.0,0.0,0.0,0.0,0.0,0.0,0.0,0.0,2.1493,2.2071,2.3502,2.3904,2.3954,2.3653,0.0,0.0,0.0,0.0,0.0,0.0,2.3879,2.4305,2.4908,2.6314,2.7092,2.7293,2.7595,2.7745,2.7745,2.7494,2.7344,2.7268,2.7017,0.0,0.0,0.0,0.0,0.0,0.0,0.0,0.0,0.0,0.0,0.0,0.0,0.0,0.0,0.0,0.0,0.0,0.0,0.0,0.0,0.0,0.0,0.0,0.0,0.0,0.0,0.0,0.0,0.0,0.0,0.0,0.0,0.0,0.0,0.0,0.0,0.0,0.0,0.0,3.2467,3.3455,3.2617,3.3155,3.3335,0.0,0.0,0.0,0.0,0.0,0.0,0.0,0.0,0.0,3.7644,3.7704,3.8332,3.9619,4.0606,4.0726,4.0098,4.1414,4.1713,4.1085,4.1085,4.1235,4.1474,4.1115,3.9918,3.8182,3.7105,3.6417,3.5968,0.0,0.0,0.0,0.0,3.6058,3.6118,0.0,0.0,0.0,0.0,0.0,0.0,0.0,0.0,0.0,0.0,0.0,0.0,2.1368,2.1619,2.2372,2.4054,2.4456,2.4506,2.423,2.433,0.0,0.0,0.0,2.3401,2.3979,2.4556,2.536,2.644,2.7846,2.8323,2.7946,2.8348,2.8524,2.8524,2.8524,2.8222,2.7695,2.7394,2.7118,2.6866,0.0,0.0,0.0,0.0,0.0,0.0,0.0,0.0,0.0,0.0,0.0,0.0,0.0,0.0,0.0,0.0,0.0,0.0,0.0,0.0,0.0,0.0,0.0,0.0,0.0,0.0,0.0,0.0,0.0,0.0,0.0,0.0,0.0,0.0,0.0,0.0,0.0,3.4292,3.513,3.3484,3.4442,3.4711,0.0,0.0,0.0,0.0,0.0,0.0,3.6477,3.7285,3.8571,4.0367,4.0427,4.1055,4.2372,4.288,4.288,4.2402,4.3359,4.3569,4.312,4.312,4.312,4.306,4.2402,4.1773,4.1025,3.9349,3.8003,3.6926,3.6447,3.6148,3.6088,3.6926,3.7015,3.6806,0.0,0.0,0.0,0.0,0.0,0.0,0.0,0.0,0.0,0.0,0.0,2.0238,2.1368,2.1945,2.2949,2.4632,2.433,2.4255,2.4757,2.3803,2.314,2.3065,2.3065,2.3401,2.3979,2.6038,2.767,2.875,2.9402,2.9704,2.9654,2.9704,2.9704,2.9704,2.9704,2.9377,2.8775,2.772,2.757,2.7921,0.0,0.0,0.0,0.0,0.0,0.0,0.0,0.0,0.0,0.0,0.0,0.0,0.0,0.0,0.0,0.0,0.0,0.0,0.0,0.0,0.0,0.0,0.0,0.0,0.0,0.0,0.0,0.0,0.0,0.0,0.0,0.0,0.0,0.0,0.0,0.0,0.0,0.0,0.0,3.5429,3.6477,0.0,0.0,0.0,0.0,3.6327,3.8093,3.92,3.923,4.0427,4.1743,4.309,4.312,4.3778,4.5095,4.5125,4.5125,4.5095,4.5155,4.5185,4.5155,4.5155,4.5155,4.5125,4.4466,4.3808,4.303,4.0427,3.896,3.8302,3.8272,3.7853,3.7464,3.8781,3.8452,3.7464,0.0,0.0,0.0,0.0,0.0,0.0,0.0,0.0,1.9936,2.0313,2.0363,2.0916,2.2397,2.2723,2.3653,2.5686,2.5686,2.5661,2.5862,2.5159,2.4556,2.423,2.3879,2.428,2.5561,2.7042,2.8172,2.8925,2.9854,3.0306,3.0306,3.0306,3.0507,3.0809,3.0482,3.0206,2.993,2.8825,2.8247,2.8047,2.7293,2.6791,0.0,0.0,0.0,0.0,0.0,0.0,0.0,0.0,0.0,0.0,0.0,0.0,0.0,0.0,0.0,0.0,0.0,0.0,0.0,0.0,0.0,0.0,0.0,0.0,0.0,0.0,0.0,0.0,0.0,0.0,0.0,0.0,0.0,0.0,0.0,0.0,0.0,3.8093,3.9559,0.0,3.8781,3.8871,3.917,3.9589,4.0666,4.1504,4.1923,4.318,4.4496,4.5843,4.5873,4.6322,4.7219,4.68,4.6381,4.5963,4.6381,4.6352,4.5963,4.5963,4.5963,4.5933,4.5244,4.4825,4.4526,4.315,4.1414,3.9649,3.92,3.8901,3.8811,3.9709,3.9738,3.9439,0.0,0.0,0.0,0.0,0.0,0.0,0.0,0.0,2.0012,2.0643,2.1046,2.1769,2.3276,2.3929,2.5008,2.6841,2.6735,2.6609,2.6785,2.5686,2.4983,2.4833,2.4833,2.5511,2.6992,2.8298,2.9227,2.9754,3.0683,3.106,3.0884,3.0884,3.106,3.1361,3.1035,3.0884,3.0834,3.008,2.9227,2.8348,2.7971,2.762,2.7143,0.0,0.0,0.0,0.0,0.0,0.0,0.0,0.0,0.0,0.0,0.0,0.0,0.0,0.0,0.0,0.0,0.0,0.0,0.0,0.0,0.0,0.0,0.0,0.0,0.0,0.0,0.0,0.0,0.0,0.0,0.0,0.0,0.0,0.0,3.9529,4.0816,4.0157,4.2013,4.2821,4.1534,4.2013,4.2581,4.303,4.3868,4.4556,4.4975,4.6052,4.704,4.7938,4.7967,4.8057,4.8297,4.7848,4.7309,4.6651,4.71,4.707,4.6651,4.6651,4.6651,4.6621,4.5933,4.5633,4.5603,4.4915,4.3629,4.1953,4.1085,4.0457,4.0187,4.1055,4.1115,4.0786,0.0,0.0,0.0,0.0,0.0,0.0,0.0,1.9811,2.0037,2.0693,2.1669,2.2799,2.3954,2.5511,2.6942,2.8021,2.7118,2.6691,2.7268,2.5234,2.428,2.4858,2.5912,2.7017,2.8122,2.9779,3.0859,3.1386,3.1938,3.1938,3.1411,3.1411,3.1436,3.1461,3.1461,3.1436,3.1436,3.1461,3.0507,2.9001,2.8976,2.8976,2.8825,0.0,0.0,0.0,0.0,0.0,0.0,0.0,0.0,0.0,0.0,0.0,0.0,0.0,0.0,0.0,0.0,0.0,0.0,0.0,0.0,0.0,0.0,0.0,0.0,0.0,0.0,0.0,0.0,0.0,0.0,0.0,0.0,0.0,3.9162,4.1235,4.2252,4.1654,4.3838,4.4915,4.3498,4.5191,4.6411,4.6356,4.7608,4.8327,4.8327,4.8925,4.9284,4.9284,4.9314,4.9015,4.8356,4.8327,4.7997,4.7339,4.7309,4.7309,4.7309,4.7309,4.7309,4.7279,4.6621,4.6352,4.6292,4.5603,4.5334,4.5185,4.3898,4.2611,4.1654,4.291,4.2551,4.1444,0.0,0.0,0.0,0.0,0.0,0.0,0.0,2.0162,2.0765,2.1744,2.2849,2.4104,2.5611,2.654,2.7494,2.8599,2.7318,2.6866,2.7821,2.5812,2.5008,2.5963,2.7067,2.8172,2.9302,3.0181,3.0859,3.1386,3.1938,3.2139,3.1989,3.1989,3.2416,3.3194,3.2792,3.2616,3.2641,3.3043,3.224,3.0683,3.0306,2.9905,2.9478,0.0,0.0,0.0,0.0,0.0,0.0,0.0,0.0,0.0,0.0,0.0,0.0,0.0,0.0,0.0,0.0,0.0,0.0,0.0,0.0,0.0,0.0,0.0,0.0,0.0,0.0,0.0,0.0,0.0,0.0,0.0,3.718,3.9761,4.1377,4.3242,4.4585,4.4851,4.6874,4.7435,4.5402,4.7248,4.8178,4.755,4.8472,4.9015,4.9015,4.9613,4.9972,4.9972,5.0421,5.0361,4.9703,4.9224,4.8656,4.8027,4.7549,4.7309,4.7309,4.7309,4.7309,4.7309,4.713,4.704,4.698,4.6322,4.6052,4.5963,4.5095,4.4526,4.4197,4.4077,4.3509,4.2731,0.0,0.0,0.0,0.0,0.0,0.0,0.0,2.0439,2.1142,2.2498,2.3828,2.5209,2.664,2.7494,2.8222,2.8875,2.762,2.7067,2.772,2.6766,2.649,2.7118,2.8649,2.9905,3.0783,3.1361,3.2014,3.2792,3.2867,3.3043,3.3269,3.3269,3.3621,3.4223,3.3897,3.3771,3.3796,3.4098,3.3671,3.2767,3.2466,3.1712,3.0708,2.993,2.9578,2.9428,2.8976,2.8875,2.8825,2.8197,0.0,0.0,0.0,0.0,0.0,0.0,0.0,0.0,0.0,0.0,0.0,0.0,0.0,0.0,0.0,0.0,0.0,0.0,0.0,0.0,0.0,0.0,0.0,0.0,3.9462,4.2279,4.3642,4.4571,4.5677,4.7223,4.8668,4.8808,4.6929,4.8992,4.994,4.8437,4.9647,5.0415,4.9993,5.0947,5.1468,5.1468,5.1828,5.1588,5.0661,5.0272,4.9613,4.8686,4.8297,4.8117,4.8117,4.7848,4.7728,4.7698,4.7429,4.7309,4.7279,4.689,4.6741,4.6621,0.0,0.0,0.0,0.0,4.3658,4.3269,0.0,0.0,0.0,0.0,0.0,0.0,0.0,2.0819,2.1393,2.2949,2.4582,2.6013,2.7067,2.8172,2.8825,2.8825,2.7821,2.7193,2.7193,2.7821,2.8247,2.8373,3.0432,3.1838,3.239,3.2968,3.3746,3.4726,3.4223,3.4248,3.4726,3.4776,3.4826,3.4826,3.4876,3.4876,3.4826,3.4826,3.4776,3.4726,3.4726,3.3746,3.2215,3.126,3.111,3.126,3.0306,2.9679,2.9277,2.9151,0.0,0.0,0.0,0.0,0.0,0.0,0.0,0.0,0.0,0.0,0.0,0.0,0.0,0.0,0.0,0.0,0.0,0.0,0.0,0.0,0.0,0.0,0.0,0.0,4.1815,4.433,4.5949,4.5606,4.6063,4.8424,4.9452,4.9285,4.7725,5.0155,5.1017,4.9,5.0673,5.1641,5.1266,5.2328,0.0,0.0,0.0,5.2665,5.1349,5.1319,5.0661,4.9374,4.9284,4.9254,4.9254,4.8596,4.8297,4.8237,4.7578,4.7309,4.7309,4.7309,4.7309,4.7189,4.5992,4.5125,4.4466,4.3808,4.3509,4.3419,0.0,0.0,0.0,0.0,0.0,0.0,0.0,2.1418,2.2272,2.2965,2.4582,2.5862,2.654,2.7595,2.8273,2.8273,2.7243,2.6615,2.6615,2.7971,2.9176,3.008,3.1813,3.3018,3.3571,3.4123,3.45,3.4726,3.4625,3.4625,3.4726,3.5177,3.5378,3.5403,3.5855,3.5805,3.5378,3.5378,3.5127,3.4726,3.4726,3.3997,3.2893,3.2692,3.2089,3.1361,3.116,3.1286,3.1436,3.0583,3.0507,3.0608,2.9729,0.0,0.0,0.0,0.0,0.0,0.0,0.0,0.0,0.0,0.0,0.0,0.0,0.0,0.0,0.0,0.0,0.0,0.0,0.0,0.0,4.0526,4.2468,4.4823,4.7652,4.6875,4.6269,4.705,4.8242,4.8219,4.6091,4.811,4.9426,4.9472,4.9509,5.0406,5.2655,5.1929,5.1929,5.3174,5.3713,5.3354,5.2037,5.2007,5.1349,5.0032,4.9523,0.0,4.9254,4.8596,4.8297,4.8237,4.7578,4.7309,4.7309,4.7309,4.7309,4.7279,4.701,4.6501,4.5843,4.5155,4.4586,4.4047,0.0,0.0,0.0,0.0,0.0,0.0,0.0,2.197,2.2623,2.3452,2.4531,2.541,2.5963,2.6515,2.6841,2.6841,2.6615,2.676,2.7243,2.9101,3.0658,3.1788,3.342,3.4449,3.4726,3.5002,3.5278,3.5554,3.5278,3.5278,3.5554,3.583,3.6107,3.6383,3.6659,3.6784,3.6784,3.6784,3.6609,3.6358,3.6358,3.5705,3.465,3.4098,3.3545,3.3068,3.3068,3.2893,3.2566,3.2039,3.1637,3.1336,3.1085,3.0608,3.0156,0.0,0.0,0.0,0.0,0.0,0.0,0.0,0.0,0.0,0.0,0.0,0.0,0.0,0.0,3.5655,3.7312,0.0,4.1229,4.3463,4.5387,4.6927,4.8086,4.8266,4.8066,4.7679,4.8733,4.8965,4.7652,4.904,5.0437,5.1127,5.1288,5.2088,5.3935,5.3774,5.3934,5.467,5.47,5.4042,5.2695,5.3025,5.2366,5.072,5.072,5.0571,5.0212,4.9224,4.8775,4.8716,4.7728,4.7309,4.7309,4.7309,4.7309,4.7309,4.7309,4.689,4.6232,4.5544,4.5095,4.4766,0.0,0.0,0.0,0.0,0.0,0.0,0.0,2.2347,2.2799,2.3703,2.4305,2.4833,2.5234,2.5385,2.5435,2.5435,2.6063,2.6942,2.8021,3.0256,3.2039,3.3194,3.4826,3.5705,3.5705,3.5705,3.5906,3.6358,3.6031,3.6081,3.6533,3.6734,3.7036,3.7337,3.7462,3.7688,3.8015,3.8015,3.8015,3.8015,3.8015,3.7462,3.6584,3.5579,3.5002,3.4726,3.4726,3.4022,3.3093,3.3194,3.2566,3.1813,3.2365,3.224,3.1838,3.1612,3.111,0.0,0.0,0.0,0.0,0.0,0.0,0.0,0.0,3.2867,3.3746,3.5203,3.6734,3.8567,4.1028,4.2459,4.4066,4.6552,4.8326,4.9153,4.8435,4.9456,4.9923,4.8878,4.9374,4.9688,4.9573,5.0361,5.1401,5.2701,5.3079,5.3856,5.5271,5.5601,5.5931,5.6166,5.5538,5.461,5.3384,5.3922,5.3324,5.1588,5.2007,5.1917,5.1379,5.0062,4.9374,4.9194,4.7878,4.7309,4.7309,4.7309,4.7309,4.7309,4.7309,4.698,4.6441,4.5753,4.5484,4.5484,0.0,0.0,0.0,0.0,0.0,0.0,0.0,0.0,2.31,2.314,2.3728,2.4104,2.418,2.4607,2.4908,2.4908,2.5862,2.6942,2.8021,3.0633,3.2616,3.3746,3.5378,3.6282,3.6282,3.6282,3.6307,3.6358,3.6784,3.7036,3.7111,3.8115,3.8341,3.7939,3.8442,3.8442,3.8015,3.8015,3.8015,3.8015,3.8015,3.7939,3.7764,3.7136,3.6006,3.4726,3.4726,3.4022,3.3144,3.3646,3.3395,3.2993,3.3545,3.3671,3.342,3.2416,3.1411,3.0482,2.9955,3.0206,3.1085,3.3043,3.3244,3.3972,0.0,3.799,3.809,4.0701,4.2158,4.3363,4.4694,4.62,4.7682,4.9012,4.9391,4.9746,5.0067,5.0247,5.015,4.9544,4.8686,4.851,4.9469,4.9217,5.0253,5.3103,5.2133,5.3033,5.6674,5.5118,5.4767,5.6166,5.5538,5.485,5.4102,5.4162,5.3803,5.2965,5.2456,5.2157,5.2037,5.072,4.9823,4.9194,4.7878,4.7309,4.7309,4.7309,4.7309,4.7309,4.7309,4.7249,4.713,4.6441,4.6202,4.6112,0.0,0.0,0.0,0.0,0.0,0.0,0.0,0.0,0.0,2.3065,2.3351,2.3502,2.3502,2.3703,2.3979,2.4305,2.5636,2.7218,2.8976,3.1662,3.3847,3.5278,3.6307,3.6985,3.7312,3.701,3.6985,3.7312,3.7538,3.7663,3.7663,3.814,3.8417,3.8517,3.8768,3.8919,3.8994,3.8994,3.8994,3.8994,3.8994,3.8793,3.8442,3.7889,3.6634,3.5152,3.4826,3.4223,0.0,0.0,3.2767,3.2667,3.3244,3.3194,3.2817,3.234,3.1662,3.1085,3.1185,3.2089,3.3144,3.3746,3.4926,3.6433,3.8291,3.9094,4.0249,4.3011,4.4744,4.6175,4.7606,4.8686,4.964,5.0444,5.0569,5.0645,5.0896,5.0921,5.072,5.0142,4.9665,5.0257,5.266,5.1255,5.2266,5.6908,5.497,5.4786,5.7511,5.6479,5.5946,5.6166,5.5538,5.488,5.4221,5.4581,5.4042,5.2606,5.2725,5.2366,5.1588,5.0272,4.9105,4.8087,4.7549,4.7309,4.7309,4.7309,4.7309,4.7309,4.7309,4.7309,4.7279,4.701,4.689,4.686,0.0,0.0,0.0,0.0,0.0,0.0,0.0,0.0,0.0,0.0,2.299,2.3065,2.3065,2.3065,2.3301,2.3728,2.5259,2.7092,2.9202,3.1913,3.4248,3.6056,3.681,3.7437,3.799,3.7613,3.7613,3.8015,3.8165,3.8241,3.8241,3.8391,3.8768,3.932,3.932,3.9622,4.0149,3.9973,3.9923,3.9898,3.9747,3.9371,3.8768,3.7889,3.6709,3.5479,3.4926,3.4073,3.3068,3.2265,3.1989,3.2064,3.2491,3.2541,3.239,3.2064,3.1486,3.1135,3.1989,3.3219,3.4349,3.4726,3.6659,3.8668,3.9446,4.0902,4.2861,4.5447,4.7205,4.8686,5.0042,5.0745,5.1247,5.1674,5.1724,5.1724,5.1724,5.1599,5.1297,5.072,5.0368,5.1588,5.5001,5.3128,5.3821,5.8812,5.7131,5.6593,5.8334,5.7573,5.6795,5.6196,5.5538,5.497,5.4491,5.497,5.4461,5.3025,5.3114,5.2665,5.1708,5.0032,4.8745,4.7818,4.7459,4.7309,4.7309,4.7309,4.7309,4.7309,4.7309,4.7309,4.7309,4.7309,4.7309,4.7309,0.0,0.0,0.0,0.0,0.0,0.0,0.0,0.0,0.0,0.0,0.0,0.0,0.0,2.3065,2.309,2.309,2.4682,2.6339,2.8047,3.0733,3.3244,3.5479,3.6609,3.7437,3.799,3.799,3.799,3.8015,3.8567,3.8843,3.8843,3.9396,3.9948,4.0475,4.0475,4.0777,4.1254,4.0727,4.0501,4.045,3.9898,3.9371,3.8693,3.7036,3.6056,3.5479,3.4926,0.0,3.1461,3.1436,3.1411,3.1411,3.1436,3.219,0.0,3.1738,3.0658,3.0181,3.1788,3.2667,3.3771,3.6433,3.8366,4.035,4.3011,4.492,4.6778,4.8987,5.0368,5.1348,5.1925,5.2477,5.2854,5.2879,5.2879,5.2879,5.2879,5.2427,5.1875,5.1322,5.0293,5.1149,5.4946,5.3707,5.394,5.6831,5.7316,5.8027,5.8991,5.7812,5.6795,5.6196,5.5538,5.5179,5.5149,5.5179,5.5149,5.5089,5.3803,5.3144,5.3025,5.0451,4.9254,4.9134,4.7848,4.7309,4.7309,4.7309,4.7309,4.7309,4.7309,4.7309,4.7309,4.7309,4.7309,4.7309,0.0,0.0,0.0,0.0,0.0,0.0,0.0,0.0,0.0,0.0,0.0,0.0,0.0,0.0,0.0,0.0,2.5285,2.6615,2.9076,3.111,3.3219,3.5454,3.6257,3.7262,3.8542,3.8191,3.8366,3.912,3.932,3.9421,3.9421,3.9597,3.9998,4.0526,4.0526,4.0626,4.0777,4.0601,4.03,3.9898,3.8944,3.8693,3.8617,3.6182,3.4926,3.4248,0.0,3.1512,3.0758,3.0005,3.0005,3.0407,3.0758,3.1135,3.1361,3.0984,3.1135,3.1763,3.342,3.5077,3.6835,3.8894,4.0927,4.2861,4.4543,4.6476,4.8259,4.9364,4.9615,4.9665,4.9866,5.0042,5.0293,5.0645,5.1649,5.2503,5.2879,5.3766,5.3633,5.1819,5.2694,5.3511,5.3992,5.2041,5.2944,5.861,5.7188,5.6737,5.8393,5.7603,5.6795,5.6196,5.5538,5.5179,5.5179,5.5179,5.473,5.3832,5.2067,5.099,5.0541,4.9224,4.8626,4.8566,4.7698,4.7549,4.7908,4.7489,4.7309,4.7309,4.7309,4.7309,4.7309,4.7309,4.7309,4.7309,0.0,0.0,0.0,0.0,0.0,0.0,0.0,0.0,0.0,0.0,0.0,0.0,0.0,0.0,0.0,0.0,0.0,2.6339,2.875,3.0055,3.1813,3.4248,3.47,3.568,3.7362,3.6835,3.6985,3.7914,3.8316,3.8517,3.8542,3.8919,3.9496,4.0224,4.0224,4.045,4.0777,4.04,3.9798,3.8994,3.7864,3.7287,3.686,3.465,3.347,0.0,3.0733,3.0005,2.9829,2.8725,2.885,2.9528,2.9679,3.0005,3.0432,3.1009,3.1813,3.3018,3.5278,3.7211,3.9069,4.0927,4.2911,4.4694,4.5824,4.7631,4.9163,4.9515,4.9163,4.8711,4.851,4.8159,4.8008,4.836,4.9314,5.068,5.2323,5.3244,5.3255,5.2286,5.3673,5.4303,5.353,5.2044,5.3389,5.9119,5.7715,5.7109,5.8393,5.7842,5.7064,5.6196,5.5777,5.5418,5.5179,5.5179,5.4521,5.3174,5.1648,5.0601,4.9942,4.9284,4.8985,4.8955,4.8297,4.8117,4.8267,4.7848,4.7519,4.7309,4.7309,4.7309,4.7309,4.7309,4.7309,4.7309,0.0,0.0,0.0,0.0,0.0,0.0,0.0,0.0,0.0,0.0,0.0,0.0,0.0,0.0,0.0,0.0,0.0,0.0,2.7143,2.7795,2.9277,3.1938,3.2114,3.2943,3.455,3.4148,3.4148,3.4675,3.5755,3.6282,3.6358,3.7362,3.8417,3.9496,3.9496,4.0074,4.0978,3.9923,3.8843,3.7739,3.6634,3.5278,3.3771,3.2591,3.1813,3.1185,2.9528,2.8925,2.8775,2.772,2.8122,2.8976,2.8473,2.9101,3.0331,3.1938,3.2867,3.4073,3.7337,3.9069,4.0475,4.2635,4.4418,4.5899,4.6979,4.8435,4.954,4.949,4.8937,4.8284,4.7682,4.6778,4.6175,4.625,4.6401,4.7841,5.1707,5.1319,5.1239,5.2978,0.0,0.0,0.0,5.3851,5.5303,5.8347,5.8873,5.8991,5.9159,5.8501,5.7543,5.6316,5.6196,5.5867,5.5239,5.5149,5.4461,5.3174,5.2456,5.1768,5.1139,5.0481,5.0212,5.0212,4.9553,4.8925,4.8327,4.8297,4.7908,4.7309,4.7309,4.7309,4.7309,4.7309,4.7309,4.7309,0.0,0.0,0.0,0.0,0.0,0.0,0.0,0.0,0.0,0.0,0.0,0.0,0.0,0.0,0.0,0.0,0.0,0.0,2.6615,2.757,2.8599,2.9729,3.0934,3.1989,3.2842,3.3545,3.3972,3.4098,3.4801,3.5152,3.5152,3.5429,3.5931,3.6609,3.6609,3.6759,3.701,3.6734,3.6207,3.5454,3.4349,3.3897,3.3696,3.1763,3.1185,3.1185,2.9528,2.8925,2.8875,2.8599,2.9503,3.0809,3.1085,3.1938,3.3169,3.4826,3.6282,3.7939,4.0425,4.2208,4.3815,4.5623,4.6677,4.7481,4.8184,4.8686,4.8761,4.7933,4.5999,4.4166,4.3187,4.3463,4.4242,4.5497,4.7757,5.0588,5.4026,5.4285,5.4326,5.5127,0.0,5.7106,5.6534,5.7245,5.8519,6.025,5.8537,5.8009,5.9787,5.874,5.7962,5.7633,5.6675,5.6077,5.5927,5.4431,5.3533,5.3144,5.1528,5.0661,5.0451,4.9823,4.9763,5.0212,4.9553,4.9164,4.8985,4.8476,4.7908,4.7309,4.7309,4.7309,4.7309,4.7309,4.7309,4.7309,0.0,0.0,0.0,0.0,0.0,0.0,0.0,0.0,0.0,0.0,0.0,0.0,0.0,0.0,0.0,0.0,0.0,0.0,0.0,2.6816,2.7369,2.8172,2.885,2.9603,3.0382,3.1035,3.1361,3.1361,3.2416,3.2792,3.2566,3.3043,3.3545,3.4073,3.4073,3.4223,3.4449,3.4198,3.3771,0.0,0.0,3.2039,3.1964,3.0733,3.0432,3.0557,2.9628,2.9603,3.008,3.0583,3.1185,3.1964,3.3269,3.4274,3.5403,3.7563,3.9195,4.0802,4.3011,4.4644,4.5949,4.6903,4.7531,4.7807,4.7431,4.733,4.6878,4.5271,4.3313,4.163,4.0777,4.1329,4.2283,4.3489,4.6024,4.9214,5.3102,5.3519,5.4033,0.0,5.7519,0.0,5.709,5.9009,6.0745,6.1493,5.9191,5.8431,6.0057,5.9129,5.8291,5.7693,5.6944,5.6316,5.5748,5.4042,5.3174,5.3144,5.1468,5.0661,5.0661,5.0301,5.0331,5.0631,4.9972,4.9523,4.9224,4.8566,4.7908,4.7309,4.7309,4.7309,4.7309,4.7309,4.7309,4.7309,0.0,0.0,0.0,0.0,0.0,0.0,0.0,0.0,0.0,0.0,0.0,0.0,0.0,0.0,0.0,0.0,0.0,0.0,0.0,0.0,2.6113,2.7017,2.6741,2.6992,2.7871,2.8021,2.8072,2.7996,2.9528,3.003,2.9578,3.0532,3.121,3.1662,3.1662,3.1938,3.239,3.1888,3.1436,3.1035,3.0583,3.0156,2.9804,0.0,0.0,0.0,2.9804,3.0432,3.1512,3.2918,3.3169,3.3244,3.5403,3.6634,3.7739,4.03,4.1831,4.3162,4.5246,4.6577,4.7355,4.7431,4.7682,4.7506,4.5949,4.5372,4.4543,4.2384,4.1003,4.0023,3.9471,3.9948,4.0676,4.153,4.3514,4.6493,5.1144,5.1689,5.2456,5.4804,5.7549,5.8604,5.6976,5.98,6.1863,6.2211,6.0356,5.9518,6.0176,5.9608,5.859,5.7154,5.7094,5.6466,5.5209,5.3952,5.3264,5.3174,5.1947,5.1319,5.1229,5.1229,5.1229,5.1169,5.0511,4.9883,4.9224,4.8566,4.7908,4.7309,4.7309,4.7309,4.7309,4.7309,4.7309,4.7309,0.0,0.0,0.0,0.0,0.0,0.0,0.0,0.0,0.0,0.0,2.4054,2.4833,0.0,0.0,0.0,0.0,0.0,0.0,0.0,0.0,0.0,2.5912,2.6691,2.7017,2.6741,2.7645,2.7871,2.7419,2.8172,2.8499,2.8398,2.8599,2.8725,2.8825,2.8825,2.8875,2.8976,2.8875,2.9026,2.9352,2.9252,2.9453,2.9804,0.0,0.0,0.0,2.9804,3.0206,0.0,0.0,3.5655,3.6634,3.8417,4.03,4.2108,4.3489,4.4719,4.5874,4.7129,4.7983,4.8586,4.9063,4.8535,4.7606,4.6426,4.4744,0.0,4.1153,3.9546,3.8266,3.7713,3.8843,4.0601,4.2986,4.5246,4.84,5.3365,5.3968,5.4928,0.0,5.7965,5.8659,5.9679,5.9908,6.0794,6.2754,6.1044,6.0206,6.0894,6.0296,5.9039,5.7154,5.7094,5.6466,5.5209,5.4431,5.3743,5.3174,5.2396,5.1738,5.1229,5.1229,5.1229,5.1169,5.0511,4.9883,4.9224,4.8566,4.7908,4.7309,4.7309,4.7309,4.7309,4.7309,4.7309,4.7309,0.0,0.0,0.0,0.0,0.0,0.0,0.0,0.0,2.1995,2.3401,2.4305,2.4933,2.5184,2.5963,0.0,0.0,0.0,0.0,0.0,0.0,0.0,0.0,0.0,0.0,2.6533,2.7268,2.7394,2.6841,0.0,2.7519,2.7243,2.7243,2.7243,2.7243,2.7243,2.7243,2.7243,2.7243,2.7745,2.8499,2.8499,2.9026,0.0,0.0,0.0,0.0,0.0,0.0,3.1788,0.0,3.6182,3.8417,4.035,4.2283,4.4041,4.5171,4.6502,4.7832,4.8912,4.9414,4.9615,4.9615,4.8335,4.6552,4.4593,0.0,0.0,3.8768,3.7713,3.7061,3.681,3.8115,3.9873,4.1781,4.3714,4.656,5.0921,5.1563,5.2827,5.6224,5.7496,5.8634,6.0359,6.0996,6.182,6.3049,6.1882,6.1134,6.1104,5.9817,5.8471,5.7124,5.6795,5.6166,5.5209,5.4551,5.4042,5.3713,5.2695,5.2037,5.1708,5.1379,5.1229,5.1169,5.0511,5.0062,4.9703,4.8686,4.8087,4.7788,4.7429,4.7309,4.7309,4.7309,4.7309,4.7309,0.0,0.0,0.0,0.0,0.0,0.0,0.0,2.1493,2.2121,2.3929,2.4556,2.5059,2.5711,2.6189,2.6533,0.0,0.0,0.0,0.0,0.0,0.0,0.0,0.0,0.0,0.0,0.0,0.0,2.6533,2.6892,0.0,0.0,0.0,0.0,0.0,2.6533,2.6533,2.6533,2.6533,2.7092,0.0,0.0,2.8775,0.0,0.0,0.0,0.0,0.0,0.0,3.2089,3.3571,3.5805,3.8366,4.0576,4.2811,4.4794,4.5698,4.7205,4.8837,4.9941,5.0243,5.0142,4.9715,4.7857,4.5447,4.276,4.0802,3.8919,3.6784,3.6358,3.6358,3.6358,3.7538,3.8944,4.03,4.1706,4.4016,4.8033,4.9039,5.0945,5.5282,5.7159,5.8759,6.087,6.191,6.2701,6.3079,6.2331,6.1583,6.0924,5.9279,5.7962,5.7124,5.6615,5.5987,5.5209,5.467,5.4341,5.4192,5.2995,5.2336,5.2187,5.1528,5.1229,5.1169,5.0511,5.0242,5.0152,4.8985,4.8416,4.8237,4.7728,4.7429,4.7309,4.7309,4.7309,4.7309,0.0,0.0,0.0,0.0,0.0,0.0,0.0,2.1493,2.2272,2.4456,2.4782,2.5209,2.6264,2.6508,2.6533,0.0,0.0,0.0,0.0,0.0,0.0,0.0,0.0,0.0,0.0,0.0,0.0,2.6533,2.6584,0.0,0.0,0.0,0.0,0.0,0.0,2.6533,2.6533,2.6533,0.0,0.0,0.0,0.0,0.0,0.0,0.0,0.0,0.0,3.0633,3.116,3.3771,3.4851,3.5479,3.7688,4.1254,4.4644,4.4744,4.6301,4.8234,4.9364,4.9665,4.9665,4.9615,4.7556,4.497,4.271,4.0526,3.8442,3.6709,3.6358,3.6358,3.6358,3.6885,3.804,4.0174,4.1053,4.3011,4.738,4.9729,5.2604,5.6499,5.7673,5.9256,6.2555,6.1525,6.1377,6.2933,6.1912,6.0894,6.0206,5.9428,5.8411,5.7124,5.7034,5.6436,5.5209,5.5119,5.479,5.4192,5.3443,5.2785,5.2187,5.1528,5.1229,5.1169,5.0511,5.0242,5.0182,4.9464,4.8835,4.8267,4.8207,4.7848,4.7309,4.7309,4.7309,4.7309,0.0,0.0,0.0,0.0,0.0,0.0,2.1368,2.1769,2.2673,2.4582,2.4833,2.5234,2.6408,2.6533,2.6533,0.0,0.0,0.0,0.0,0.0,0.0,0.0,0.0,0.0,0.0,0.0,2.6684,2.6942,2.6684,0.0,0.0,0.0,0.0,0.0,0.0,2.6533,2.6533,2.6533,0.0,0.0,0.0,0.0,0.0,0.0,0.0,0.0,0.0,0.0,3.1311,3.2742,3.3897,3.4826,3.5353,3.7663,4.0526,4.2559,4.4945,4.7255,4.8711,4.959,4.9941,4.9264,4.6753,4.3991,4.2108,3.9697,3.7563,3.6558,3.6358,3.6358,3.6358,3.6533,3.7186,3.8743,3.8919,4.0275,4.4367,4.615,4.9114,5.5058,5.65,5.872,6.2668,6.2438,6.1966,6.1942,6.1403,6.0655,5.9548,5.9249,5.8501,5.7124,5.7094,5.6466,5.5209,5.5179,5.5059,5.479,5.4132,5.3443,5.2755,5.2127,5.1588,5.1199,5.093,5.084,5.078,5.0122,4.9703,4.9434,4.9015,4.8476,4.7908,4.7908,4.7638,4.7309,0.0,0.0,0.0,0.0,0.0,2.0665,2.1368,2.182,2.2673,2.4356,2.4732,2.5184,2.6113,2.6433,2.6533,2.6533,0.0,0.0,0.0,0.0,0.0,0.0,0.0,0.0,0.0,0.0,2.671,2.7042,2.6816,2.6892,0.0,0.0,2.6716,2.6691,0.0,0.0,0.0,0.0,0.0,0.0,0.0,0.0,0.0,0.0,0.0,0.0,0.0,0.0,0.0,0.0,0.0,3.3947,3.3721,0.0,0.0,3.9998,4.3011,4.5698,4.7355,4.8711,4.9439,4.851,4.5899,4.3137,4.148,3.9069,3.7036,3.6483,3.6358,3.6358,3.6358,3.6358,3.6659,3.7613,3.7563,3.8617,4.2007,4.3558,4.6516,5.2595,5.4545,5.7071,6.15,6.26,6.26,6.1493,6.1224,6.0595,5.9458,5.9039,5.8291,5.7124,5.6915,5.6286,5.5209,5.5179,5.5179,5.5179,5.4311,5.3743,5.3443,5.2396,5.1768,5.1498,5.1319,5.1229,5.1169,5.072,5.0421,5.0182,4.9733,4.9045,4.8297,4.8297,4.7878,4.7309,0.0,0.0,0.0,0.0,0.0,0.0,0.0,2.1493,2.2096,2.3778,2.4481,2.5034,2.5536,2.6113,2.6533,2.6533,0.0,0.0,0.0,0.0,0.0,0.0,0.0,0.0,0.0,0.0,2.6533,2.6533,2.7017,2.7268,2.7293,2.7268,2.7268,2.7243,0.0,0.0,0.0,0.0,0.0,0.0,0.0,0.0,0.0,0.0,0.0,0.0,0.0,0.0,0.0,0.0,0.0,0.0,0.0,0.0,0.0,0.0,4.04,4.3388,4.507,4.6702,4.7807,4.728,4.5045,4.2559,4.0902,3.8793,3.7036,3.6483,3.6358,3.6358,3.6358,3.6358,3.6533,3.7111,3.7638,3.8793,4.1028,4.3403,4.6115,4.9527,5.1576,5.4293,5.8752,6.1523,6.281,6.2121,6.1493,6.0805,6.0116,5.883,5.7812,5.7124,5.6496,5.5867,5.5209,5.5179,5.5179,5.5179,5.3832,5.3533,5.4132,5.2127,5.1588,5.2157,5.1498,5.1229,5.1229,5.1199,5.084,5.0242,5.0242,4.9434,4.8297,4.8297,4.7878,4.7309,0.0,0.0,0.0,0.0,0.0,0.0,0.0,2.1242,2.1945,2.3251,2.3552,2.4155,2.546,2.5762,2.6038,2.6483,0.0,0.0,0.0,0.0,0.0,0.0,0.0,0.0,0.0,0.0,2.6264,2.7017,2.7193,2.7469,2.7846,2.7846,2.7846,2.7821,2.7268,2.7017,0.0,0.0,0.0,0.0,0.0,0.0,2.9804,0.0,0.0,0.0,0.0,0.0,0.0,0.0,0.0,0.0,0.0,0.0,0.0,3.4826,3.7563,4.0526,4.2208,4.3589,4.4418,4.3865,4.2208,4.0501,3.9597,3.7965,3.6584,3.6408,3.6358,3.6358,3.6358,3.6358,3.6659,3.7588,3.7889,3.8517,3.9998,4.3491,4.7169,5.0568,5.6123,6.0274,6.1732,6.257,6.263,6.1493,6.1224,6.0625,5.9488,5.859,5.7812,5.7124,5.6496,5.5867,5.5209,5.5179,5.5179,5.5179,5.476,5.4431,5.4162,5.3054,5.2426,5.2157,5.1498,5.1229,5.1229,5.1229,5.1079,5.09,5.09,5.0122,4.8955,4.8955,4.8267,4.7309,0.0,0.0,0.0,0.0,0.0,0.0,0.0,2.0966,2.1568,2.2673,2.294,2.3678,2.5134,2.5485,2.5837,2.6483,0.0,0.0,0.0,0.0,0.0,0.0,0.0,0.0,0.0,2.6113,2.6364,2.7293,2.7494,2.777,2.8122,2.8323,2.8298,2.8097,2.7745,2.7595,0.0,0.0,0.0,0.0,0.0,0.0,2.9804,0.0,0.0,0.0,0.0,0.0,0.0,0.0,0.0,0.0,0.0,0.0,0.0,0.0,3.4901,3.7186,3.9471,4.1053,4.1982,4.163,4.045,3.9245,3.8668,3.7412,3.6358,3.6358,3.6358,3.6358,3.6358,3.6358,3.6659,3.7563,3.7864,3.8391,3.9546,4.3766,4.8313,5.2406,5.8018,6.1583,6.1583,6.248,6.254,6.1224,6.1104,6.0535,5.9189,5.8471,5.7812,5.7124,5.6496,5.5987,5.5568,5.5329,5.5179,5.5179,5.494,5.473,5.4551,5.3354,5.2725,5.2516,5.1618,5.1229,0.0,5.1229,5.1229,5.1229,5.1229,5.0571,4.9643,4.9643,4.8955,4.7997,0.0,0.0,0.0,0.0,0.0,0.0,0.0,0.0,2.1046,2.2121,2.2698,2.3477,2.4682,2.53,2.5854,2.6483,0.0,0.0,0.0,0.0,0.0,0.0,0.0,0.0,0.0,2.6483,2.6691,2.7293,2.7795,2.8097,2.8172,2.8649,2.8649,2.8222,2.8147,2.8122,0.0,0.0,0.0,0.0,0.0,0.0,0.0,0.0,0.0,0.0,0.0,0.0,0.0,0.0,0.0,0.0,0.0,0.0,0.0,0.0,0.0,0.0,0.0,3.8894,4.0149,4.0149,3.9421,3.8542,3.8015,3.7086,0.0,3.6358,3.6358,3.6358,3.6408,3.6383,3.6653,3.7379,3.7786,3.8516,3.9879,4.4582,4.9791,5.4815,5.7782,5.9338,5.9189,6.1523,6.254,6.1224,6.1104,6.0535,5.9189,5.853,5.7872,5.7184,5.6555,5.6196,5.6107,5.5508,5.5179,5.5179,5.4581,5.4581,5.5059,5.3144,5.2576,5.3054,5.1768,5.1229,5.1229,5.1229,5.1229,5.1229,5.1229,5.081,5.0242,5.0242,4.9823,4.9164,0.0,0.0,0.0,0.0,0.0,0.0,0.0,0.0,0.0,0.0,2.2219,2.3122,2.4671,2.5524,2.6116,0.0,0.0,0.0,0.0,0.0,0.0,0.0,0.0,0.0,0.0,2.6038,2.6289,2.7293,2.7419,2.7921,2.8725,2.8423,2.8699,2.9352,2.8499,2.8348,0.0,0.0,0.0,0.0,0.0,0.0,0.0,0.0,0.0,0.0,2.993,3.0256,0.0,0.0,0.0,0.0,0.0,0.0,0.0,0.0,3.1687,3.2139,3.3796,0.0,3.6709,3.6709,3.6835,3.691,0.0,0.0,0.0,0.0,0.0,3.6483,3.691,3.6659,3.7191,3.9537,3.8856,3.9287,4.2905,4.8724,5.3994,5.769,6.0535,6.1553,5.9997,6.1822,6.254,6.1224,6.1104,6.0535,5.9189,5.8949,5.856,5.7902,5.7244,5.6406,5.5418,5.5269,5.5179,5.5179,5.5029,5.479,5.4401,5.3414,5.2755,5.2396,5.1558,5.1229,5.1229,5.1229,5.1229,5.1229,5.1229,5.081,5.0242,5.0242,4.9823,4.9164,0.0,0.0,0.0,0.0,0.0,0.0,0.0,0.0,0.0,0.0,0.0,0.0,0.0,0.0,0.0,0.0,0.0,0.0,0.0,0.0,0.0,0.0,0.0,0.0,2.6508,2.6138,2.6414,2.7293,2.7544,2.7846,2.8172,2.8674,2.8925,2.9026,2.8925,0.0,0.0,0.0,0.0,0.0,2.9804,0.0,0.0,0.0,0.0,0.0,2.9804,2.998,0.0,3.0231,3.0432,3.0658,0.0,0.0,0.0,0.0,3.0834,3.116,3.1788,3.3345,3.4901,3.5429,3.5956,3.6358,3.6358,0.0,0.0,0.0,0.0,3.6383,3.6433,3.6828,3.7893,4.0087,4.0271,4.1877,4.6968,5.0657,5.4515,5.905,6.0835,6.1642,6.1463,6.2151,6.2211,6.1194,6.0835,6.0206,5.9159,5.883,5.8351,5.7663,5.7004,5.6346,5.5658,5.5029,5.491,5.5179,5.4581,5.4251,5.4192,5.3174,5.2546,5.2157,5.1498,5.1229,5.1229,5.1229,5.1229,5.1229,5.1229,5.099,5.0661,5.0361,5.0002,4.9583,0.0,0.0,0.0,0.0,0.0,0.0,0.0,0.0,0.0,0.0,0.0,0.0,0.0,0.0,0.0,0.0,0.0,0.0,0.0,0.0,0.0,0.0,0.0,2.5963,2.6508,2.6533,2.6766,2.7394,2.772,2.7745,2.757,2.875,2.885,2.8147,2.9277,2.9804,0.0,0.0,0.0,0.0,2.9804,0.0,0.0,0.0,0.0,0.0,0.0,0.0,0.0,2.9804,2.9804,2.9804,2.9804,0.0,0.0,0.0,0.0,0.0,3.0783,3.229,3.3997,3.4926,3.5655,3.6107,3.6107,0.0,0.0,0.0,0.0,0.0,3.5915,3.7169,3.8792,4.0335,4.2554,4.5807,5.1106,5.2121,5.4241,5.9498,6.0356,6.1104,6.248,6.2301,6.1822,6.1164,6.0475,5.9757,5.9009,5.8441,5.7752,5.6974,5.6436,5.6137,5.6017,5.482,5.4491,5.5029,5.3773,5.3443,5.3862,5.2725,5.2157,5.2007,5.1468,5.1229,5.1229,5.1229,5.1229,5.1229,5.1229,5.1169,5.099,5.0451,5.0182,4.9912,0.0,0.0,0.0,0.0,0.0,0.0,0.0,0.0,0.0,0.0,0.0,0.0,0.0,0.0,0.0,0.0,0.0,0.0,0.0,0.0,0.0,0.0,2.6615,2.6433,2.6533,2.6533,2.6967,2.7971,2.7118,2.7394,2.8649,2.7494,2.7369,2.8147,2.9277,2.9804,2.9804,0.0,0.0,0.0,2.9804,0.0,0.0,0.0,0.0,0.0,0.0,0.0,0.0,2.9804,2.9804,2.9804,2.9804,0.0,0.0,0.0,0.0,0.0,3.1587,3.2566,3.3244,3.342,3.4223,3.4977,3.4977,0.0,0.0,0.0,0.0,0.0,0.0,3.8359,4.0022,4.3172,4.7211,5.1061,5.4168,5.6466,5.8435,5.9937,6.1583,6.2061,6.0685,6.1493,6.1822,6.1164,6.0475,5.9548,5.8351,5.8171,5.7573,5.6346,5.6226,5.5897,5.5359,5.4581,5.4251,5.4341,5.3563,5.2935,5.2516,5.2306,5.1887,5.1379,5.1259,5.1229,5.1229,5.1229,5.1229,5.1229,5.1229,5.087,5.0361,5.0272,4.9883,4.9314,0.0,0.0,0.0,0.0,0.0,0.0,0.0,0.0,0.0,0.0,0.0,0.0,0.0,0.0,0.0,0.0,0.0,0.0,0.0,0.0,0.0,2.8524,2.724,2.6533,2.6533,2.6533,2.6716,2.7218,2.6992,2.7143,2.7595,2.7419,2.777,2.8574,2.9428,2.9804,2.9804,0.0,0.0,0.0,0.0,0.0,0.0,0.0,0.0,0.0,0.0,0.0,0.0,0.0,2.9804,2.9804,2.9804,0.0,0.0,0.0,0.0,0.0,3.0708,3.1512,3.224,3.2541,3.4123,3.5529,0.0,0.0,0.0,0.0,0.0,0.0,0.0,3.9795,4.275,4.777,5.0971,5.3516,5.547,5.6809,5.8022,5.9398,6.0386,6.0864,6.0655,6.0864,6.0894,6.0565,5.9608,5.877,5.8141,5.7453,5.6795,5.6196,5.5837,5.5329,5.467,5.3982,5.3832,5.4192,5.2785,5.2157,5.2187,5.1828,5.1498,5.1229,5.1229,5.1229,5.1229,5.1229,5.1229,5.1229,5.1229,5.102,5.069,4.9972,4.9075,4.8177,0.0,0.0,0.0,0.0,0.0,0.0,0.0,0.0,0.0,0.0,0.0,0.0,0.0,0.0,0.0,0.0,0.0,0.0,0.0,0.0,2.8966,2.8961,2.7615,2.6785,2.6533,2.6533,2.6584,2.671,2.6942,2.6866,2.6559,2.7444,2.8197,2.8775,2.9327,2.9654,2.9804,2.9804,2.9804,0.0,0.0,0.0,0.0,0.0,0.0,0.0,0.0,0.0,0.0,0.0,0.0,0.0,0.0,0.0,0.0,2.9804,2.9804,2.9854,3.0105,3.0758,3.1562,3.224,0.0,0.0,0.0,0.0,0.0,0.0,0.0,0.0,3.9258,4.2147,4.6074,5.1304,5.3713,5.5359,5.6675,5.7124,5.7902,5.9398,5.9578,5.9967,6.1014,6.0356,5.9847,5.9847,5.862,5.7812,5.7663,5.6705,5.6107,5.5957,5.5448,5.494,5.4431,5.3593,5.3384,5.3713,5.2037,5.1498,5.1947,5.1439,5.1229,5.1229,5.1229,5.1229,5.1229,5.1229,5.1229,5.1229,5.1229,5.102,5.0631,4.9464,4.8297,4.7309,0.0,0.0,0.0,0.0,0.0,0.0,0.0,0.0,0.0,0.0,0.0,0.0,0.0,0.0,0.0,0.0,0.0,0.0,0.0,0.0,2.9575,2.7556,2.7817,2.7494,2.6559,2.6533,2.6716,2.7218,2.6741,2.6559,2.6533,2.7067,2.7645,2.8197,2.875,2.9302,2.9804,2.9804,2.9804,0.0,0.0,0.0,0.0,0.0,0.0,0.0,0.0,0.0,0.0,0.0,0.0,0.0,0.0,0.0,2.9804,2.9804,2.9804,3.0005,3.1009,3.1336,3.1637,3.2742,3.3169,0.0,3.5203,3.5981,0.0,3.8701,0.0,0.0,0.0,4.6344,4.955,5.1858,5.485,5.7363,5.871,5.9967,6.0805,6.0954,6.0984,6.1014,6.1104,5.9937,5.9189,5.9189,5.7932,5.6915,5.6346,5.6226,5.5897,5.5269,5.5209,5.5179,5.5119,5.3832,5.2905,5.2336,5.1588,5.1259,5.1289,5.1229,5.1229,5.1229,5.1229,5.1229,5.1229,5.1229,5.1229,5.1229,5.1229,5.0481,4.9314,4.8626,4.7908,4.7309,0.0,0.0,0.0,0.0,0.0,0.0,0.0,0.0,0.0,0.0,0.0,0.0,0.0,0.0,0.0,0.0,0.0,0.0,0.0,0.0,2.8279,2.817,2.7494,2.6892,2.6533,2.6533,2.6634,2.6766,2.6634,2.671,2.6992,2.7544,2.8097,2.8649,2.9202,2.9578,2.9804,2.9804,2.9804,2.9804,0.0,0.0,0.0,0.0,0.0,0.0,0.0,0.0,0.0,0.0,2.9804,2.9804,2.9804,2.9804,2.9804,2.9804,2.9804,2.988,3.0281,3.1135,3.2014,3.2441,3.3319,0.0,0.0,3.6734,3.7733,3.8877,3.9779,0.0,0.0,4.8464,5.1738,5.3743,5.6466,5.865,5.9578,6.0535,6.0954,6.0535,6.0475,6.0146,5.9338,5.88,5.8321,5.7902,5.7034,5.6406,5.6196,5.5777,5.5448,5.5209,5.479,5.4371,5.3952,5.3025,5.2247,5.1588,5.1349,5.1229,5.1229,5.1229,5.1229,5.1229,5.1229,5.1229,5.1229,5.1229,5.1229,5.1169,5.078,5.0062,4.9194,4.8536,4.7878,4.7309,0.0,0.0,0.0,0.0,0.0,0.0,0.0,0.0,0.0,0.0,0.0,0.0,0.0,0.0,0.0,0.0,0.0,0.0,2.9252,2.7958,2.7578,2.8596,2.7447,2.6716,2.6716,2.6815,2.6782,2.6533,2.6533,2.671,2.7042,2.7595,2.8047,2.8448,2.9176,2.9528,2.9528,2.9704,2.9804,2.9804,2.9804,2.9804,0.0,0.0,0.0,0.0,0.0,0.0,0.0,0.0,2.9804,2.9804,2.9804,2.9804,2.9804,2.9804,2.9804,2.9856,3.0139,3.082,3.1644,3.2479,0.0,0.0,3.6779,3.7864,3.8944,4.0517,4.2372,4.4306,4.6127,4.9589,5.2785,5.4581,5.7274,5.9249,5.9727,6.0356,6.0535,5.9847,5.9787,5.9338,5.8231,5.7932,5.7513,5.6855,5.6226,5.5867,5.5867,5.5239,5.497,5.5179,5.4341,5.3773,5.3503,5.2636,5.1977,5.1528,5.1319,5.1229,5.1229,5.1229,5.1229,5.1229,5.1229,5.1229,5.1229,5.1229,5.1229,5.1139,5.0481,4.9853,4.9194,4.8536,4.7878,4.7309,0.0,0.0,0.0,0.0,0.0,0.0,0.0,0.0,0.0,0.0,0.0,0.0,0.0,0.0,0.0,0.0,0.0,0.0,2.7211,2.7524,2.7907,2.846,2.7736,2.7364,2.7293,2.7582,2.7297,2.6533,2.6533,2.6533,2.6559,2.7017,2.7293,2.7344,2.8423,2.8925,2.895,2.9553,2.9779,2.9779,2.9779,2.9779,0.0,0.0,0.0,0.0,0.0,0.0,0.0,0.0,2.9804,2.9804,2.9804,2.9804,2.9804,2.9804,2.9804,3.0011,3.097,3.0495,3.0416,0.0,0.0,0.0,3.8358,3.9295,4.0717,4.428,4.7122,4.8496,4.7252,4.9907,5.2636,5.3982,5.6944,5.9069,5.9069,5.9668,5.9817,5.9159,5.9099,5.883,5.8171,5.7483,5.6825,5.6196,5.5568,5.5179,5.5179,5.4551,5.4491,5.5149,5.3862,5.3503,5.4192,5.2875,5.2187,5.2187,5.1528,5.1229,5.1229,5.1229,5.1229,5.1229,5.1229,5.1229,5.1229,5.1199,5.1199,5.1139,5.0481,4.9823,4.9164,4.8506,4.7878,4.7309,0.0,0.0,0.0,0.0,0.0,0.0,0.0,0.0,0.0,0.0,0.0,0.0,0.0,0.0,0.0,0.0,0.0,0.0,2.7211,2.7297,2.7264,2.7097,2.8437,2.8607,2.7339,2.6993,2.7027,2.7364,2.6782,2.6666,2.7042,2.7218,2.7494,2.7896,2.8599,2.8725,2.8373,2.895,2.9176,2.9176,2.9176,2.9428,0.0,0.0,0.0,0.0,0.0,0.0,0.0,0.0,0.0,0.0,2.9804,2.9804,2.9804,2.9804,2.9804,3.0011,3.097,3.1572,0.0,3.4411,0.0,0.0,0.0,4.0976,0.0,0.0,4.7806,4.9207,4.9136,5.1198,5.3025,5.3414,5.5478,5.7184,5.7633,5.8291,5.8441,5.7782,5.8112,5.7992,5.6855,5.6555,5.6166,5.5538,5.488,5.4491,5.4491,5.3862,5.3563,5.3773,5.2935,5.2576,5.2785,5.1947,5.1498,5.1498,5.1319,5.1229,5.1229,5.1229,5.1229,5.1229,5.1229,5.1229,5.1169,5.072,5.0541,5.0421,4.9314,4.8745,4.8506,4.7848,4.7489,4.7309,0.0,0.0,0.0,0.0,0.0,0.0,0.0,0.0,0.0,0.0,0.0,0.0,0.0,0.0,0.0,0.0,0.0,0.0,0.0,2.7496,2.7646,2.8679,2.957,2.952,2.8402,2.7747,2.7462,2.767,2.6918,2.671,2.6967,2.7193,2.7344,2.7494,2.8247,2.8298,2.7821,2.8373,2.8725,2.8925,2.8925,2.9277,2.9804,0.0,0.0,0.0,0.0,0.0,0.0,0.0,0.0,0.0,2.9804,2.9804,2.9856,3.0292,3.0343,3.062,3.1974,3.2915,0.0,3.5535,3.8031,4.0745,4.3455,0.0,0.0,0.0,4.956,5.04,5.0672,5.2111,5.3264,5.3533,5.5029,5.6376,5.7004,5.7453,5.7573,5.7154,5.7453,5.7304,5.6286,5.6166,5.5777,5.488,5.4431,5.4102,5.3832,5.3174,5.2905,5.3174,5.2276,5.1947,5.2187,5.1558,5.1229,5.1229,5.1229,5.1229,5.1229,5.1229,5.1229,5.1199,5.093,5.084,5.078,5.0122,4.9853,4.9733,4.8686,4.8297,4.8207,4.7549,4.7309,4.7309,0.0,0.0,0.0,0.0,0.0,0.0,0.0,0.0,0.0,0.0,0.0,0.0,0.0,0.0,0.0,0.0,0.0,0.0,0.0,0.0,2.8802,3.1747,3.076,3.0183,3.0192,2.9214,2.8384,2.767,2.6918,2.6533,2.6533,2.6967,2.6942,2.6515,2.757,2.772,2.7243,2.7795,2.8323,2.8775,2.8775,2.9126,2.9654,2.9654,0.0,0.0,0.0,0.0,0.0,0.0,0.0,0.0,2.9804,2.9804,3.0011,3.0895,3.1167,3.1609,3.3589,3.4427,3.5113,3.6736,3.9836,4.3396,4.6848,4.8496,4.9626,5.1211,5.1689,5.1868,5.1811,5.2612,5.3443,5.3952,5.5179,5.6226,5.6675,5.6855,5.6885,5.6765,5.6855,5.6675,5.6047,5.5987,5.5508,5.4311,5.4102,5.3743,5.3114,5.2456,5.2366,5.2905,5.1738,5.1379,5.1917,5.1349,5.105,5.105,5.105,5.105,5.105,5.1169,5.1199,5.1079,5.0421,5.0152,5.0092,4.9434,4.9164,4.9105,4.8446,4.8207,4.8117,4.7519,4.7309,4.7309,0.0,0.0,0.0,0.0,0.0,0.0,0.0,0.0,0.0,0.0,0.0,0.0,0.0,0.0,0.0,0.0,0.0,0.0,0.0,0.0,2.9957,3.0415,3.1082,3.1506,3.1747,2.9738,2.8384,2.767,2.6918,2.6533,2.6533,2.6659,2.6634,2.6559,2.7168,2.7143,2.6735,2.7218,2.7519,2.7645,2.7645,2.7971,2.8473,2.8473,2.875,0.0,0.0,0.0,0.0,0.0,0.0,0.0,2.9804,2.9804,3.0011,3.0895,3.1167,3.169,3.4129,3.5238,3.6489,3.963,4.3678,4.7435,4.9189,5.0537,5.1355,5.073,5.1829,5.2684,5.218,5.3158,5.3683,5.2785,5.4192,5.5089,5.4162,5.494,5.5209,5.4162,5.497,5.5329,5.47,5.464,5.4521,5.4221,5.3234,5.2576,5.2426,5.1798,5.1259,5.09,5.0601,5.0272,4.9912,4.9763,4.9703,4.9703,4.9703,4.9703,4.9733,5.075,5.093,5.0421,4.9763,4.9464,4.9434,4.8775,4.8506,4.8446,4.7788,4.7519,4.7489,4.7369,4.7309,4.7309,0.0,0.0,0.0,0.0,0.0,0.0,0.0,0.0,0.0,0.0,0.0,0.0,0.0,0.0,0.0,0.0,0.0,0.0,0.0,0.0,3.0865,3.1656,3.2285,3.2262,3.1622,2.9849,2.8332,2.7095,2.6435,2.6189,0.0,2.6533,2.6533,2.6533,2.6766,2.6741,2.6559,2.6766,2.7042,2.7293,2.7293,2.762,2.8097,2.8097,2.8273,2.8574,2.8825,0.0,0.0,0.0,0.0,0.0,0.0,0.0,3.0545,3.1044,3.1536,3.23,3.444,3.6312,3.8531,4.2354,4.5332,4.7759,4.9433,5.0301,5.0773,5.0766,5.207,5.2995,5.2306,5.3025,5.3384,5.2366,5.3354,5.3982,5.3264,5.3773,5.3982,5.3264,5.3803,5.4102,5.3743,5.3713,5.3593,5.3264,5.2606,5.1917,5.1289,5.093,5.0451,4.9793,4.9763,4.9613,4.9254,4.9254,4.9254,4.9254,4.9254,4.9254,4.9284,4.9972,5.0092,4.9733,4.9075,4.8805,4.8745,4.8087,4.7818,4.7788,4.7429,4.7309,4.7309,4.7309,4.7309,4.7309,0.0,0.0,0.0,0.0,0.0,0.0,0.0,0.0,0.0,0.0,0.0,0.0,0.0,0.0,0.0,0.0,0.0,0.0,0.0,0.0,0.0,3.3425,3.3604,3.2859,3.0999,2.9887,2.8379,2.6533,2.5887,0.0,0.0,0.0,0.0,2.6533,2.6533,2.6602,2.6714,2.6602,2.6854,2.7328,2.7213,2.7419,2.7821,2.7965,2.8015,2.8021,2.8621,2.8897,2.9074,2.9656,0.0,0.0,0.0,0.0,3.1035,3.114,3.1901,3.2945,3.4581,3.7386,4.0756,4.4257,4.5961,4.7157,4.8775,4.9194,4.9583,5.0661,5.1738,5.2366,5.1947,5.2306,5.2456,5.1798,5.2336,5.2785,5.2695,5.2785,5.2845,5.2845,5.2935,5.3025,5.3025,5.3025,5.2725,5.2067,5.1917,5.1349,5.0122,5.0062,4.9763,4.9134,4.9105,4.9045,4.8925,4.8925,4.8925,4.8925,4.8925,4.8925,4.8925,4.8925,4.8985,4.9075,4.8386,4.8117,4.8087,4.7519,4.7309,4.7309,4.7309,4.7309,4.7309,4.7309,4.7309,4.7309,0.0,0.0,0.0,0.0,0.0,0.0,0.0,0.0,0.0,0.0,0.0,0.0,0.0,0.0,0.0,0.0,0.0,0.0,2.8727,0.0,0.0,3.3425,3.4053,3.3328,3.1065,3.0331,2.881,2.6533,0.0,0.0,0.0,0.0,0.0,2.6533,0.0,2.6918,2.7471,2.6782,2.6943,2.7602,2.6883,2.6615,2.6804,2.7504,2.7636,2.7536,2.8309,2.8926,2.945,3.0125,3.0468,0.0,0.0,0.0,3.0461,3.1035,3.1901,3.2945,3.4581,3.8429,4.2372,4.4018,4.6267,4.8119,4.8386,4.8865,4.9314,4.9494,4.9673,4.9942,5.0421,5.0571,5.0421,4.9763,5.069,5.1289,5.072,5.1109,5.1468,5.1468,5.1977,5.2336,5.2336,5.2336,5.2067,5.1409,5.084,5.0182,4.9434,4.9404,4.9105,4.8446,4.8416,4.8147,4.7578,4.7578,4.7578,4.7578,4.7578,4.7578,4.7578,4.7578,4.7878,4.8386,4.7728,4.7429,4.7429,4.7339,4.7309,4.7309,4.7309,4.7309,4.7309,4.7309,4.7309,4.7309,0.0,0.0,0.0,0.0,0.0,0.0,0.0,0.0,0.0,0.0,0.0,0.0,0.0,0.0,0.0,2.7051,2.7979,2.8757,2.9116,2.9953,3.1031,3.2347,3.2677,3.1889,2.997,2.9025,2.757,2.5536,0.0,0.0,0.0,2.6634,2.7112,0.0,0.0,0.0,0.0,2.7494,2.7095,2.7027,2.7095,2.6918,2.6552,2.6973,2.7274,2.7592,2.8385,0.0,2.896,2.9663,3.0223,3.076,3.0716,0.0,0.0,0.0,3.2307,3.331,3.6574,3.9119,4.1439,4.4184,4.5569,4.6521,4.7551,4.7967,4.8267,4.8626,4.8416,4.8476,4.9494,4.9703,4.9613,4.9314,4.9763,5.0032,4.9733,4.9942,5.0122,5.0122,5.0391,5.0571,5.0571,5.0571,5.0421,5.0152,4.9853,4.9404,4.8745,4.8716,4.8416,4.7758,4.7728,4.7608,4.7309,4.7309,4.7309,4.7309,4.7309,4.7309,4.7309,4.7309,4.7459,4.7728,4.7429,4.7309,4.7309,4.7309,4.7309,4.7309,4.7309,4.7309,4.7309,4.7309,4.7309,4.7309,0.0,0.0,0.0,0.0,0.0,0.0,0.0,0.0,0.0,0.0,0.0,0.0,0.0,0.0,0.0,0.0,2.7769,2.8637,2.9295,2.9325,2.9983,3.1422,3.1482,3.0837,2.9476,2.8168,2.6715,0.0,0.0,0.0,2.6735,2.6816,2.7985,0.0,2.846,0.0,0.0,0.0,0.0,0.0,0.0,0.0,0.0,0.0,0.0,2.7868,2.8848,0.0,0.0,0.0,0.0,3.04,3.0717,3.0964,0.0,0.0,0.0,3.3748,3.7612,3.9121,4.0354,4.3558,4.4541,4.52,4.6718,4.7189,4.7429,4.7938,4.7638,4.7608,4.8596,4.8775,4.8775,4.8775,4.8775,4.8835,4.8985,4.9015,4.9075,4.9254,4.9254,4.9254,4.9254,4.9254,4.9194,4.9045,4.9015,4.8716,4.8087,4.8027,4.7818,4.7309,4.7309,4.7309,4.7309,4.7309,4.7309,4.7309,4.7309,4.7309,4.7309,4.7309,4.7309,4.7309,4.7309,4.7309,4.7309,4.7309,4.7309,4.7309,4.7309,4.7309,4.7309,4.7309,4.7309,4.7309,0.0,0.0,0.0,0.0,0.0,0.0,0.0,0.0,0.0,0.0,0.0,0.0,0.0,2.761,2.761,2.758,2.764,2.7919,2.8607,2.8637,2.9505,3.1392,3.1482,0.0,3.0269,2.889,0.0,0.0,0.0,0.0,2.7243,2.777,2.9091,3.1035,2.99,2.9082,2.8554,0.0,0.0,0.0,0.0,0.0,0.0,0.0,0.0,0.0,0.0,0.0,0.0,0.0,0.0,0.0,0.0,3.1059,3.0152,0.0,0.0,0.0,3.6119,3.7963,3.9755,4.1235,4.3479,4.543,4.6232,4.686,4.7309,4.7339,4.7339,4.7339,4.7399,4.7399,4.7399,4.7399,4.7399,4.7638,4.8237,4.8327,4.8566,4.9194,4.9254,4.9254,4.9254,4.9254,4.9015,4.8386,4.8327,4.8057,4.7399,4.7369,4.7339,4.7309,4.7309,4.7309,4.7309,4.7309,4.7309,4.7309,4.7309,4.7309,4.7309,4.7309,4.7309,4.7309,4.7309,4.7309,4.7309,4.7309,4.7309,4.7309,4.7309,4.7309,4.7309,4.7309,4.7309,4.7309,0.0,0.0,0.0,0.0,0.0,0.0,0.0,0.0,0.0,0.0,0.0,0.0,0.0,2.761,2.761,2.761,2.761,2.773,2.7919,2.8338,2.9116,3.0223,3.0672,3.0074,2.8415,2.7893,0.0,0.0,0.0,2.4582,2.6214,2.6414,2.748,2.9167,2.8758,2.8782,2.9082,2.8343,0.0,0.0,0.0,0.0,0.0,0.0,0.0,0.0,0.0,0.0,0.0,0.0,0.0,0.0,0.0,0.0,0.0,0.0,3.3715,3.5274,3.6709,3.7068,3.774,4.0666,4.1824,4.2737,4.4601,4.5544,4.6022,4.6022,4.6022,4.6142,4.6591,4.701,4.7309,4.7309,4.7309,4.7399,4.7608,4.7668,4.7758,4.7967,4.7997,4.7997,4.7997,4.7997,4.7908,4.7668,4.7668,4.7549,4.7309,4.7309,4.7309,4.7309,4.7309,4.7309,4.7309,4.7309,4.7309,4.7309,4.7309,4.7309,4.7309,4.7309,4.7309,4.7309,4.7309,4.7309,4.7309,4.7309,4.7309,4.7309,4.7309,4.7309,4.7309,4.7309,4.7309,4.7309,0.0,0.0,0.0,0.0,0.0,0.0,0.0,0.0,0.0,0.0,0.0,0.0,0.0,0.0,2.7357,2.756,2.761,2.761,2.761,2.8008,2.8637,2.9535,2.9983,2.9486,2.8017,0.0,0.0,0.0,0.0,0.0,0.0,2.5511,2.6389,2.7821,2.7419,2.7901,0.0,0.0,0.0,2.676,0.0,0.0,2.7639,0.0,0.0,0.0,0.0,0.0,0.0,0.0,0.0,0.0,0.0,0.0,0.0,0.0,0.0,0.0,3.6477,3.635,3.6675,3.9652,4.0465,4.1096,4.317,4.4167,4.4706,4.4915,4.4975,4.5185,4.5843,4.6352,4.6711,4.695,4.677,4.6621,4.6621,4.683,4.698,4.698,4.716,4.7309,4.7309,4.7309,4.7309,4.7309,4.7309,4.7309,4.7309,4.7309,4.7309,4.7309,4.71,4.698,4.698,4.698,4.686,4.6621,4.686,4.698,4.698,4.7219,4.7309,4.7309,4.7309,4.7309,4.7309,4.7309,4.7309,4.7309,4.7309,4.7309,4.7309,4.7309,4.7309,4.7309,0.0,0.0,0.0,0.0,0.0,0.0,0.0,0.0,0.0,0.0,0.0,0.0,0.0,0.0,0.0,2.7509,2.761,2.761,2.761,2.761,2.821,2.9505,2.9564,2.9448,2.9231,0.0,0.0,0.0,0.0,0.0,0.0,0.0,2.6163,2.7193,2.6063,2.649,2.8069,0.0,2.8101,2.7238,0.0,2.694,2.7455,0.0,0.0,0.0,3.0663,3.0663,0.0,3.1752,0.0,0.0,0.0,0.0,0.0,0.0,0.0,0.0,0.0,0.0,0.0,3.8033,3.9349,4.0666,4.1983,4.2761,4.3419,4.4107,4.4257,4.4436,4.5125,4.5244,4.5454,4.6142,4.5723,4.5304,4.5304,4.5873,4.6292,4.6292,4.686,4.7249,4.7249,4.7249,4.7249,4.7279,4.7249,4.7249,4.7279,4.7249,4.7249,4.7249,4.6621,4.6292,4.6292,4.6292,4.5963,4.5304,4.5963,4.6292,4.6352,4.698,4.7279,4.7309,4.7309,4.7309,4.7309,4.7309,4.7309,4.7309,4.7309,4.7309,4.7309,4.7309,4.7309,4.7309,0.0,0.0,0.0,0.0,0.0,0.0,0.0,0.0,0.0,0.0,0.0,0.0,0.0,0.0,2.6788,2.7509,2.761,2.761,2.761,2.761,2.7949,2.8846,2.8752,2.8397,2.7813,0.0,0.0,0.0,0.0,0.0,0.0,0.0,0.0,0.0,2.5335,2.5511,2.6289,2.6451,0.0,2.7289,2.6764,2.7464,0.0,0.0,0.0,0.0,0.0,3.0458,3.0432,0.0,3.0377,2.9724,0.0,0.0,0.0,0.0,0.0,0.0,3.4831,0.0,0.0,0.0,0.0,0.0,3.9918,4.0367,4.0965,4.2581,4.2521,4.2671,4.4287,4.4197,4.4077,4.4766,4.5095,4.5304,4.5304,4.5454,4.5574,4.5574,4.5753,4.5843,4.5843,4.5843,4.6052,4.6561,4.6142,4.6052,4.6561,4.6112,4.5843,4.5843,4.5663,4.5574,4.5574,4.5574,4.5484,4.5304,4.5484,4.5843,4.6322,4.6501,4.686,4.7309,4.7309,4.7309,4.7309,4.7309,4.7309,4.7309,4.7309,4.7309,4.7309,4.7309,4.7309,4.7309,0.0,0.0,0.0,0.0,0.0,0.0,0.0,0.0,0.0,0.0,0.0,0.0,0.0,0.0,2.7565,2.8008,2.7739,2.761,2.761,2.761,2.7757,2.8125,2.8219,2.7907,2.7081,0.0,0.0,0.0,0.0,0.0,0.0,0.0,0.0,0.0,0.0,0.0,0.0,0.0,0.0,0.0,2.6741,0.0,0.0,2.8737,2.9592,0.0,0.0,0.0,3.0956,3.0851,3.0858,0.0,0.0,0.0,0.0,0.0,0.0,0.0,0.0,0.0,0.0,3.6327,0.0,0.0,3.8332,3.8571,3.899,4.0397,4.0397,4.0576,4.2013,4.2192,4.2312,4.297,4.3629,4.4167,4.4436,4.4706,4.4885,4.4885,4.5125,4.5304,4.5304,4.5304,4.5454,4.5873,4.5514,4.5454,4.5873,4.5244,4.5005,4.5274,4.5035,4.4885,4.4885,4.4885,4.4736,4.4496,4.4766,4.5244,4.5903,4.6202,4.6681,4.7309,4.7309,4.7309,4.7309,4.7309,4.7309,4.7309,4.7309,4.7309,4.7309,4.7309,4.7309,4.7309,0.0,0.0,0.0,0.0,0.0,0.0,0.0,0.0,0.0,0.0,0.0,0.0,0.0,0.0,0.0,0.0,2.8008,2.764,2.7679,2.767,2.7573,2.7386,2.7824,2.7642,2.6744,2.6749,0.0,0.0,0.0,0.0,0.0,0.0,0.0,0.0,0.0,0.0,0.0,0.0,0.0,2.5611,2.6816,2.7645,0.0,0.0,2.9755,3.097,3.0062,3.0676,3.1727,3.1426,3.1424,0.0,0.0,0.0,0.0,0.0,3.3328,0.0,0.0,0.0,0.0,0.0,3.6477,0.0,3.7195,3.7315,3.7524,3.8242,3.8332,3.8542,3.9379,4.0008,4.0606,4.1265,4.1923,4.2581,4.324,4.3838,4.4197,4.4197,4.4736,4.5065,4.5065,4.5065,4.5095,4.5185,4.5185,4.5155,4.5095,4.4526,4.4466,4.5065,4.4496,4.4197,4.4197,4.4197,4.3898,4.3329,4.3928,4.4556,4.5214,4.5903,4.6531,4.71,4.7249,4.7279,4.7189,4.7279,4.7309,4.7309,4.7309,4.7309,4.7309,4.7309,4.7309,4.7309,0.0,0.0,0.0,0.0,0.0,0.0,0.0,0.0,0.0,0.0,0.0,0.0,0.0,0.0,0.0,0.0,2.8278,2.7799,2.8368,2.7889,2.7314,2.6751,2.661,2.6253,2.5493,2.5717,2.5304,0.0,0.0,0.0,0.0,0.0,0.0,0.0,0.0,0.0,0.0,0.0,0.0,2.5109,2.6666,2.7871,2.8775,2.8875,2.9429,3.0062,2.9856,3.0009,3.042,3.1856,3.1595,3.0735,0.0,0.0,0.0,3.1926,0.0,0.0,0.0,0.0,0.0,0.0,3.6477,0.0,3.6746,3.6656,3.6985,3.8153,3.7973,3.8123,3.9888,4.0307,4.0606,4.1265,4.1923,4.2581,4.324,4.3449,4.3539,4.3539,4.3629,4.3718,4.3718,4.3718,4.3928,4.4466,4.4496,4.4287,4.3748,4.3599,4.3599,4.3718,4.3599,4.3539,4.3539,4.3539,4.3449,4.3329,4.3449,4.3868,4.4526,4.5185,4.5574,4.5753,4.683,4.701,4.6561,4.71,4.7309,4.7309,4.7309,4.7309,4.7309,4.7309,4.7309,4.7309,0.0,0.0,0.0,0.0,0.0,0.0,0.0,0.0,0.0,0.0,0.0,0.0,0.0,0.0,0.0,0.0,0.0,0.0,0.0,0.0,2.6434,2.5467,2.5592,2.5329,2.4571,2.4975,2.4808,2.4004,2.428,0.0,0.0,0.0,0.0,0.0,0.0,0.0,0.0,0.0,2.4833,2.4958,2.6615,0.0,2.8549,2.8825,2.9277,2.9804,2.9804,2.9804,2.9984,3.1185,3.1081,0.0,3.1288,3.2301,3.3184,0.0,3.3848,3.5429,0.0,0.0,0.0,3.5998,0.0,0.0,0.0,3.6237,3.6267,3.7255,3.6926,3.6866,3.8212,3.8452,3.8751,3.9738,4.0457,4.1235,4.2222,4.291,4.3329,4.3329,4.3329,4.3329,4.3329,4.3329,4.3479,4.3808,4.3838,4.3688,4.3359,4.3329,4.3329,4.3329,4.3329,4.3329,4.3329,4.3329,4.3329,4.3329,4.3329,4.3688,4.4317,4.4646,4.4975,4.5364,4.6381,4.6621,4.6381,4.704,4.7309,4.7309,4.7309,4.7309,4.7309,4.7309,4.7309,4.7309,0.0,0.0,0.0,0.0,0.0,0.0,0.0,0.0,0.0,0.0,0.0,0.0,0.0,0.0,0.0,0.0,0.0,0.0,0.0,0.0,0.0,2.4363,2.4728,2.4572,2.3828,2.4381,2.4381,2.3828,2.3954,2.3703,0.0,0.0,0.0,0.0,0.0,0.0,0.0,0.0,0.0,2.5109,0.0,2.7544,2.8021,2.8674,2.9227,2.9628,2.9754,2.9804,2.9854,3.0517,3.0826,3.0958,3.1029,3.229,0.0,0.0,0.0,0.0,0.0,0.0,0.0,0.0,0.0,3.6088,0.0,0.0,0.0,3.6207,3.5878,3.5699,3.6357,3.6477,3.6866,3.8003,3.8901,3.9798,4.0846,4.2132,4.3,4.312,4.303,4.3,4.312,4.303,4.3,4.315,4.315,4.321,4.3329,4.3329,4.3329,4.3329,4.3329,4.3329,4.3329,4.3329,4.3329,4.3329,4.3329,4.3599,4.4137,4.4257,4.4526,4.4975,4.5783,4.6142,4.6172,4.6711,4.707,4.7309,4.7309,4.7309,4.7309,4.7309,4.7309,4.7309,3.0253,2.9899,0.0,0.0,0.0,0.0,0.0,0.0,0.0,2.6508,0.0,0.0,0.0,0.0,0.0,0.0,0.0,0.0,2.7709,0.0,0.0,0.0,2.4358,0.0,2.3226,2.3803,2.3803,2.3226,2.3753,2.3703,2.3065,0.0,0.0,0.0,2.3065,0.0,0.0,0.0,2.5084,0.0,2.6816,2.7318,0.0,2.8524,2.8976,2.9101,2.9603,2.9804,2.9959,3.0849,3.1716,3.2499,0.0,3.4196,3.5296,3.559,0.0,0.0,0.0,0.0,0.0,0.0,3.7285,3.7644,3.5998,0.0,3.6237,3.5729,0.0,3.5699,3.6357,0.0,0.0,3.7404,3.8601,3.9469,3.9619,4.0786,4.1833,4.2402,4.1953,4.1833,4.2402,4.1953,4.1833,4.2432,4.2462,4.2731,4.3299,4.3329,4.3329,4.3329,4.3329,4.3329,4.3329,4.3329,4.3329,4.3329,4.3329,4.3359,4.3449,4.4047,4.4047,4.3629,4.4855,4.5394,4.5424,4.5484,4.6232,4.7309,4.7309,4.7309,4.7309,4.7309,4.7309,4.7309,0.0,0.0,0.0,0.0,2.7125,0.0,0.0,0.0,2.6942,2.6942,0.0,0.0,0.0,0.0,0.0,0.0,0.0,2.6408,0.0,0.0,0.0,0.0,0.0,0.0,0.0,2.3376,2.3376,2.3065,2.3376,2.3376,2.3065,2.3065,0.0,0.0,2.3065,0.0,2.4029,0.0,2.5134,0.0,2.6816,2.7293,2.7394,2.8499,2.9126,2.9478,2.9704,2.9804,2.9856,3.0266,3.1206,3.2314,3.2863,0.0,0.0,3.6163,0.0,0.0,0.0,0.0,0.0,0.0,3.7165,3.7075,3.6267,3.5998,3.5938,3.6058,0.0,0.0,0.0,0.0,0.0,0.0,3.7345,3.7853,3.8212,3.8721,3.9768,4.1564,4.1564,4.1354,4.1235,4.0965,4.0935,4.1205,4.1564,4.2073,4.2731,4.2761,4.294,4.3329,4.3329,4.3329,4.3329,4.3329,4.3329,4.3329,4.3329,4.3329,4.3329,4.3629,4.3599,4.3389,4.4317,4.4945,4.5334,4.5723,4.6441,4.7309,4.7309,4.7309,4.7309,4.7309,4.7309,4.7309,0.0,0.0,0.0,0.0,0.0,0.0,0.0,0.0,0.0,0.0,0.0,0.0,2.8047,2.7919,0.0,0.0,2.721,2.6594,0.0,0.0,2.4582,0.0,0.0,0.0,0.0,0.0,2.3301,2.3065,2.3065,2.3065,2.3065,0.0,0.0,0.0,0.0,2.3703,2.428,0.0,2.5586,2.6163,2.7293,2.7821,2.8047,2.8674,2.9277,2.9804,2.9804,2.9804,2.9804,2.9804,3.0701,3.1898,3.2636,3.4015,3.5536,0.0,0.0,0.0,3.7614,3.7823,3.7883,3.7494,3.7075,3.6656,3.6297,3.5998,3.5908,3.6387,3.6237,0.0,0.0,0.0,3.6118,3.6447,0.0,3.6836,3.7105,3.7315,3.8272,4.0576,4.0995,4.0846,4.0187,4.0277,4.0337,4.0157,4.0756,4.1324,4.1803,4.1833,4.2132,4.2791,4.297,4.306,4.306,4.324,4.3329,4.3329,4.3329,4.3329,4.3329,4.3329,4.3329,4.3359,4.3838,4.4436,4.5065,4.5574,4.6262,4.704,4.704,4.716,4.7309,4.7309,4.7309,4.7309,2.5716,2.5307,0.0,0.0,0.0,0.0,0.0,0.0,0.0,0.0,0.0,0.0,0.0,0.0,0.0,0.0,0.0,2.6855,2.7188,0.0,2.4582,0.0,0.0,2.428,0.0,0.0,0.0,2.3065,0.0,2.3065,2.3065,0.0,0.0,0.0,2.3728,2.428,2.4858,2.5963,2.6785,2.7318,2.8423,2.9202,2.9654,2.9126,2.9277,2.9804,2.9804,2.9804,2.9804,2.9804,3.0444,3.1522,3.3065,3.3804,3.4466,3.6713,3.7404,3.7554,3.8182,3.8841,3.905,3.7734,3.7404,3.7045,3.5818,3.5998,3.6447,3.6477,3.6956,3.7345,3.7375,3.7375,3.7165,0.0,3.6985,0.0,0.0,3.7015,3.7913,3.932,4.0038,4.0157,3.9529,4.0038,4.0127,3.9499,4.0068,4.0427,4.0457,4.0457,4.0756,4.1414,4.2073,4.2402,4.2402,4.303,4.3329,4.3329,4.3329,4.3329,4.3329,4.3329,4.3329,4.3329,4.3359,4.3748,4.4347,4.4377,4.5155,4.6352,4.6352,4.6741,4.7309,4.7309,4.7309,4.7309,0.0,0.0,0.0,0.0,0.0,0.0,0.0,2.6239,0.0,0.0,0.0,0.0,0.0,2.9682,2.9377,0.0,0.0,2.7678,2.7795,2.6615,0.0,0.0,0.0,2.4983,0.0,0.0,0.0,0.0,0.0,0.0,0.0,0.0,0.0,0.0,0.0,2.4305,0.0,0.0,0.0,2.7369,2.8473,2.9277,2.9779,2.9578,2.9628,2.9804,2.9804,2.9804,2.9804,2.9804,3.0846,3.2218,3.277,3.4482,3.631,3.6709,3.7734,3.8691,3.8452,3.8901,3.92,3.8302,3.7734,3.7195,3.6357,3.6327,3.6357,3.5938,3.6686,3.7285,3.6866,3.7135,3.7345,0.0,0.0,3.7195,0.0,3.6656,3.6956,3.7434,3.8033,3.8512,3.8721,3.8542,3.8332,3.8093,3.8302,3.8601,3.905,3.9499,4.0068,4.0696,4.1384,4.1923,4.2372,4.2581,4.291,4.3329,4.3329,4.3329,4.3329,4.3329,4.3329,4.3329,4.3329,4.3718,4.4317,4.4317,4.5095,4.6322,4.6322,4.6741,4.7309,4.7309,4.7309,4.7309,2.4243,0.0,0.0,0.0,0.0,0.0,0.0,0.0,0.0,0.0,2.9277,0.0,3.126,0.0,3.008,0.0,2.9252,2.8524,2.8122,2.762,0.0,2.6559,2.6289,0.0,0.0,0.0,0.0,0.0,0.0,2.4481,0.0,0.0,0.0,0.0,0.0,2.4481,2.4908,2.6214,2.7067,2.767,2.88,2.9453,2.9804,2.9804,2.9804,2.9804,2.9804,2.9804,2.9804,2.9804,3.057,3.1683,3.2379,3.4144,3.6102,3.6395,3.7704,3.896,3.8512,3.8901,3.926,3.8571,3.8063,3.7524,3.6686,3.6656,3.6686,3.6267,3.6836,3.7434,3.7524,3.7464,3.7404,0.0,0.0,3.6866,0.0,3.6148,3.6237,3.6447,3.7225,3.7823,3.8033,3.8093,3.7823,3.7135,3.7285,3.7584,3.8033,3.8452,3.911,4.0038,4.0696,4.1354,4.2013,4.2252,4.2671,4.3329,4.3329,4.3329,4.3329,4.3329,4.3329,4.3329,4.3329,4.3569,4.3988,4.4227,4.4975,4.5992,4.6232,4.6741,4.7309,4.7309,4.7309,4.7309,0.0,0.0,0.0,0.0,2.4531,0.0,0.0,0.0,2.772,0.0,2.9955,3.0859,3.1411,3.1009,3.0683,3.0683,3.0156,2.9377,2.8298,2.8674,0.0,0.0,2.7067,2.6816,2.5711,0.0,0.0,0.0,0.0,0.0,0.0,0.0,0.0,0.0,2.4582,0.0,2.4933,2.659,2.762,2.8247,2.9352,2.9804,2.9804,2.9804,2.9804,2.9804,2.9804,2.9804,2.9804,2.9804,2.9856,3.0216,3.1974,3.3107,3.4068,3.5878,3.7404,3.8422,3.8392,3.8901,3.926,3.8601,3.8422,3.8063,3.6866,3.7045,3.7434,3.7434,3.7434,3.7823,3.908,3.8272,3.7404,3.7404,3.6896,3.6267,3.5639,3.5519,3.5729,3.6357,3.7524,3.8063,3.7464,3.8542,3.8512,3.6626,3.7015,3.7345,3.7315,3.7404,3.8033,3.929,3.9978,4.0696,4.1384,4.2013,4.2671,4.3329,4.3329,4.3329,4.3329,4.3329,4.3329,4.3329,4.3329,4.3329,4.3389,4.4018,4.4676,4.5364,4.5992,4.6651,4.7249,4.7309,4.7309,4.7309,2.5179,2.5492,2.5837,0.0,2.5586,2.5737,2.6691,0.0,0.0,0.0,3.0507,3.1562,3.2541,3.2139,3.1813,3.1813,3.0934,0.0,0.0,0.0,0.0,2.8323,2.8047,2.757,2.6866,2.6992,0.0,2.5385,0.0,0.0,2.5385,0.0,0.0,0.0,0.0,2.4833,2.4933,2.659,2.7846,2.8775,2.9503,2.9804,2.9804,2.9804,2.9804,2.9804,2.9804,2.9804,2.9804,2.9804,3.0266,3.0895,3.1389,3.3311,3.5354,3.5415,3.7187,3.905,3.8542,3.8901,3.9379,3.92,3.8781,3.8302,3.7973,3.8033,3.8003,3.7494,3.7793,3.8093,3.7943,3.7644,3.7404,3.7404,3.6896,3.6417,3.6267,3.5818,3.5579,3.5729,3.6477,3.7075,3.7375,3.7315,3.7015,3.6537,3.6626,3.6507,3.6028,3.7345,3.8063,3.7943,3.905,4.0217,4.1384,4.1564,4.2192,4.3329,4.3329,4.3329,4.3329,4.3329,4.3329,4.3329,4.3329,4.3329,4.3329,4.3509,4.4257,4.5274,4.4945,4.5544,4.6621,4.713,4.7309,4.7249,2.5536,0.0,0.0,2.7143,0.0,2.7268,2.7896,2.8273,0.0,2.9679,3.0733,0.0,3.2265,3.2265,3.2215,3.2215,3.1235,0.0,3.0281,0.0,0.0,2.8925,2.8624,2.8197,2.7645,2.7645,0.0,2.5963,0.0,0.0,2.5963,0.0,0.0,0.0,0.0,2.5159,2.5259,2.6942,2.8147,2.895,2.9277,2.9578,0.0,2.9804,2.9804,2.9804,2.9804,2.9804,2.9804,2.9804,3.0139,3.062,3.1044,3.2786,3.4734,3.4735,3.662,3.8635,3.8252,3.872,3.9409,3.9409,3.914,3.8751,3.8452,3.8392,3.8272,3.7913,3.7913,3.7943,3.7853,3.7375,3.6896,3.6626,3.6297,3.6058,0.0,3.5729,3.5519,3.5519,3.5818,3.6207,3.6537,3.6537,3.6357,3.6088,3.6567,3.6596,3.5968,3.7793,3.8542,3.7853,3.914,4.0217,4.0935,4.1534,4.2192,4.291,4.318,4.3329,4.3329,4.3329,4.3329,4.3329,4.3329,4.3329,4.3329,4.3329,4.3928,4.4885,4.5095,4.5843,4.677,4.686,4.707,4.7249,2.6465,0.0,0.0,0.0,0.0,2.9101,2.9227,2.9252,2.9428,2.993,3.0934,3.1612,3.1612,3.2039,3.229,3.2215,3.1286,3.0482,2.993,2.9829,2.9578,2.9076,2.9051,2.8775,2.8222,2.8147,2.7595,0.0,0.0,0.0,2.6339,0.0,0.0,0.0,2.536,2.5636,2.5812,2.7494,2.8448,2.8825,2.8976,2.9352,2.9804,2.9804,2.9804,2.9804,2.9804,2.9804,2.9804,2.9804,2.9804,2.9934,3.0771,3.1909,3.3169,3.3963,3.5911,3.7843,3.7843,3.8546,3.9409,3.9409,3.9409,3.926,3.8661,3.8452,3.8422,3.8512,3.7943,3.7614,3.8272,3.7345,3.6267,3.5609,3.5519,3.5519,3.5519,0.0,0.0,0.0,3.5519,0.0,3.5519,3.6028,3.6118,3.5549,3.6626,3.7015,3.6387,3.8123,3.8871,3.8272,3.9469,4.0247,4.0516,4.1564,4.2222,4.2491,4.297,4.324,4.3329,4.3329,4.3329,4.3329,4.3329,4.3329,4.3329,4.3329,4.3718,4.4436,4.5693,4.6591,4.71,4.6531,4.6741,4.7279,2.7118,0.0,0.0,0.0,0.0,2.993,3.0834,3.0959,3.0984,3.111,3.2089,3.2792,3.2792,3.2867,3.2742,3.2265,3.1612,0.0,0.0,0.0,0.0,2.9654,2.9628,2.9377,2.88,2.8348,2.7795,0.0,0.0,0.0,2.5737,2.5636,2.531,2.4833,2.536,2.5862,2.6414,2.8072,2.8574,2.8323,2.9277,2.9704,2.9804,2.9804,2.9804,2.9804,2.9804,2.9804,2.9804,2.9804,2.9804,2.9856,3.0011,3.1423,3.3013,3.3169,3.5377,3.7843,3.7843,3.8546,3.9409,3.9409,3.9409,3.9379,3.926,3.8811,3.8542,3.911,3.8272,3.7614,3.8272,3.7345,3.6267,3.5609,3.5519,3.5519,3.5519,3.5519,0.0,0.0,3.5519,3.5519,3.5519,3.5609,3.5639,3.5519,3.6207,3.6357,3.5699,3.7015,3.7704,3.7584,3.8332,3.9529,4.1205,4.0905,4.1564,4.315,4.2731,4.2821,4.3329,4.3329,4.3329,4.3329,4.3329,4.3329,4.3329,4.3329,4.3718,4.4377,4.5185,4.5903,4.6471,4.6352,4.6741,4.716,0.0,0.0,0.0,0.0,2.9679,3.0482,3.126,3.1888,3.2064,3.1461,3.1863,3.219,3.219,3.2466,3.2516,3.224,3.1461,3.0884,3.0633,3.0105,2.9804,2.9804,2.9804,2.9528,2.8925,2.8373,2.7971,2.772,2.6866,2.6382,2.6038,2.6038,2.5611,2.4858,2.5686,2.6364,2.6942,2.8047,2.8524,2.8574,2.9126,2.9528,2.9804,2.9804,2.9804,2.9804,2.9804,2.9804,2.9804,2.9804,2.9804,2.9804,2.9804,3.0724,3.1808,3.2092,3.3833,3.5848,3.634,3.7509,3.8605,3.8817,3.914,3.9409,3.9409,3.917,3.8901,3.8901,3.8362,3.7823,3.7464,3.6626,3.5878,3.5549,3.5519,3.5519,3.5519,3.5519,3.5519,0.0,0.0,0.0,3.5519,3.5519,3.5519,3.5519,3.6716,3.6896,3.5579,3.7375,3.8123,3.7434,3.8392,3.9379,4.0337,4.1055,4.1713,4.2312,4.2701,4.303,4.3329,4.3329,4.3329,4.3329,4.3329,4.3329,4.3329,4.3329,4.3718,4.4377,4.5035,4.5723,4.6322,4.6322,4.6741,4.7219,0.0,2.8674,0.0,0.0,3.0331,3.0959,3.1486,3.2416,3.2767,3.1863,3.1738,3.1687,3.1587,3.1964,3.2114,3.1888,3.111,3.0557,3.0457,3.003,2.9804,2.9804,2.9804,2.9578,2.9126,2.8448,2.8097,2.8097,2.7118,2.6584,2.6289,2.6584,2.6113,2.5209,2.6314,2.6992,2.7318,2.7996,2.8524,2.8925,2.9076,2.9377,2.9804,2.9804,2.9804,2.9804,2.9804,2.9804,2.9856,2.9985,2.9934,2.9856,3.0292,3.0598,3.108,3.1829,3.3146,3.46,3.5405,3.6788,3.7944,3.8121,3.8601,3.902,3.917,3.908,3.8871,3.8482,3.8392,3.8003,3.6716,3.6178,3.5818,3.5549,3.5519,3.5519,3.5519,3.5519,3.5519,0.0,0.0,0.0,3.5519,3.5519,3.5519,3.5519,3.6926,3.7105,3.5579,3.7584,3.8362,3.7434,3.8571,3.9349,3.9619,4.1025,4.1683,4.1594,4.2342,4.294,4.3329,4.318,4.321,4.3329,4.3329,4.3329,4.3329,4.3329,4.3718,4.4377,4.4885,4.5603,4.6322,4.6322,4.6741,4.7309,0.0,0.0,2.9654,2.9779,3.0633,3.1512,3.2039,3.2667,3.3043,3.2943,3.2918,3.2717,3.219,3.219,3.1813,3.0859,3.0683,3.0407,2.9905,2.9829,2.9804,2.9804,2.9804,2.9754,2.9704,2.8649,2.8097,2.8097,2.7494,2.6691,2.5711,2.6716,2.6892,2.6433,2.7469,2.7695,2.7344,2.8398,2.8875,2.8976,2.9503,2.9754,2.9804,2.9804,2.9804,2.9804,2.9804,2.9804,2.9934,3.0771,3.0495,3.0062,3.1829,3.2159,3.2143,3.3696,3.5283,3.6539,3.6613,3.7506,3.8191,3.7674,3.7554,3.7764,3.8362,3.8033,3.7734,3.8272,3.8392,3.8003,3.6716,3.6896,3.6836,3.5699,3.5519,3.5519,3.5519,3.5519,3.5519,3.5519,0.0,0.0,3.5519,3.5519,3.5519,3.5519,3.5669,3.5699,3.5519,3.6297,3.6956,3.7404,3.8123,3.908,4.0307,3.9888,4.0546,4.2252,4.1175,4.1594,4.3299,4.2731,4.2761,4.3329,4.3329,4.3329,4.3329,4.3329,4.3718,4.4317,4.4377,4.5185,4.6322,4.6322,4.6741,4.7309,2.993,3.0131,3.0482,3.1135,3.1336,3.1687,3.2591,3.2918,3.2943,3.2591,3.2566,3.2466,3.224,3.1637,3.1085,3.0658,3.0306,3.003,2.9804,2.9804,2.9804,2.9804,2.9804,2.9804,2.9804,2.9001,2.8775,2.9126,2.8222,2.7544,2.7092,2.7218,2.7168,2.6967,2.7419,2.767,2.7821,2.8599,2.8925,2.8976,2.9553,2.9804,2.9804,2.9804,2.9804,2.9804,2.9804,2.9804,2.9934,3.0895,3.0545,3.0139,3.2046,3.2109,3.1841,3.3375,3.4502,3.5367,3.5611,3.6505,3.7386,3.6969,3.7135,3.7494,3.7734,3.7913,3.7853,3.7345,3.6926,3.6507,3.5998,3.6118,3.6088,3.5579,3.5519,3.5519,3.5519,3.5519,3.5519,3.5519,0.0,3.5519,3.5519,3.5519,3.5669,3.6058,3.6088,3.6088,3.6088,3.6327,3.6956,3.7973,3.7883,3.8452,3.9798,3.9948,4.0606,4.1773,4.1624,4.2192,4.3329,4.306,4.309,4.3329,4.3329,4.3329,4.3329,4.3329,4.3479,4.3778,4.4167,4.4646,4.5155,4.5574,4.6142,4.6711,3.0583,3.0733,3.1135,3.2064,3.2039,3.2164,3.2968,3.3068,3.2867,3.229,3.2064,3.1913,3.1763,3.106,3.0557,3.0382,3.0005,2.9804,2.9804,2.9804,2.9804,2.9804,2.9804,2.9804,2.9804,2.9227,2.9277,2.9986,2.917,2.8686,2.8507,2.8015,2.7595,2.7293,2.762,2.7896,2.8147,2.8699,2.9026,2.9227,2.9628,2.9804,2.9804,2.9804,2.9804,2.9804,2.9804,2.9804,2.9934,3.0895,3.0545,3.0139,3.2335,3.2522,3.23,3.3844,3.4751,3.5337,3.5334,3.6154,3.6863,3.6373,3.6537,3.6896,3.7105,3.7494,3.7584,3.6686,3.6118,3.5729,3.5549,3.5669,3.5729,3.5549,3.5519,3.5519,3.5519,3.5519,3.5519,3.5519,3.5519,3.5519,3.5519,3.5519,3.5699,3.6178,3.6207,3.6267,3.6477,3.6477,3.6985,3.8063,3.7853,3.8332,3.9679,4.0157,4.0816,4.1683,4.1953,4.2521,4.3329,4.3329,4.3329,4.3329,4.3329,4.3329,4.3329,4.3329,4.3329,4.3389,4.4047,4.4317,4.4436,4.5274,4.5903,4.6352,3.0507,3.1035,3.1562,3.2114,3.2692,3.3068,3.3068,3.3068,3.2867,3.229,3.1738,3.121,3.0683,3.0633,3.0407,2.9854,2.9804,2.9804,2.9804,2.9804,2.9804,2.9804,2.9804,2.9804,2.9804,2.9227,2.9349,3.0375,3.0349,3.0058,2.9451,2.9068,2.8323,2.7344,2.8423,2.8599,2.8147,2.8699,2.9252,2.9779,2.9804,2.9804,2.9804,2.9804,2.9804,2.9804,2.9804,2.9804,2.9934,3.0895,3.0545,3.0292,3.3115,3.3945,3.4293,3.5971,3.6926,3.7187,3.6656,3.6956,3.7105,3.5848,3.5519,3.5699,3.6357,3.6507,3.6507,3.6477,3.6477,3.6267,3.5639,3.6028,3.6267,3.5609,3.5519,3.5519,3.5519,3.5519,3.5519,3.5519,3.5519,3.5519,3.5519,3.5519,3.5519,3.5519,3.5519,3.5789,3.6447,3.6477,3.6776,3.7404,3.8033,3.902,4.0367,4.0397,4.1055,4.2419,4.1683,4.2073,4.3329,4.3329,4.3329,4.3329,4.3329,4.3329,4.3329,4.3329,4.3329,4.3389,4.4047,4.4317,4.4466,4.5813,4.6322,4.6411,3.111,3.1888,3.2591,3.2767,3.2943,3.3068,3.3068,3.2742,3.229,3.1738,3.1185,3.0658,3.0105,3.0055,2.998,2.9804,2.9804,2.9804,2.9804,2.9804,2.9804,2.9804,3.0419,3.0771,3.0771,3.1203,3.1604,3.1918,3.1269,3.0346,2.9094,2.8975,2.875,2.8423,2.8775,2.9051,2.9277,2.9453,2.9628,2.9804,2.9804,2.9804,2.9804,2.9804,2.9804,2.9804,2.9804,2.9804,2.9856,3.0139,3.0921,3.1901,3.2735,3.3017,3.3422,3.5237,3.6267,3.6626,3.5998,3.6297,3.6567,3.5729,3.5519,3.5549,3.5759,3.5818,3.5938,3.6387,3.6118,3.5759,3.5549,3.6058,3.6267,3.5609,3.5878,3.6028,3.5579,3.5519,3.5519,3.5519,3.5519,3.5519,3.5519,3.5519,3.5699,3.6148,3.6178,3.6267,3.6477,3.6477,3.6985,3.8033,3.8721,3.9499,4.0397,4.0846,4.1504,4.2372,4.2162,4.2491,4.3329,4.3329,4.3329,4.3329,4.3329,4.3329,4.3329,4.3329,4.3329,4.3389,4.4047,4.4317,4.4436,4.5304,4.5633,4.5723,3.1311,3.1964,3.2591,3.2993,3.3068,3.2993,3.2792,3.2441,3.1938,3.121,3.0809,3.0407,2.9854,2.9804,2.9804,2.9804,2.9804,2.9804,2.9804,2.9804,2.9934,3.0266,3.0895,3.1389,3.1756,3.2307,3.2624,3.2779,3.1837,3.0771,2.973,2.9378,2.9126,2.8925,2.8925,2.9026,2.9176,2.9377,2.9478,2.9478,2.9704,2.9804,2.9804,2.9804,2.9804,2.9804,2.9804,2.9804,2.9804,2.9804,3.0846,3.2164,3.2451,3.2806,3.3463,3.5067,3.5968,3.6327,3.5699,3.5998,3.6387,3.5968,3.5699,3.5519,3.5519,3.5699,3.5908,3.6088,3.5998,3.5878,3.5878,3.6207,3.6417,3.6237,3.6357,3.6327,3.5938,3.5669,3.5519,3.5519,3.5519,3.5519,3.5519,3.5729,3.5938,3.6118,3.6567,3.6716,3.6507,3.6716,3.7315,3.8362,3.905,3.9978,4.1115,4.1534,4.2303,4.332,4.332,4.3301,4.3329,4.3329,4.3329,4.3329,4.3329,4.3329,4.3359,4.3599,4.3718,4.3808,4.4706,4.4766,4.4436,4.5334,4.5364,4.5035,3.1185,3.1461,3.1838,3.2893,3.3043,3.2842,3.229,3.2139,3.1738,3.0758,3.0583,3.0357,2.9854,2.9804,2.9804,2.9804,2.9804,2.9804,2.9804,2.9804,3.0216,3.1044,3.1241,3.1683,3.2593,3.2664,3.2765,3.2978,3.2013,3.1378,3.1119,3.0216,2.9503,2.8976,2.8976,2.8674,2.8197,2.8725,2.8925,2.8976,2.9528,2.9754,2.9804,2.9804,2.9804,2.9804,2.9804,2.9804,2.9804,2.9804,3.0495,3.1462,3.2307,3.3325,3.4312,3.5228,3.5938,3.6297,3.5669,3.5938,3.6417,3.6477,3.6028,3.5579,3.5519,3.5998,3.6297,3.5699,3.6088,3.6537,3.6537,3.6596,3.6776,3.7315,3.6926,3.6537,3.6507,3.5908,3.5519,3.5519,3.5549,3.5579,3.5579,3.6118,3.6237,3.5699,3.6746,3.7165,3.6567,3.7225,3.7883,3.8452,3.923,4.0516,4.2342,4.2479,4.332,4.4812,4.4737,4.4236,4.3329,4.3329,4.3329,4.3329,4.3329,4.3329,4.3389,4.3988,4.4287,4.4436,4.5753,4.5484,4.4556,4.5843,4.5484,4.4407,3.1336,3.2089,3.2767,3.3018,3.2717,3.2365,3.224,3.1512,3.0909,3.0658,3.0256,2.993,2.9804,2.9804,2.9804,2.9804,2.9804,2.9804,2.9804,2.9804,2.9934,3.0139,3.1462,3.2379,3.2593,3.3325,3.3031,3.1613,3.0967,3.0519,3.0139,2.9934,2.9729,2.9578,2.9578,2.9277,2.875,2.8875,2.8925,2.8925,2.9076,2.9402,2.9804,2.9804,2.9804,2.9804,2.9804,2.9804,2.9804,2.9804,3.0921,3.2307,3.2522,3.3768,3.5198,3.5424,3.5609,3.5699,3.5549,3.5609,3.5848,3.6357,3.6357,3.6118,3.5609,3.5998,3.6447,3.6297,3.6746,3.7195,3.7195,3.7614,3.7823,3.7464,3.7285,3.7015,3.6537,3.5908,3.5519,3.5519,3.5938,3.6237,3.6237,3.6387,3.6626,3.6926,3.7255,3.7345,3.7195,3.8781,3.9529,3.92,4.0786,4.1893,4.2372,4.3594,4.4432,4.4812,4.4004,4.3566,4.3329,4.3329,4.3329,4.3329,4.3329,4.3329,4.3329,4.3509,4.3868,4.4407,4.5214,4.5334,4.5155,4.6022,4.5484,4.4407,3.1286,3.1888,3.239,3.2641,3.2416,3.2039,3.1562,3.0984,3.0532,3.0281,2.998,2.9804,2.9804,2.9804,2.9804,2.9804,2.9804,2.9804,2.9804,2.9804,3.0011,3.0419,3.1389,3.2164,3.2593,3.3087,3.2423,3.0416,2.9799,2.9353,2.9028,2.9028,2.9287,2.9779,2.9252,2.8976,2.89,2.8398,2.8473,2.8925,2.8925,2.9277,2.9804,2.9804,2.9804,2.9804,2.9804,2.9804,2.9804,2.9804,3.1071,3.2593,3.2593,3.3905,3.5519,3.5519,3.5519,3.5519,3.5519,3.5519,3.5579,3.5938,3.6477,3.6746,3.6088,3.6447,3.6896,3.6896,3.7404,3.7853,3.7853,3.8153,3.8272,3.7913,3.7614,3.7195,3.6567,3.5908,3.5609,3.5908,3.6267,3.6596,3.6866,3.7195,3.7375,3.7404,3.7973,3.8332,3.8332,3.9918,4.0546,3.9888,4.1504,4.2491,4.2791,4.4098,4.4586,4.4159,4.4004,4.3771,4.3329,4.3329,4.3329,4.3329,4.3329,4.3329,4.3359,4.3658,4.4167,4.4796,4.5155,4.5304,4.5304,4.5364,4.4766,4.3928,3.1085,3.1336,3.1537,3.2014,3.2014,3.1662,3.0758,3.0532,3.0331,2.9854,2.9804,2.9804,2.9804,2.9804,2.9804,2.9804,2.9804,2.9804,2.9804,2.9804,3.0139,3.097,3.104,3.1476,3.2269,3.216,3.1169,2.9197,2.8572,2.8135,2.7844,2.8004,2.8609,2.9496,2.8625,2.8448,2.8725,2.772,2.7821,2.8674,2.8674,2.9076,2.9654,2.9654,2.9704,2.9804,2.9804,2.9804,2.9804,2.9804,3.0921,3.2379,3.2522,3.3837,3.5294,3.5424,3.5519,3.5519,3.5519,3.5579,3.5639,3.5519,3.6387,3.7135,3.6596,3.6956,3.7434,3.7524,3.8093,3.8542,3.8542,3.8542,3.8542,3.8542,3.7913,3.7225,3.6686,3.6058,3.5848,3.6417,3.6656,3.6985,3.7494,3.8153,3.8362,3.7883,3.8931,3.9619,3.9709,4.0876,4.1265,4.0726,4.1863,4.2839,4.3566,4.4205,4.4205,4.3566,4.4236,4.4159,4.3329,4.3329,4.3329,4.3329,4.3329,4.3329,4.3389,4.3928,4.4556,4.5155,4.5155,4.5155,4.5065,4.4526,4.3898,4.3329,3.0708,3.1085,3.1411,3.1512,3.116,3.0809,3.0633,3.0231,2.988,2.9804,2.9804,2.9804,2.9804,2.9804,2.9804,2.9804,2.9804,2.9804,2.9804,2.9804,2.9856,3.0011,3.0329,3.0553,3.077,3.0264,2.9207,2.7651,2.7555,2.7246,2.6812,2.7683,2.8164,2.8402,2.8672,2.8599,2.8197,2.7544,2.7394,2.7544,2.7544,2.8147,2.9076,2.9076,2.9377,2.9804,2.9804,2.9804,2.9804,2.9804,3.0495,3.1536,3.2307,3.3325,3.4409,3.5264,3.5519,3.5519,3.5519,3.5908,3.6207,3.5639,3.6058,3.6596,3.6507,3.6956,3.7554,3.8123,3.8781,3.926,3.926,3.926,3.926,3.926,3.8212,3.7375,3.7285,3.6716,3.6357,3.6477,3.7434,3.8123,3.8242,3.8841,3.9439,3.9888,4.0127,4.0487,4.1055,4.1803,4.2162,4.2043,4.2791,4.3603,4.4586,4.3849,4.3849,4.4586,4.3849,4.3488,4.3329,4.3329,4.3329,4.3329,4.3329,4.3329,4.3329,4.3449,4.3868,4.4466,4.4466,4.4466,4.4436,4.4347,4.3898,4.3329,3.0557,3.0809,3.0984,3.0984,3.0758,3.0507,3.0206,2.9955,2.9804,2.9804,2.9804,2.9804,2.9804,2.9804,2.9804,2.9804,2.9804,2.9804,2.9804,2.9804,2.9804,2.9804,2.968,2.9571,2.9571,2.9314,2.8425,2.6852,2.6852,2.6346,2.5261,2.6594,2.7219,2.7305,2.8126,2.8348,2.8047,2.7193,2.7193,2.7695,2.7394,2.777,2.8524,2.8825,2.9101,2.9377,2.9679,2.9804,2.9804,2.9804,3.0771,3.2019,3.2451,3.3602,3.4905,3.5359,3.5519,3.5519,3.5519,3.5998,3.6417,3.6118,3.6507,3.7075,3.7434,3.7734,3.8123,3.8811,3.92,3.9409,3.9409,3.9409,3.929,3.8931,3.8033,3.7404,3.7404,3.6866,3.6746,3.7434,3.8362,3.908,3.9439,4.0068,4.0606,4.0905,4.0935,4.1205,4.1863,4.2192,4.2521,4.288,4.318,4.3566,4.4004,4.3566,4.3566,4.4004,4.3566,4.3329,4.3329,4.3329,4.3329,4.3329,4.3329,4.3329,4.3329,4.3329,4.3718,4.4287,4.3928,4.4018,4.4257,4.3928,4.3599,4.3329,3.0331,3.0432,3.0432,3.0432,3.0432,3.0281,2.9854,2.9804,2.9804,2.9804,2.9804,2.9804,2.9804,2.9804,2.9804,2.9804,2.9804,2.9804,2.9804,2.9654,2.9603,2.9603,2.8925,2.8473,2.8348,2.8599,2.7835,2.6125,2.6371,2.5622,2.395,2.5513,2.628,2.6376,2.7484,2.7921,2.7846,2.6866,2.6942,2.7695,2.7268,2.7494,2.8147,2.8574,2.89,2.9176,2.9628,2.9804,2.9804,2.9804,3.0921,3.2307,3.2522,3.3768,3.5198,3.5424,3.5519,3.5519,3.5519,3.5878,3.6297,3.6447,3.6836,3.7404,3.8212,3.8392,3.8571,3.929,3.9529,3.9589,3.9439,3.9559,3.9409,3.8751,3.8063,3.7704,3.7853,3.7464,3.7584,3.8721,3.9469,4.0068,4.0576,4.1235,4.1624,4.1624,4.1743,4.2043,4.2551,4.2581,4.2821,4.3329,4.3329,4.3329,4.3329,4.3329,4.3329,4.3329,4.3329,4.3329,4.3329,4.3329,4.3329,4.3329,4.3329,4.3329,4.3329,4.3329,4.3629,4.4047,4.3539,4.3629,4.4018,4.3509,4.3329,4.3329,2.9854,2.9854,2.9854,2.9854,2.9854,2.9854,2.9804,2.9804,2.9804,2.9804,2.9804,2.9804,2.9804,2.9804,2.9804,2.9804,2.9804,2.9804,2.9804,2.9302,2.9001,2.9001,2.7971,2.7168,2.671,2.7645,2.7085,2.4937,2.5931,2.5378,2.326,2.4906,2.5641,2.5689,2.687,2.7344,2.7293,2.6716,2.6584,2.6634,2.6609,2.7168,2.8122,2.8147,2.8825,2.9729,2.9779,2.9804,2.9804,2.9804,3.0495,3.1462,3.2307,3.3325,3.4312,3.5228,3.5519,3.5519,3.5519,3.5549,3.5729,3.6327,3.6507,3.6866,3.8093,3.8392,3.8571,3.929,3.9918,4.0157,3.9529,3.9918,4.0098,3.9439,3.8751,3.8542,3.92,3.923,3.9469,4.0157,4.0816,4.1265,4.1294,4.1893,4.2359,4.2359,4.2851,4.321,4.3269,4.3269,4.3269,4.3329,4.3329,4.3329,4.3329,4.3329,4.3329,4.3329,4.3329,4.3329,4.3329,4.3329,4.3329,4.3329,4.3329,4.3329,4.3329,4.3329,4.3359,4.3389,4.3359,4.3359,4.3389,4.3359,4.3329,4.3329,2.9804,2.9804,2.9804,2.9804,2.9804,2.9804,2.9804,2.9804,2.9804,2.9804,2.9804,2.9804,2.9804,2.9804,2.9804,2.9804,2.9804,2.9804,2.9804,2.9252,2.8624,2.7946,2.7494,2.7344,2.7469,2.7544,2.6918,2.5452,2.552,2.4288,2.1953,2.4196,2.4859,2.443,2.6408,2.7092,2.6766,2.6609,2.6666,2.6967,2.6967,2.7419,2.8147,2.8473,2.8875,2.9302,2.9654,2.9804,2.9804,2.9804,3.0846,3.2092,3.2451,3.3671,3.5001,3.5359,3.5519,3.5519,3.5519,3.5789,3.6267,3.6896,3.7375,3.7913,3.8811,3.902,3.911,3.9379,3.9948,4.0337,4.0068,4.0576,4.0935,4.0666,4.0068,3.9858,4.0546,4.0277,4.0277,4.0935,4.1594,4.1983,4.1983,4.2581,4.297,4.297,4.318,4.3329,4.3329,4.3329,4.3329,4.3329,4.3329,4.3329,4.3329,4.3329,4.3329,4.3329,4.3329,4.3329,4.3329,4.3329,4.3329,4.3329,4.3329,4.3329,4.3329,4.3329,4.3329,4.3329,4.3329,4.3329,4.3329,4.3329,4.3329,4.3329,2.9804,2.9804,2.9804,2.9804,2.9804,2.9804,2.9804,2.9804,2.9804,2.9804,2.9804,2.9804,2.9804,2.9628,2.9603,2.9779,2.9478,2.9402,2.9779,2.9252,2.8423,2.7344,2.7118,2.7293,2.7846,2.7645,2.6918,2.5577,2.5318,2.396,2.1445,2.3366,2.4094,2.3824,2.5733,2.6511,2.6533,2.6533,2.6691,2.7042,2.7218,2.762,2.8147,2.8524,2.8775,2.8976,2.9377,2.9732,2.9986,2.9806,3.1267,3.2947,3.2664,3.3905,3.5519,3.5519,3.5519,3.5519,3.5519,3.6118,3.6866,3.7315,3.7764,3.8332,3.92,3.9409,3.9409,3.9409,4.0098,4.0636,4.0427,4.1115,4.1624,4.1414,4.0995,4.0935,4.1594,4.1294,4.1265,4.1923,4.2402,4.2671,4.2671,4.306,4.3329,4.3329,4.3329,4.3329,4.3329,4.3329,4.3329,4.3329,4.3329,4.3329,4.3329,4.3329,4.3329,4.3329,4.3329,4.3329,4.3329,4.3329,4.3329,4.3329,4.3329,4.3329,4.3329,4.3329,4.3329,4.3329,4.3329,4.3329,4.3329,4.3329,4.3329,4.3329,2.9804,2.9804,2.9804,2.9804,2.9804,2.9804,2.9804,2.9804,2.9804,2.9804,2.9804,2.9804,2.9779,2.9277,2.9176,2.9729,2.8775,2.8599,2.9704,2.9252,2.8423,2.7344,2.6766,2.6785,2.7268,2.7821,2.7087,2.5004,2.5554,2.4433,2.1958,2.2408,2.3272,2.4243,2.4798,2.5581,2.6533,2.6533,2.6533,2.6584,2.7067,2.762,2.8097,2.8097,2.8448,2.8925,2.8925,2.9571,3.0309,2.9961,3.1709,3.3808,3.2876,3.3973,3.5519,3.5519,3.5519,3.5519,3.5519,3.6417,3.7404,3.7404,3.7434,3.7764,3.911,3.9409,3.9409,3.9409,4.0457,4.1175,4.0516,4.1474,4.2162,4.1504,4.1384,4.1624,4.2282,4.2372,4.2611,4.3269,4.3329,4.3329,4.3329,4.3329,4.3329,4.3329,4.3329,4.3329,4.3329,4.3329,4.3329,4.3329,4.3329,4.3329,4.3329,4.3329,4.3329,4.3329,4.3329,4.3329,4.3329,4.3329,4.3329,4.3329,4.3329,4.3329,4.3329,4.3329,4.3329,4.3329,4.3329,4.3329,4.3329,4.3329,4.3329,4.3329,2.9804,2.9804,2.9804,2.9804,2.9804,2.9804,2.9804,2.9804,2.9804,2.9804,2.9804,2.9628,2.9227,2.9402,2.9428,2.9202,2.9252,2.9252,2.9176,2.9026,2.8599,2.7896,2.7344,2.7293,2.7846,2.7268,2.6721,2.6136,2.4824,2.3776,2.302,2.247,2.295,2.4243,2.4798,2.5581,2.6533,2.6533,2.676,2.7042,2.7218,2.762,2.8097,2.8097,2.8197,2.8472,2.9563,3.0157,3.0527,3.1422,3.2763,3.4081,3.4476,3.5067,3.5519,3.5519,3.5519,3.5519,3.5519,3.5789,3.6297,3.7195,3.8123,3.8931,3.932,3.9409,3.9409,3.9409,4.0457,4.1324,4.1115,4.2162,4.297,4.2791,4.2761,4.2821,4.3,4.303,4.312,4.3299,4.3329,4.3329,4.3329,4.3329,4.3329,4.3329,4.3329,4.3329,4.3329,4.3329,4.3329,4.3329,4.3329,4.3329,4.3329,4.3329,4.3329,4.3329,4.3329,4.3329,4.3329,4.3329,4.3329,4.3329,4.3329,4.3329,4.3329,4.3329,4.3329,4.3329,4.3329,4.3329,4.3329,4.3329,4.3329,4.3329,2.9804,2.9804,2.9804,2.9804,2.9804,2.9804,2.9804,2.9804,2.9804,2.9804,2.9804,2.9578,2.9001,2.9252,2.9302,2.895,2.9453,2.9553,2.8976,2.8925,2.8775,2.8448,2.7695,2.7544,2.8097,2.7243,2.6643,2.628,2.4608,2.3492,2.2856,2.1927,2.2109,2.3351,2.41,2.4992,2.5955,2.6302,2.671,2.6967,2.7193,2.7469,2.777,2.777,2.777,2.7965,2.9177,3.0077,3.0767,3.183,3.296,3.4177,3.5198,3.5519,3.5519,3.5519,3.5519,3.5519,3.5519,3.5699,3.6148,3.7165,3.8033,3.8781,3.929,3.9409,3.9409,3.9409,4.0247,4.0995,4.0995,4.2073,4.294,4.294,4.315,4.3329,4.3329,4.3329,4.3329,4.3329,4.3329,4.3329,4.3329,4.3329,4.3329,4.3329,4.3329,4.3329,4.3329,4.3329,4.3329,4.3329,4.3329,4.3329,4.3329,4.3329,4.3329,4.3329,4.3329,4.3329,4.3329,4.3329,4.3329,4.3329,4.3329,4.3329,4.3329,4.3329,4.3329,4.3329,4.3329,4.3329,4.3329,4.3329,4.3329,4.3329,2.9804,2.9804,2.9804,2.9804,2.9804,2.9804,2.9804,2.9754,2.9729,2.9779,2.9704,2.9453,2.8976,2.8925,2.89,2.885,2.9377,2.9503,2.8976,2.8925,2.8925,2.8925,2.7871,2.7519,2.8021,2.7494,2.6766,2.5973,2.4797,2.3545,2.2218,2.1128,2.1108,2.2101,2.3084,2.4036,2.5087,2.6094,2.6533,2.6559,2.6992,2.7218,2.7218,2.7334,2.7334,2.7475,2.8418,2.9686,3.1093,3.1694,3.2829,3.4225,3.5198,3.5519,3.5519,3.5519,3.5519,3.5519,3.5519,3.5938,3.6537,3.7165,3.7375,3.7764,3.911,3.9409,3.9409,3.9409,3.9948,4.0397,4.0397,4.1444,4.2282,4.2282,4.2821,4.324,4.324,4.3299,4.3329,4.3329,4.3329,4.3299,4.324,4.324,4.3269,4.3329,4.3329,4.3329,4.3329,4.3329,4.3329,4.3329,4.3329,4.3329,4.3329,4.3329,4.3329,4.3329,4.3329,4.3329,4.3329,4.3329,4.3329,4.3329,4.3329,4.3329,4.3329,4.3329,4.3329,4.3329,4.3329,4.3329,4.3329,4.3329,4.3329,4.3329,2.9804,2.9804,2.9804,2.9804,2.9804,2.9804,2.9804,2.9402,2.9277,2.9729,2.9026,2.8599,2.89,2.8925,2.875,2.8323,2.88,2.9076,2.8925,2.8925,2.8925,2.8925,2.7871,2.7344,2.7444,2.6917,2.6771,2.6984,2.4769,2.3944,2.426,2.1798,2.1268,2.2562,2.3238,2.4036,2.5087,2.6094,2.6533,2.6533,2.6659,2.664,2.6779,2.7343,2.7613,2.784,2.9887,3.0842,3.1409,3.3235,3.4085,3.4515,3.5275,3.5519,3.5519,3.5519,3.5519,3.5519,3.5519,3.5609,3.5878,3.6537,3.7045,3.7764,3.911,3.9409,3.9409,3.9409,3.9948,4.0397,4.0397,4.1055,4.1594,4.1594,4.2162,4.2581,4.2581,4.3,4.3329,4.3329,4.3329,4.312,4.2611,4.2581,4.2791,4.3299,4.3329,4.3329,4.3329,4.3329,4.3329,4.3329,4.3329,4.3329,4.3329,4.3329,4.3329,4.3329,4.3329,4.3329,4.3329,4.3329,4.3329,4.3329,4.3329,4.3329,4.3329,4.3329,4.3329,4.3329,4.3329,4.3329,4.3329,4.3329,4.3329,4.3329,2.9804,2.9804,2.9804,2.9804,2.9804,2.9704,2.9428,2.9126,2.895,2.8976,2.8473,2.8122,2.8147,2.8373,2.8423,2.8122,2.8373,2.8524,2.8524,2.8298,2.8147,2.8147,2.7067,2.649,2.649,2.5963,2.6063,2.6892,2.5135,2.4237,2.4212,2.2192,2.165,2.2394,2.3194,2.4036,2.5087,2.6094,2.6533,2.6533,2.6533,2.6714,2.7095,2.7537,2.7999,2.8546,3.0154,3.1238,3.2102,3.3898,3.4472,3.4592,3.528,3.5519,3.5519,3.5519,3.5519,3.5519,3.5519,3.5519,3.5669,3.6327,3.6716,3.7315,3.8631,3.917,3.9409,3.9409,3.9679,3.9918,3.9918,4.0457,4.1025,4.1324,4.1923,4.2462,4.2791,4.312,4.321,4.291,4.288,4.2731,4.2402,4.2372,4.2641,4.3269,4.3329,4.3329,4.3329,4.3329,4.3329,4.3329,4.3329,4.3329,4.3329,4.3329,4.3329,4.3329,4.3329,4.3329,4.3329,4.3329,4.3329,4.3329,4.3329,4.3329,4.3329,4.3329,4.3329,4.3329,4.3329,4.3329,4.3329,4.3329,4.3329,4.3329,2.9804,2.9804,2.9804,2.9804,2.9804,2.9705,2.9353,2.9201,2.9073,2.8912,2.8707,2.8451,2.8068,2.813,2.8164,2.8164,2.8019,2.7971,2.7971,2.7544,2.7243,2.7143,2.6138,2.5561,2.546,2.5034,2.5259,2.6189,2.5341,2.4424,2.3609,2.2669,2.2264,2.2317,2.3305,2.4181,2.5087,2.6094,2.6533,2.6533,2.6533,2.696,2.7736,2.7868,2.8427,2.9317,3.0208,3.1367,3.2706,3.3903,3.4382,3.4592,3.528,3.5519,3.5519,3.5519,3.5519,3.5519,3.5519,3.5519,3.5669,3.6327,3.6567,3.6956,3.8123,3.8841,3.929,3.9409,3.9409,3.9469,3.9559,3.9948,4.0487,4.1265,4.1833,4.2432,4.306,4.3269,4.309,4.2432,4.2252,4.2222,4.2419,4.2372,4.2641,4.3269,4.3329,4.3329,4.3329,4.3329,4.3329,4.3329,4.3329,4.3329,4.3329,4.3329,4.3329,4.3329,4.3329,4.3329,4.3329,4.3329,4.3329,4.3329,4.3329,4.3329,4.3329,4.3329,4.3329,4.3329,4.3329,4.3329,4.3329,4.3329,4.3329,4.3329,2.9804,2.9804,2.9804,2.9804,2.9804,3.0037,3.079,3.0519,3.0626,3.182,3.1158,3.0692,3.0992,2.9518,2.8481,2.8481,2.7838,2.7394,2.7394,2.7318,2.7067,2.6659,2.5937,2.5385,2.4933,2.4858,2.4883,2.5034,2.4546,2.4257,2.4049,2.3541,2.3305,2.3379,2.4348,2.485,2.5087,2.6094,2.6533,2.6533,2.6533,2.696,2.7802,2.8556,2.938,3.0208,3.1043,3.1841,3.2617,3.3365,3.3993,3.4592,3.528,3.5519,3.5519,3.5519,3.5519,3.5519,3.5519,3.5519,3.5669,3.6327,3.6896,3.7494,3.8212,3.8452,3.8691,3.929,3.9409,3.9589,4.0157,3.9888,3.9948,4.1175,4.1444,4.1743,4.2402,4.297,4.309,4.2432,4.1863,4.1743,4.2312,4.2372,4.2641,4.3269,4.3329,4.3329,4.3329,4.3329,4.3329,4.3329,4.3329,4.3329,4.3329,4.3329,4.3329,4.3329,4.3329,4.3329,4.3329,4.3329,4.3329,4.3329,4.3329,4.3329,4.3329,4.3329,4.3329,4.3329,4.3329,4.3329,4.3329,4.3329,4.3329,4.3329,2.9804,2.9804,2.9804,2.9804,2.9804,2.9833,2.9907,2.9725,2.9783,3.0234,3.0227,3.0188,3.0179,2.9329,2.8806,2.8806,2.8412,2.8239,2.8239,2.8239,2.8133,2.7934,2.6993,2.6383,2.6144,2.5084,2.4529,2.4529,2.4813,2.4711,2.4163,2.3956,2.407,2.4325,2.4496,2.5011,2.5886,2.6302,2.6533,2.6533,2.6533,2.7297,2.8492,2.8876,2.9813,3.1014,3.1336,3.1958,3.2617,3.3275,3.3933,3.4592,3.528,3.5519,3.5519,3.5519,3.5519,3.5519,3.5519,3.5519,3.5579,3.5878,3.6417,3.7045,3.7704,3.8123,3.8691,3.9738,3.9978,4.0157,4.0816,4.0696,4.0816,4.1773,4.1923,4.2162,4.2821,4.315,4.309,4.2432,4.1773,4.1624,4.2282,4.2372,4.2641,4.3269,4.3329,4.3329,4.3329,4.3329,4.3329,4.3329,4.3329,4.3329,4.3329,4.3329,4.3329,4.3329,4.3329,4.3329,4.3329,4.3329,4.3329,4.3329,4.3329,4.3329,4.3329,4.3329,4.3329,4.3329,4.3329,4.3329,4.3329,4.3329,4.3329,4.3329]},{"header":{"parameterUnit":"m.s-1","parameterCategory":1,"la1":30.6,"la2":28.766,"lo1":-90.7593,"lo2":-88.6598,"dy":0.0162,"dx":0.0183,"nx":116,"ny":114,"refTime":"2023-05-22T12:00:00:Z","depth":0,"parameterNumber":3,"parameterNumberName":"V-component_of_WINDS"},"data":[0.0,0.0,0.0,0.0,0.0,0.0,0.0,0.0,0.0,0.0,0.0,0.0,0.0,0.0,0.0,0.0,0.0,0.0,0.0,0.0,0.0,0.0,0.0,0.0,0.0,0.0,0.0,0.0,0.0,0.0,0.0,0.0,0.0,0.0,0.0,0.0,0.0,0.0,0.0,0.0,0.0,0.0,0.0,0.0,0.0,0.0,0.0,0.0,0.0,0.0,0.0,0.0,0.0,0.0,0.0,0.0,0.0,0.0,0.0,0.0,0.0,0.0,0.0,0.0,0.0,0.0,0.0,0.0,0.0,0.0,0.0,0.0,0.0,0.0,0.0,0.0,0.0,0.0,0.0,0.0,0.0,0.0,0.0,0.0,0.0,0.0,0.0,0.0,0.0,0.0,0.0,0.0,0.0,0.0,0.0,0.0,0.0,0.0,0.0,0.0,0.0,0.0,0.0,0.0,0.0,0.0,0.0,0.0,0.0,0.0,0.0,0.0,0.0,0.0,0.0,0.0,0.0,0.0,0.0,0.0,0.0,0.0,0.0,0.0,0.0,0.0,0.0,0.0,0.0,0.0,0.0,0.0,0.0,0.0,0.0,0.0,0.0,0.0,0.0,0.0,0.0,0.0,0.0,0.0,0.0,0.0,0.0,0.0,0.0,0.0,0.0,0.0,0.0,0.0,0.0,0.0,0.0,0.0,0.0,0.0,0.0,0.0,0.0,0.0,0.0,0.0,0.0,0.0,0.0,0.0,0.0,0.0,0.0,0.0,0.0,0.0,0.0,0.0,0.0,0.0,0.0,0.0,0.0,0.0,0.0,0.0,0.0,0.0,0.0,0.0,0.0,0.0,0.0,0.0,0.0,0.0,0.0,0.0,0.0,0.0,0.0,0.0,0.0,0.0,0.0,0.0,0.0,0.0,0.0,0.0,0.0,0.0,0.0,0.0,0.0,0.0,0.0,0.0,0.0,0.0,0.0,0.0,0.0,0.0,0.0,0.0,0.0,0.0,0.0,0.0,0.0,0.0,0.0,0.0,0.0,0.0,0.0,0.0,0.0,0.0,0.0,0.0,0.0,0.0,0.0,0.0,0.0,0.0,0.0,0.0,0.0,0.0,0.0,0.0,0.0,0.0,0.0,0.0,0.0,0.0,0.0,0.0,0.0,0.0,0.0,0.0,0.0,0.0,0.0,0.0,0.0,0.0,0.0,0.0,0.0,0.0,0.0,0.0,0.0,0.0,0.0,0.0,0.0,0.0,0.0,0.0,0.0,0.0,0.0,0.0,0.0,0.0,0.0,0.0,0.0,0.0,0.0,0.0,0.0,0.0,0.0,0.0,0.0,0.0,0.0,0.0,0.0,0.0,0.0,0.0,0.0,0.0,0.0,0.0,0.0,0.0,0.0,0.0,0.0,0.0,0.0,0.0,0.0,0.0,0.0,0.0,0.0,0.0,0.0,0.0,0.0,0.0,0.0,0.0,0.0,0.0,0.0,0.0,0.0,0.0,0.0,0.0,0.0,0.0,0.0,0.0,0.0,0.0,0.0,0.0,0.0,0.0,0.0,0.0,0.0,0.0,0.0,0.0,0.0,0.0,0.0,0.0,0.0,0.0,0.0,0.0,0.0,0.0,0.0,0.0,0.0,0.0,0.0,0.0,0.0,0.0,0.0,0.0,0.0,0.0,0.0,0.0,0.0,0.0,0.0,0.0,0.0,0.0,0.0,0.0,0.0,0.0,0.0,0.0,0.0,0.0,0.0,0.0,0.0,0.0,0.0,0.0,0.0,0.0,0.0,0.0,0.0,0.0,0.0,0.0,0.0,0.0,0.0,0.0,0.0,0.0,0.0,0.0,0.0,0.0,0.0,0.0,0.0,0.0,0.0,0.0,0.0,0.0,0.0,0.0,0.0,0.0,0.0,0.0,0.0,0.0,0.0,0.0,0.0,0.0,0.0,0.0,0.0,0.0,0.0,0.0,0.0,0.0,0.0,0.0,0.0,0.0,0.0,0.0,0.0,0.0,0.0,0.0,0.0,0.0,0.0,0.0,0.0,0.0,0.0,0.0,0.0,0.0,0.0,0.0,0.0,0.0,0.0,0.0,0.0,0.0,0.0,0.0,0.0,0.0,0.0,0.0,0.0,0.0,0.0,0.0,0.0,0.0,0.0,0.0,0.0,0.0,0.0,0.0,0.0,0.0,0.0,0.0,0.0,0.0,0.0,0.0,0.0,0.0,0.0,0.0,0.0,0.0,0.0,0.0,0.0,0.0,0.0,0.0,0.0,0.0,0.0,0.0,0.0,0.0,0.0,0.0,0.0,0.0,0.0,0.0,0.0,0.0,0.0,0.0,0.0,0.0,0.0,0.0,0.0,0.0,0.0,0.0,0.0,0.0,0.0,0.0,0.0,0.0,0.0,0.0,0.0,0.0,0.0,0.0,0.0,0.0,0.0,0.0,0.0,0.0,0.0,0.0,0.0,0.0,0.0,0.0,0.0,0.0,0.0,0.0,0.0,0.0,0.0,0.0,0.0,0.0,0.0,0.0,0.0,0.0,0.0,0.0,0.0,0.0,0.0,0.0,0.0,0.0,0.0,0.0,0.0,0.0,0.0,0.0,0.0,0.0,0.0,0.0,0.0,0.0,0.0,0.0,0.0,0.0,0.0,0.0,0.0,0.0,0.0,0.0,0.0,0.0,0.0,0.0,0.0,0.0,0.0,0.0,0.0,0.0,0.0,0.0,0.0,0.0,0.0,0.0,0.0,0.0,0.0,0.0,0.0,0.0,0.0,0.0,0.0,0.0,0.0,0.0,0.0,0.0,0.0,0.0,0.0,0.0,0.0,0.0,0.0,0.0,0.0,0.0,0.0,0.0,0.0,0.0,0.0,0.0,0.0,0.0,0.0,0.0,0.0,0.0,0.0,0.0,0.0,0.0,0.0,0.0,0.0,0.0,0.0,0.0,0.0,0.0,0.0,0.0,0.0,0.0,0.0,0.0,0.0,0.0,0.0,0.0,0.0,0.0,0.0,0.0,0.0,0.0,0.0,0.0,0.0,0.0,0.0,0.0,0.0,0.0,0.0,0.0,0.0,0.0,0.0,0.0,0.0,0.0,0.0,0.0,0.0,0.0,0.0,0.0,0.0,0.0,0.0,0.0,0.0,0.0,0.0,0.0,0.0,0.0,0.0,0.0,0.0,0.0,0.0,0.0,0.0,0.0,0.0,0.0,0.0,0.0,0.0,0.0,0.0,0.0,0.0,0.0,0.0,0.0,0.0,0.0,0.0,0.0,0.0,0.0,0.0,0.0,0.0,0.0,0.0,0.0,0.0,0.0,0.0,0.0,0.0,0.0,0.0,0.0,0.0,0.0,0.0,0.0,0.0,0.0,0.0,0.0,0.0,0.0,0.0,0.0,0.0,0.0,0.0,0.0,0.0,0.0,0.0,0.0,0.0,0.0,0.0,0.0,0.0,0.0,0.0,0.0,0.0,0.0,0.0,0.0,0.0,0.0,0.0,0.0,0.0,0.0,0.0,0.0,0.0,0.0,0.0,0.0,0.0,0.0,0.0,0.0,0.0,0.0,0.0,0.0,0.0,0.0,0.0,0.0,0.0,0.0,0.0,0.0,0.0,0.0,0.0,0.0,0.0,0.0,0.0,0.0,0.0,0.0,0.0,0.0,0.0,0.0,0.0,0.0,0.0,0.0,0.0,0.0,0.0,0.0,0.0,0.0,0.0,0.0,0.0,0.0,0.0,0.0,0.0,0.0,0.0,0.0,0.0,0.0,0.0,0.0,0.0,0.0,0.0,0.0,0.0,0.0,0.0,0.0,0.0,0.0,0.0,0.0,0.0,0.0,0.0,0.0,0.0,0.0,0.0,0.0,0.0,0.0,0.0,0.0,0.0,0.0,0.0,0.0,0.0,0.0,0.0,0.0,0.0,0.0,0.0,0.0,0.0,0.0,0.0,0.0,0.0,0.0,0.0,0.0,0.0,0.0,0.0,0.0,0.0,0.0,0.0,0.0,0.0,0.0,0.0,0.0,0.0,0.0,0.0,0.0,0.0,0.0,0.0,0.0,0.0,0.0,0.0,0.0,0.0,0.0,0.0,0.0,0.0,0.0,0.0,0.0,0.0,0.0,0.0,0.0,0.0,0.0,0.0,0.0,0.0,0.0,0.0,0.0,0.0,0.0,0.0,0.0,0.0,0.0,0.0,0.0,0.0,0.0,0.0,0.0,0.0,0.0,0.0,0.0,0.0,0.0,0.0,0.0,0.0,0.0,0.0,0.0,0.0,0.0,0.0,0.0,0.0,0.0,0.0,0.0,0.0,0.0,0.0,0.0,0.0,0.0,0.0,0.0,0.0,0.0,0.0,0.0,0.0,0.0,0.0,0.0,0.0,0.0,0.0,0.0,0.0,0.0,0.0,0.0,0.0,0.0,0.0,0.0,0.0,0.0,0.0,0.0,0.0,0.0,0.0,0.0,0.0,0.0,0.0,0.0,0.0,0.0,0.0,0.0,0.0,0.0,0.0,0.0,0.0,0.0,0.0,0.0,0.0,0.0,0.0,0.0,0.0,0.0,0.0,0.0,0.0,0.0,0.0,0.0,0.0,0.0,0.0,0.0,0.0,0.0,0.0,0.0,0.0,0.0,0.0,0.0,0.0,0.0,0.0,0.0,0.0,0.0,0.0,0.0,0.0,0.0,0.0,0.0,0.0,0.0,0.0,0.0,0.0,0.0,0.0,0.0,0.0,0.0,0.0,0.0,0.0,0.0,0.0,0.0,0.0,0.0,0.0,0.0,0.0,0.0,0.0,0.0,0.0,0.0,0.0,0.0,0.0,0.0,0.0,0.0,0.0,0.0,0.0,0.0,0.0,0.0,0.0,0.0,0.0,0.0,0.0,0.0,0.0,0.0,0.0,0.0,0.0,0.0,0.0,0.0,0.0,0.0,0.0,0.0,0.0,0.0,0.0,0.0,0.0,0.0,0.0,0.0,0.0,0.0,0.0,0.0,0.0,0.0,0.0,0.0,0.0,0.0,0.0,0.0,0.0,0.0,0.0,0.0,0.0,0.0,0.0,0.0,0.0,0.0,0.0,0.0,0.0,0.0,0.0,0.0,0.0,0.0,0.0,0.0,0.0,0.0,0.0,0.0,0.0,0.0,0.0,0.0,0.0,0.0,0.0,0.0,0.0,0.0,0.0,0.0,0.0,0.0,0.0,0.0,0.0,0.0,0.0,0.0,0.0,0.0,0.0,0.0,0.0,0.0,0.0,0.0,0.0,0.0,0.0,0.0,0.0,0.0,0.0,0.0,0.0,0.0,0.0,0.0,0.0,0.0,0.0,0.0,0.0,0.0,0.0,0.0,0.0,0.0,0.0,0.0,0.0,0.0,0.0,0.0,0.0,0.0,0.0,0.0,0.0,0.0,0.0,0.0,0.0,0.0,0.0,0.0,0.0,0.0,0.0,0.0,0.0,0.0,0.0,0.0,0.0,0.0,0.0,0.0,0.0,0.0,0.0,0.0,0.0,0.0,0.0,0.0,0.0,0.0,0.0,0.0,0.0,0.0,0.0,0.0,0.0,0.0,0.0,0.0,0.0,0.0,0.0,0.0,0.0,0.0,0.0,0.0,0.0,0.0,0.0,0.0,0.0,0.0,0.0,0.0,0.0,0.0,0.0,0.0,0.0,0.0,0.0,0.0,0.0,0.0,0.0,0.0,0.0,0.0,0.0,0.0,0.0,0.0,0.0,0.0,0.0,0.0,0.0,0.0,0.0,0.0,0.0,0.0,0.0,0.0,0.0,0.0,0.0,0.0,0.0,0.0,0.0,0.0,0.0,0.0,0.0,0.0,0.0,0.0,0.0,0.0,0.0,0.0,0.0,0.0,0.0,0.0,0.0,0.0,0.0,0.0,0.0,0.0,0.0,0.0,0.0,0.0,0.0,0.0,0.0,0.0,0.0,0.0,0.0,0.0,0.0,0.0,0.0,0.0,0.0,0.0,0.0,0.0,0.0,0.0,0.0,0.0,0.0,0.0,0.0,0.0,0.0,0.0,0.0,0.0,0.0,0.0,0.0,0.0,0.0,0.0,0.0,0.0,0.0,0.0,2.7695,2.7494,0.0,0.0,0.0,0.0,0.0,0.0,0.0,0.0,0.0,0.0,0.0,0.0,0.0,0.0,0.0,0.0,0.0,0.0,0.0,0.0,0.0,0.0,0.0,0.0,0.0,0.0,0.0,0.0,0.0,0.0,0.0,0.0,0.0,0.0,0.0,0.0,0.0,0.0,2.8098,2.8427,2.9086,3.0073,3.0702,3.1061,0.0,0.0,0.0,0.0,0.0,0.0,0.0,0.0,0.0,0.0,0.0,0.0,0.0,0.0,0.0,0.0,0.0,0.0,0.0,0.0,0.0,0.0,0.0,0.0,0.0,0.0,0.0,0.0,0.0,0.0,0.0,0.0,0.0,0.0,0.0,0.0,0.0,0.0,0.0,0.0,0.0,0.0,0.0,0.0,0.0,0.0,0.0,0.0,0.0,0.0,0.0,0.0,0.0,0.0,0.0,0.0,0.0,0.0,0.0,0.0,0.0,0.0,0.0,0.0,0.0,0.0,0.0,0.0,0.0,0.0,2.8624,2.8348,0.0,0.0,0.0,0.0,0.0,0.0,0.0,0.0,0.0,0.0,0.0,0.0,0.0,0.0,0.0,0.0,0.0,0.0,0.0,0.0,0.0,0.0,0.0,0.0,2.5315,2.6662,2.6273,2.6183,0.0,0.0,0.0,0.0,0.0,0.0,0.0,0.0,0.0,0.0,2.8248,2.8757,3.0133,3.121,3.139,3.0881,3.133,0.0,0.0,0.0,0.0,0.0,0.0,0.0,0.0,0.0,0.0,0.0,0.0,0.0,0.0,0.0,0.0,0.0,0.0,0.0,0.0,0.0,0.0,0.0,0.0,0.0,0.0,0.0,0.0,0.0,0.0,0.0,0.0,0.0,0.0,0.0,0.0,0.0,0.0,0.0,0.0,0.0,0.0,0.0,0.0,0.0,0.0,0.0,0.0,0.0,0.0,0.0,0.0,0.0,0.0,0.0,0.0,0.0,0.0,0.0,0.0,0.0,0.0,0.0,3.0181,3.0457,3.0382,3.0834,3.0859,3.0482,3.0005,2.9528,2.9076,2.8976,0.0,0.0,0.0,0.0,0.0,0.0,0.0,0.0,0.0,0.0,0.0,0.0,0.0,0.0,0.0,0.0,0.0,0.0,0.0,0.0,0.0,2.5525,2.6004,2.732,2.74,2.735,0.0,0.0,0.0,0.0,0.0,0.0,0.0,2.8158,2.8517,2.8607,2.9624,3.0791,3.2138,3.2317,3.2347,3.2228,3.1749,3.178,3.2347,0.0,0.0,0.0,0.0,0.0,0.0,0.0,0.0,0.0,0.0,0.0,0.0,0.0,0.0,0.0,0.0,0.0,0.0,0.0,0.0,0.0,0.0,0.0,0.0,0.0,0.0,0.0,0.0,0.0,0.0,0.0,0.0,0.0,0.0,0.0,0.0,0.0,0.0,0.0,0.0,0.0,2.6364,2.6992,0.0,0.0,0.0,0.0,0.0,0.0,0.0,0.0,0.0,0.0,0.0,0.0,0.0,2.998,3.0834,3.1964,3.2265,3.1788,3.2867,3.3119,3.2641,3.2717,3.2968,3.3345,3.3269,0.0,2.9628,2.9126,0.0,0.0,0.0,0.0,0.0,0.0,0.0,0.0,0.0,0.0,0.0,0.0,0.0,0.0,0.0,0.0,0.0,0.0,0.0,0.0,0.0,2.5615,2.6303,2.8008,2.8487,2.8547,2.8188,0.0,0.0,0.0,0.0,0.0,0.0,2.8457,2.8966,2.9684,3.136,3.2287,3.2527,3.2886,3.3066,3.3066,3.2766,3.2587,3.2497,3.2198,0.0,0.0,0.0,0.0,0.0,0.0,0.0,0.0,0.0,0.0,0.0,0.0,0.0,0.0,0.0,0.0,0.0,0.0,0.0,0.0,0.0,0.0,0.0,0.0,0.0,0.0,0.0,0.0,0.0,0.0,0.0,0.0,0.0,0.0,0.0,0.0,0.0,0.0,0.0,2.7243,2.8072,2.7369,2.7821,2.7971,0.0,0.0,0.0,0.0,0.0,0.0,0.0,0.0,0.0,3.1587,3.1637,3.2164,3.3244,3.4073,3.4173,3.3646,3.4751,3.5002,3.4474,3.4474,3.46,3.4801,3.45,3.3495,3.2039,3.1135,3.0557,3.0181,0.0,0.0,0.0,0.0,3.0256,3.0306,0.0,0.0,0.0,0.0,0.0,0.0,0.0,0.0,0.0,0.0,0.0,0.0,2.5465,2.5764,2.6662,2.8667,2.9146,2.9205,2.8876,2.8996,0.0,0.0,0.0,2.7889,2.8577,2.9265,3.0223,3.1509,3.3185,3.3754,3.3305,3.3784,3.3993,3.3993,3.3993,3.3634,3.3006,3.2647,3.2317,3.2018,0.0,0.0,0.0,0.0,0.0,0.0,0.0,0.0,0.0,0.0,0.0,0.0,0.0,0.0,0.0,0.0,0.0,0.0,0.0,0.0,0.0,0.0,0.0,0.0,0.0,0.0,0.0,0.0,0.0,0.0,0.0,0.0,0.0,0.0,0.0,0.0,0.0,2.8775,2.9478,2.8097,2.89,2.9126,0.0,0.0,0.0,0.0,0.0,0.0,3.0608,3.1286,3.2365,3.3872,3.3922,3.4449,3.5554,3.5981,3.5981,3.5579,3.6383,3.6558,3.6182,3.6182,3.6182,3.6132,3.5579,3.5052,3.4424,3.3018,3.1888,3.0984,3.0583,3.0331,3.0281,3.0984,3.106,3.0884,0.0,0.0,0.0,0.0,0.0,0.0,0.0,0.0,0.0,0.0,0.0,2.4118,2.5465,2.6153,2.735,2.9355,2.8996,2.8906,2.9505,2.8368,2.77,2.761,2.761,2.7889,2.8577,3.1031,3.2976,3.4262,3.504,3.54,3.534,3.54,3.54,3.54,3.54,3.5011,3.4292,3.3036,3.2856,3.3275,0.0,0.0,0.0,0.0,0.0,0.0,0.0,0.0,0.0,0.0,0.0,0.0,0.0,0.0,0.0,0.0,0.0,0.0,0.0,0.0,0.0,0.0,0.0,0.0,0.0,0.0,0.0,0.0,0.0,0.0,0.0,0.0,0.0,0.0,0.0,0.0,0.0,0.0,0.0,2.9729,3.0608,0.0,0.0,0.0,0.0,3.0482,3.1964,3.2893,3.2918,3.3922,3.5027,3.6157,3.6182,3.6734,3.7839,3.7864,3.7864,3.7839,3.7889,3.7914,3.7889,3.7889,3.7889,3.7864,3.7312,3.6759,3.6107,3.3922,3.2692,3.2139,3.2114,3.1763,3.1436,3.2541,3.2265,3.1436,0.0,0.0,0.0,0.0,0.0,0.0,0.0,0.0,2.3759,2.4208,2.4268,2.4926,2.6692,2.7081,2.8188,3.0612,3.0612,3.0582,3.0821,2.9983,2.9265,2.8876,2.8457,2.8936,3.0462,3.2228,3.3574,3.4472,3.5579,3.6118,3.6118,3.6118,3.6357,3.6716,3.6327,3.5998,3.5669,3.4352,3.3664,3.3425,3.2527,3.1928,0.0,0.0,0.0,0.0,0.0,0.0,0.0,0.0,0.0,0.0,0.0,0.0,0.0,0.0,0.0,0.0,0.0,0.0,0.0,0.0,0.0,0.0,0.0,0.0,0.0,0.0,0.0,0.0,0.0,0.0,0.0,0.0,0.0,0.0,0.0,0.0,0.0,3.1964,3.3194,0.0,3.2541,3.2616,3.2867,3.3219,3.4123,3.4826,3.5177,3.6232,3.7337,3.8467,3.8492,3.8868,3.9622,3.927,3.8919,3.8567,3.8919,3.8894,3.8567,3.8567,3.8567,3.8542,3.7965,3.7613,3.7362,3.6207,3.4751,3.3269,3.2893,3.2641,3.2566,3.3319,3.3345,3.3093,0.0,0.0,0.0,0.0,0.0,0.0,0.0,0.0,2.3849,2.4492,2.497,2.5944,2.7739,2.8517,2.9804,3.1988,3.1721,3.1571,3.178,3.0612,2.9774,2.9594,2.9594,3.0402,3.2168,3.3724,3.4831,3.5459,3.6567,3.7015,3.6806,3.6806,3.7015,3.7375,3.6985,3.6806,3.6746,3.5848,3.4831,3.3784,3.3335,3.2916,3.2347,0.0,0.0,0.0,0.0,0.0,0.0,0.0,0.0,0.0,0.0,0.0,0.0,0.0,0.0,0.0,0.0,0.0,0.0,0.0,0.0,0.0,0.0,0.0,0.0,0.0,0.0,0.0,0.0,0.0,0.0,0.0,0.0,0.0,0.0,3.3169,3.4248,3.3696,3.5253,3.5931,3.4851,3.5253,3.573,3.6107,3.681,3.7387,3.7739,3.8642,3.9471,4.0224,4.0249,4.0325,4.0526,4.0149,3.9697,3.9145,3.9521,3.9496,3.9145,3.9145,3.9145,3.912,3.8542,3.8291,3.8266,3.7688,3.6609,3.5203,3.4474,3.3947,3.3721,3.4449,3.45,3.4223,0.0,0.0,0.0,0.0,0.0,0.0,0.0,2.361,2.3879,2.4552,2.5824,2.7171,2.8547,3.0402,3.2108,3.3395,3.2317,3.1809,3.2497,3.0073,2.8936,2.9624,3.0881,3.2198,3.3514,3.5489,3.6776,3.7404,3.8063,3.8063,3.7434,3.7434,3.7464,3.7494,3.7494,3.7464,3.7464,3.7494,3.6357,3.4562,3.4532,3.4532,3.4352,0.0,0.0,0.0,0.0,0.0,0.0,0.0,0.0,0.0,0.0,0.0,0.0,0.0,0.0,0.0,0.0,0.0,0.0,0.0,0.0,0.0,0.0,0.0,0.0,0.0,0.0,0.0,0.0,0.0,0.0,0.0,0.0,0.0,3.33,3.46,3.5454,3.4951,3.6784,3.7688,3.6824,3.8088,3.8944,3.907,3.9948,4.0551,4.0551,4.1053,4.1354,4.1354,4.1379,4.1128,4.0576,4.0551,4.0275,3.9722,3.9697,3.9697,3.9697,3.9697,3.9697,3.9672,3.912,3.8894,3.8843,3.8266,3.804,3.7914,3.6835,3.5755,3.4951,3.6006,3.5705,3.4776,0.0,0.0,0.0,0.0,0.0,0.0,0.0,2.4029,2.4747,2.5914,2.723,2.8727,3.0522,3.1629,3.2766,3.4083,3.2557,3.2018,3.3155,3.0761,2.9804,3.0941,3.2258,3.3574,3.4921,3.5968,3.6776,3.7404,3.8063,3.8302,3.8123,3.8123,3.8631,3.9559,3.908,3.8871,3.8901,3.9379,3.8422,3.6567,3.6118,3.5639,3.513,0.0,0.0,0.0,0.0,0.0,0.0,0.0,0.0,0.0,0.0,0.0,0.0,0.0,0.0,0.0,0.0,0.0,0.0,0.0,0.0,0.0,0.0,0.0,0.0,0.0,0.0,0.0,0.0,0.0,0.0,0.0,3.8,3.8564,3.7584,3.7424,3.8079,4.0207,4.0389,4.1234,4.3463,4.1802,4.133,4.2814,4.1766,4.1128,4.1128,4.163,4.1932,4.1932,4.2308,4.2258,4.1706,4.1304,4.0827,4.03,3.9898,3.9697,3.9697,3.9697,3.9697,3.9697,3.9546,3.9471,3.9421,3.8868,3.8642,3.8567,3.7839,3.7362,3.7086,3.6985,3.6508,3.5855,0.0,0.0,0.0,0.0,0.0,0.0,0.0,2.4358,2.5196,2.6811,2.8397,3.0043,3.1749,3.2766,3.3634,3.4412,3.2916,3.2258,3.3036,3.1898,3.1569,3.2317,3.4143,3.5639,3.6686,3.7375,3.8153,3.908,3.917,3.9379,3.9649,3.9649,4.0068,4.0786,4.0397,4.0247,4.0277,4.0636,4.0127,3.905,3.8691,3.7793,3.6596,3.5669,3.525,3.507,3.4532,3.4412,3.4352,3.3604,0.0,0.0,0.0,0.0,0.0,0.0,0.0,0.0,0.0,0.0,0.0,0.0,0.0,0.0,0.0,0.0,0.0,0.0,0.0,0.0,0.0,0.0,0.0,0.0,4.1767,4.2463,4.3642,4.2296,4.1855,4.3462,4.3438,4.4334,4.6929,4.4306,4.3413,4.6166,4.3924,4.2679,4.365,4.3321,4.3187,4.3187,4.3489,4.3288,4.2509,4.2183,4.163,4.0852,4.0526,4.0375,4.0375,4.0149,4.0049,4.0023,3.9798,3.9697,3.9672,3.9346,3.922,3.912,0.0,0.0,0.0,0.0,3.6634,3.6307,0.0,0.0,0.0,0.0,0.0,0.0,0.0,2.4701,2.5495,2.735,2.9295,3.1001,3.2258,3.3574,3.4352,3.4352,3.3155,3.2407,3.2407,3.3155,3.3664,3.3814,3.6267,3.7943,3.8601,3.929,4.0217,4.1384,4.0786,4.0816,4.1384,4.1444,4.1504,4.1504,4.1564,4.1564,4.1504,4.1504,4.1444,4.1384,4.1384,4.0217,3.8392,3.7255,3.7075,3.7255,3.6118,3.537,3.4891,3.4741,0.0,0.0,0.0,0.0,0.0,0.0,0.0,0.0,0.0,0.0,0.0,0.0,0.0,0.0,0.0,0.0,0.0,0.0,0.0,0.0,0.0,0.0,0.0,0.0,4.5235,4.5705,4.9925,4.8269,4.6467,4.5953,4.6115,4.6975,4.8778,4.616,4.5735,4.9,4.6231,4.5089,4.6567,4.5488,0.0,0.0,0.0,4.4192,4.3087,4.3062,4.2509,4.143,4.1354,4.1329,4.1329,4.0777,4.0526,4.0475,3.9923,3.9697,3.9697,3.9697,3.9697,3.9597,3.8592,3.7864,3.7312,3.6759,3.6508,3.6433,0.0,0.0,0.0,0.0,0.0,0.0,0.0,2.5525,2.6542,2.749,2.9295,3.0821,3.1629,3.2886,3.3694,3.3694,3.2467,3.1719,3.1719,3.3335,3.4771,3.5848,3.7913,3.9349,4.0008,4.0666,4.1115,4.1384,4.1265,4.1265,4.1384,4.1923,4.2162,4.2192,4.2731,4.2671,4.2162,4.2162,4.1863,4.1384,4.1384,4.0516,3.92,3.896,3.8242,3.7375,3.7135,3.7285,3.7464,3.6447,3.6357,3.6477,3.5429,0.0,0.0,0.0,0.0,0.0,0.0,0.0,0.0,0.0,0.0,0.0,0.0,0.0,0.0,0.0,0.0,0.0,0.0,0.0,0.0,4.8297,4.9723,5.0886,5.2232,5.2983,5.2528,5.0235,4.9092,4.9715,5.2788,5.0037,4.8571,4.9688,4.8653,4.721,4.517,4.5943,4.5943,4.4618,4.507,4.4769,4.3664,4.3639,4.3087,4.1982,4.1555,0.0,4.1329,4.0777,4.0526,4.0475,3.9923,3.9697,3.9697,3.9697,3.9697,3.9672,3.9446,3.9019,3.8467,3.7889,3.7412,3.696,0.0,0.0,0.0,0.0,0.0,0.0,0.0,2.6183,2.6961,2.7949,2.9235,3.0283,3.0941,3.1599,3.1988,3.1988,3.1719,3.175,3.2467,3.4681,3.6537,3.7883,3.9828,4.1055,4.1384,4.1713,4.2043,4.2372,4.2043,4.2043,4.2372,4.2701,4.303,4.3359,4.3688,4.3838,4.3838,4.3838,4.3629,4.3329,4.3329,4.2551,4.1294,4.0636,3.9978,3.9409,3.9409,3.92,3.8811,3.8182,3.7704,3.7345,3.7045,3.6477,3.5938,0.0,0.0,0.0,0.0,0.0,0.0,0.0,0.0,0.0,0.0,0.0,0.0,0.0,0.0,4.2491,4.4466,0.0,4.9134,5.1798,5.2674,5.351,5.4831,5.5037,5.4328,5.2261,5.2031,5.2509,5.386,5.1903,5.0657,5.1127,4.9963,4.8786,4.7508,4.7159,4.6678,4.5874,4.5899,4.5347,4.4217,4.4493,4.394,4.2559,4.2559,4.2434,4.2133,4.1304,4.0927,4.0877,4.0049,3.9697,3.9697,3.9697,3.9697,3.9697,3.9697,3.9346,3.8793,3.8216,3.7839,3.7563,0.0,0.0,0.0,0.0,0.0,0.0,0.0,2.6632,2.7171,2.8248,2.8966,2.9594,3.0073,3.0253,3.0313,3.0313,3.1061,3.2108,3.3395,3.6058,3.8182,3.9559,4.1504,4.2551,4.2551,4.2551,4.2791,4.3329,4.294,4.3,4.3539,4.3778,4.4137,4.4496,4.4646,4.4915,4.5304,4.5304,4.5304,4.5304,4.5304,4.4646,4.3599,4.2402,4.1713,4.1384,4.1384,4.0546,3.9439,3.9559,3.8811,3.7913,3.8571,3.8422,3.7943,3.7674,3.7075,0.0,0.0,0.0,0.0,0.0,0.0,0.0,0.0,3.917,4.0217,4.1953,4.3778,4.5963,4.8895,5.0601,5.2516,5.5478,5.5348,5.5557,5.7467,5.6643,5.5445,5.4284,5.4836,5.5184,5.4815,5.377,5.2995,5.2701,5.1483,5.0442,4.9766,4.8333,4.7349,4.7129,4.6602,4.5824,4.4794,4.5246,4.4744,4.3288,4.3639,4.3564,4.3112,4.2007,4.143,4.1279,4.0174,3.9697,3.9697,3.9697,3.9697,3.9697,3.9697,3.9421,3.8969,3.8391,3.8165,3.8165,0.0,0.0,0.0,0.0,0.0,0.0,0.0,0.0,2.753,2.77,2.8278,2.8727,2.8816,2.9325,2.9684,2.9684,3.0821,3.2108,3.3395,3.6507,3.8871,4.0217,4.2162,4.324,4.324,4.324,4.3269,4.3329,4.3838,4.4137,4.4227,4.5424,4.5693,4.5214,4.5813,4.5813,4.5304,4.5304,4.5304,4.5304,4.5304,4.5214,4.5005,4.4257,4.291,4.1384,4.1384,4.0546,3.9499,4.0098,3.9798,3.932,3.9978,4.0127,3.9828,3.8631,3.7434,3.6327,3.5699,3.5998,3.7045,3.9379,3.9619,4.0487,0.0,4.5274,4.5394,4.8506,5.0242,5.1678,5.3264,5.5059,5.6825,5.8411,5.8602,5.8763,5.9668,5.9618,5.924,5.8524,5.7511,5.7302,5.8435,5.788,5.6304,5.3569,5.4459,5.3033,4.8404,4.8765,4.8454,4.7129,4.6602,4.6024,4.5397,4.5447,4.5146,4.4443,4.4016,4.3765,4.3664,4.2559,4.1806,4.1279,4.0174,3.9697,3.9697,3.9697,3.9697,3.9697,3.9697,3.9647,3.9546,3.8969,3.8768,3.8693,0.0,0.0,0.0,0.0,0.0,0.0,0.0,0.0,0.0,2.761,2.7829,2.8008,2.8008,2.8248,2.8577,2.8966,3.0552,3.2437,3.4532,3.7734,4.0337,4.2043,4.3269,4.4077,4.4466,4.4107,4.4077,4.4466,4.4736,4.4885,4.4885,4.5454,4.5783,4.5903,4.6202,4.6381,4.6471,4.6471,4.6471,4.6471,4.6471,4.6232,4.5813,4.5155,4.3658,4.1893,4.1504,4.0786,0.0,0.0,3.905,3.8931,3.9619,3.9559,3.911,3.8542,3.7734,3.7045,3.7165,3.8242,3.9499,4.0217,4.1624,4.3419,4.5633,4.6591,4.7967,5.1259,5.3324,5.5029,5.6735,5.8022,5.9159,6.0116,6.0266,6.0356,6.0655,6.0685,6.0446,5.9757,5.9189,5.8326,5.6967,5.8702,5.754,5.2147,5.4019,5.337,4.8686,4.8451,4.7993,4.7129,4.6602,4.605,4.5497,4.5799,4.5347,4.4141,4.4242,4.394,4.3288,4.2183,4.1204,4.035,3.9898,3.9697,3.9697,3.9697,3.9697,3.9697,3.9697,3.9697,3.9672,3.9446,3.9346,3.932,0.0,0.0,0.0,0.0,0.0,0.0,0.0,0.0,0.0,0.0,2.752,2.761,2.761,2.761,2.7769,2.8278,3.0103,3.2287,3.4801,3.8033,4.0816,4.297,4.3868,4.4616,4.5274,4.4825,4.4825,4.5304,4.5484,4.5574,4.5574,4.5753,4.6202,4.686,4.686,4.7219,4.7848,4.7638,4.7578,4.7549,4.7369,4.692,4.6202,4.5155,4.3748,4.2282,4.1624,4.0606,3.9409,3.8452,3.8123,3.8212,3.8721,3.8781,3.8601,3.8212,3.7524,3.7105,3.8123,3.9589,4.0935,4.1384,4.3688,4.6082,4.701,4.8745,5.1079,5.4162,5.6256,5.8022,5.9638,6.0475,6.1074,6.1583,6.1642,6.1642,6.1642,6.1493,6.1134,6.0446,6.0027,5.8566,5.5483,5.8234,5.7969,5.2723,5.3744,5.3005,4.9165,4.8309,4.7657,4.7154,4.6602,4.6125,4.5723,4.6125,4.5698,4.4493,4.4568,4.4192,4.3388,4.1982,4.0902,4.0124,3.9823,3.9697,3.9697,3.9697,3.9697,3.9697,3.9697,3.9697,3.9697,3.9697,3.9697,3.9697,0.0,0.0,0.0,0.0,0.0,0.0,0.0,0.0,0.0,0.0,0.0,0.0,0.0,2.761,2.764,2.764,2.9415,3.139,3.3425,3.6626,3.9619,4.2282,4.3629,4.4616,4.5274,4.5274,4.5274,4.5304,4.5963,4.6292,4.6292,4.695,4.7608,4.8237,4.8237,4.8596,4.9164,4.8536,4.8267,4.8207,4.7549,4.692,4.6112,4.4137,4.297,4.2282,4.1624,0.0,3.7494,3.7464,3.7434,3.7434,3.7464,3.8362,0.0,3.7823,3.6537,3.5968,3.7883,3.8931,4.0247,4.3419,4.5723,4.8087,5.1259,5.3533,5.5748,5.8381,6.0027,6.1194,6.1882,6.254,6.2989,6.3019,6.3019,6.3019,6.3019,6.248,6.1822,6.1164,5.9937,5.8068,5.5428,5.6844,5.7591,5.7079,5.4629,5.2019,4.9719,4.851,4.7657,4.7154,4.6602,4.6301,4.6276,4.6301,4.6276,4.6225,4.5146,4.4593,4.4493,4.2333,4.1329,4.1229,4.0149,3.9697,3.9697,3.9697,3.9697,3.9697,3.9697,3.9697,3.9697,3.9697,3.9697,3.9697,0.0,0.0,0.0,0.0,0.0,0.0,0.0,0.0,0.0,0.0,0.0,0.0,0.0,0.0,0.0,0.0,3.0133,3.1719,3.4651,3.7075,3.9589,4.2252,4.321,4.4407,4.5933,4.5514,4.5723,4.6621,4.686,4.698,4.698,4.7189,4.7668,4.8297,4.8297,4.8416,4.8596,4.8386,4.8027,4.7549,4.6411,4.6112,4.6022,4.312,4.1624,4.0816,0.0,3.7554,3.6656,3.5759,3.5759,3.6237,3.6656,3.7105,3.7375,3.6926,3.7105,3.7853,3.9828,4.1803,4.3898,4.6352,4.8775,5.1079,5.3084,5.5388,5.7513,5.883,5.9129,5.9189,5.9428,5.9638,5.9937,6.0356,6.1553,6.257,6.3019,6.1851,6.0355,5.8571,5.7254,5.5898,5.4228,5.6793,5.7024,5.3005,5.3797,5.2908,4.9215,4.8335,4.7657,4.7154,4.6602,4.6301,4.6301,4.6301,4.5924,4.5171,4.3689,4.2785,4.2409,4.1304,4.0802,4.0752,4.0023,3.9898,4.0199,3.9848,3.9697,3.9697,3.9697,3.9697,3.9697,3.9697,3.9697,3.9697,0.0,0.0,0.0,0.0,0.0,0.0,0.0,0.0,0.0,0.0,0.0,0.0,0.0,0.0,0.0,0.0,0.0,3.139,3.4262,3.5818,3.7913,4.0816,4.1354,4.2521,4.4526,4.3898,4.4077,4.5185,4.5663,4.5903,4.5933,4.6381,4.707,4.7938,4.7938,4.8207,4.8596,4.8147,4.7429,4.6471,4.5125,4.4436,4.3928,4.1294,3.9888,0.0,3.6626,3.5759,3.5549,3.4233,3.4382,3.519,3.537,3.5759,3.6267,3.6956,3.7913,3.9349,4.2043,4.4347,4.6561,4.8775,5.1139,5.3264,5.461,5.6765,5.859,5.9009,5.859,5.8052,5.7812,5.7393,5.7214,5.7633,5.877,5.9866,6.0723,5.9394,5.8118,5.7311,5.558,5.4303,5.353,5.5566,5.5528,5.1846,5.2655,5.2102,4.9215,4.8535,4.7883,4.7154,4.6803,4.6502,4.6301,4.6301,4.5748,4.4618,4.3338,4.2459,4.1907,4.1354,4.1103,4.1078,4.0526,4.0375,4.0501,4.0149,3.9873,3.9697,3.9697,3.9697,3.9697,3.9697,3.9697,3.9697,0.0,0.0,0.0,0.0,0.0,0.0,0.0,0.0,0.0,0.0,0.0,0.0,0.0,0.0,0.0,0.0,0.0,0.0,3.2347,3.3125,3.4891,3.8063,3.8272,3.926,4.1175,4.0696,4.0696,4.1324,4.2611,4.324,4.3329,4.4526,4.5783,4.707,4.707,4.7758,4.8835,4.7578,4.6292,4.4975,4.3658,4.2043,4.0247,3.8841,3.7913,3.7165,3.519,3.4472,3.4292,3.3036,3.3514,3.4532,3.3933,3.4681,3.6148,3.8063,3.917,4.0606,4.4496,4.6561,4.8237,5.081,5.2935,5.47,5.5987,5.7723,5.9039,5.8979,5.8321,5.7543,5.6825,5.5748,5.5029,5.5119,5.5299,5.5768,5.6676,5.576,5.5674,5.7311,0.0,0.0,0.0,5.3151,5.3173,5.3699,5.1178,4.9719,4.964,4.9088,4.8284,4.7255,4.7154,4.6878,4.6351,4.6276,4.5698,4.4618,4.4016,4.3438,4.2911,4.2359,4.2133,4.2133,4.158,4.1053,4.0551,4.0526,4.0199,3.9697,3.9697,3.9697,3.9697,3.9697,3.9697,3.9697,0.0,0.0,0.0,0.0,0.0,0.0,0.0,0.0,0.0,0.0,0.0,0.0,0.0,0.0,0.0,0.0,0.0,0.0,3.1719,3.2856,3.4083,3.5429,3.6866,3.8123,3.914,3.9978,4.0487,4.0636,4.1474,4.1893,4.1893,4.2222,4.2821,4.3629,4.3629,4.3808,4.4107,4.3778,4.315,4.2252,4.0935,4.0397,4.0157,3.7853,3.7165,3.7165,3.519,3.4472,3.4412,3.4083,3.516,3.6716,3.7045,3.8063,3.9529,4.1504,4.324,4.5214,4.8177,5.0301,5.2217,5.4371,5.5628,5.6585,5.7423,5.8022,5.8112,5.7124,5.482,5.2636,5.1468,5.1798,5.2725,5.4221,5.6915,5.897,5.9478,5.9241,5.8513,5.6837,0.0,5.3486,5.3182,5.1544,5.087,5.1915,5.1562,5.1097,5.0167,4.9289,4.8636,4.836,4.7556,4.7054,4.6928,4.5673,4.492,4.4593,4.3237,4.2509,4.2333,4.1806,4.1756,4.2133,4.158,4.1254,4.1103,4.0676,4.0199,3.9697,3.9697,3.9697,3.9697,3.9697,3.9697,3.9697,0.0,0.0,0.0,0.0,0.0,0.0,0.0,0.0,0.0,0.0,0.0,0.0,0.0,0.0,0.0,0.0,0.0,0.0,0.0,3.1958,3.2617,3.3574,3.4382,3.528,3.6207,3.6985,3.7375,3.7375,3.8631,3.908,3.8811,3.9379,3.9978,4.0606,4.0606,4.0786,4.1055,4.0756,4.0247,0.0,0.0,3.8182,3.8093,3.6626,3.6267,3.6417,3.531,3.528,3.5848,3.6447,3.7165,3.8093,3.9649,4.0846,4.2192,4.4766,4.6711,4.8626,5.1259,5.3204,5.476,5.5897,5.6645,5.6974,5.6526,5.6406,5.5867,5.3952,5.1618,4.9613,4.8596,4.9254,5.0391,5.1828,5.485,5.7369,5.8205,5.8406,5.8198,0.0,5.5545,0.0,5.4413,5.2207,5.0971,5.1599,5.1228,5.0793,5.0393,4.9615,4.8912,4.841,4.7782,4.7255,4.6778,4.5347,4.4618,4.4593,4.3187,4.2509,4.2509,4.2208,4.2233,4.2484,4.1932,4.1555,4.1304,4.0752,4.0199,3.9697,3.9697,3.9697,3.9697,3.9697,3.9697,3.9697,0.0,0.0,0.0,0.0,0.0,0.0,0.0,0.0,0.0,0.0,0.0,0.0,0.0,0.0,0.0,0.0,0.0,0.0,0.0,0.0,3.112,3.2198,3.1869,3.2168,3.3215,3.3395,3.3455,3.3365,3.519,3.5789,3.525,3.6387,3.7195,3.7734,3.7734,3.8063,3.8601,3.8003,3.7464,3.6985,3.6447,3.5938,3.5519,0.0,0.0,0.0,3.5519,3.6267,3.7554,3.923,3.9529,3.9619,4.2192,4.3658,4.4975,4.8027,4.9853,5.1439,5.3922,5.5508,5.6436,5.6526,5.6825,5.6615,5.476,5.4072,5.3084,5.0511,4.8865,4.7698,4.704,4.7608,4.8476,4.9494,5.1858,5.4196,5.5814,5.6162,5.6996,5.9028,5.6801,5.5371,5.599,5.3844,5.2371,5.2201,5.0645,4.9941,5.0494,5.0017,4.9163,4.7958,4.7908,4.738,4.6326,4.5271,4.4694,4.4618,4.3589,4.3062,4.2986,4.2986,4.2986,4.2936,4.2384,4.1856,4.1304,4.0752,4.0199,3.9697,3.9697,3.9697,3.9697,3.9697,3.9697,3.9697,0.0,0.0,0.0,0.0,0.0,0.0,0.0,0.0,0.0,0.0,2.8667,2.9594,0.0,0.0,0.0,0.0,0.0,0.0,0.0,0.0,0.0,3.0881,3.1809,3.2198,3.1869,3.2946,3.3215,3.2677,3.3574,3.3963,3.3844,3.4083,3.4233,3.4352,3.4352,3.4412,3.4532,3.4412,3.4592,3.4981,3.4861,3.51,3.5519,0.0,0.0,0.0,3.5519,3.5998,0.0,0.0,4.2491,4.3658,4.5783,4.8027,5.0182,5.1828,5.3294,5.467,5.6166,5.7184,5.7902,5.8471,5.7842,5.6735,5.5329,5.3324,0.0,4.9045,4.713,4.5603,4.4945,4.6292,4.8386,5.1229,5.3922,5.642,5.8494,5.8896,5.8646,0.0,5.7713,5.6895,5.5652,5.4655,5.3786,5.2891,5.1222,5.0519,5.1096,5.0594,4.954,4.7958,4.7908,4.738,4.6326,4.5673,4.5095,4.4618,4.3966,4.3413,4.2986,4.2986,4.2986,4.2936,4.2384,4.1856,4.1304,4.0752,4.0199,3.9697,3.9697,3.9697,3.9697,3.9697,3.9697,3.9697,0.0,0.0,0.0,0.0,0.0,0.0,0.0,0.0,2.6213,2.7889,2.8966,2.9714,3.0013,3.0941,0.0,0.0,0.0,0.0,0.0,0.0,0.0,0.0,0.0,0.0,3.1482,3.2497,3.2647,3.1988,0.0,3.2796,3.2467,3.2467,3.2467,3.2467,3.2467,3.2467,3.2467,3.2467,3.3066,3.3963,3.3963,3.4592,0.0,0.0,0.0,0.0,0.0,0.0,3.7883,0.0,4.312,4.5783,4.8087,5.0391,5.2486,5.3832,5.5418,5.7004,5.8291,5.889,5.9129,5.9129,5.7603,5.5478,5.3144,0.0,0.0,4.6202,4.4945,4.4167,4.3868,4.5424,4.7519,4.9793,5.2097,5.4756,5.832,5.8796,5.8928,5.9248,5.8509,5.7369,5.5551,5.4441,5.3503,5.2904,5.1925,5.1297,5.1272,5.0193,4.9063,4.7933,4.7657,4.7129,4.6326,4.5773,4.5347,4.507,4.4217,4.3664,4.3388,4.3112,4.2986,4.2936,4.2384,4.2007,4.1706,4.0852,4.035,4.0099,3.9798,3.9697,3.9697,3.9697,3.9697,3.9697,0.0,0.0,0.0,0.0,0.0,0.0,0.0,2.5615,2.6363,2.8517,2.9265,2.9864,3.0642,3.121,3.1482,0.0,0.0,0.0,0.0,0.0,0.0,0.0,0.0,0.0,0.0,0.0,0.0,3.1482,3.2048,0.0,0.0,0.0,0.0,0.0,3.1482,3.1482,3.1482,3.1482,3.2287,0.0,0.0,3.4292,0.0,0.0,0.0,0.0,0.0,0.0,3.8242,4.0008,4.2671,4.5723,4.8356,5.102,5.3384,5.4461,5.6256,5.8201,5.9518,5.9877,5.9757,5.9249,5.7034,5.4162,5.096,4.8626,4.6381,4.3838,4.3329,4.3329,4.3329,4.4736,4.6411,4.8027,4.9703,5.2456,5.7244,5.7672,5.8091,5.9543,5.8675,5.724,5.5049,5.4055,5.3316,5.2929,5.2302,5.1674,5.1122,4.9741,4.8636,4.7933,4.7506,4.6979,4.6326,4.5874,4.5598,4.5472,4.4468,4.3915,4.379,4.3237,4.2986,4.2936,4.2384,4.2158,4.2082,4.1103,4.0626,4.0475,4.0049,3.9798,3.9697,3.9697,3.9697,3.9697,0.0,0.0,0.0,0.0,0.0,0.0,0.0,2.5615,2.6542,2.9146,2.9535,3.0043,3.13,3.1452,3.1482,0.0,0.0,0.0,0.0,0.0,0.0,0.0,0.0,0.0,0.0,0.0,0.0,3.1482,3.1541,0.0,0.0,0.0,0.0,0.0,0.0,3.1482,3.1482,3.1482,0.0,0.0,0.0,0.0,0.0,0.0,0.0,0.0,0.0,3.6507,3.7135,4.0247,4.1534,4.2282,4.4915,4.9164,5.3204,5.3324,5.5179,5.7483,5.883,5.9189,5.9189,5.9129,5.6675,5.3593,5.09,4.8297,4.5813,4.3748,4.3329,4.3329,4.3329,4.3958,4.5334,4.7878,4.8925,5.1259,5.6466,5.6456,5.6165,5.7243,5.7673,5.6726,5.3427,5.4433,5.4541,5.3042,5.195,5.1096,5.0519,4.9866,4.9012,4.7933,4.7857,4.7355,4.6326,4.625,4.5974,4.5472,4.4844,4.4292,4.379,4.3237,4.2986,4.2936,4.2384,4.2158,4.2108,4.1505,4.0978,4.0501,4.045,4.0149,3.9697,3.9697,3.9697,3.9697,0.0,0.0,0.0,0.0,0.0,0.0,2.5465,2.5944,2.7021,2.9295,2.9594,3.0073,3.1332,3.1482,3.1482,0.0,0.0,0.0,0.0,0.0,0.0,0.0,0.0,0.0,0.0,0.0,3.1661,3.2108,3.1661,0.0,0.0,0.0,0.0,0.0,0.0,3.1482,3.1482,3.1482,0.0,0.0,0.0,0.0,0.0,0.0,0.0,0.0,0.0,0.0,3.7315,3.902,4.0397,4.1504,4.2132,4.4885,4.8297,5.072,5.3563,5.6316,5.8052,5.9099,5.9518,5.871,5.5718,5.2426,5.0182,4.7309,4.4766,4.3569,4.3329,4.3329,4.3329,4.3539,4.4317,4.6172,4.6381,4.7997,5.2875,5.2163,5.2209,5.4819,5.48,5.4043,5.3053,5.3563,5.3394,5.1975,5.1523,5.0896,4.9967,4.9715,4.9088,4.7933,4.7908,4.738,4.6326,4.6301,4.62,4.5974,4.5422,4.4844,4.4267,4.374,4.3288,4.2961,4.2735,4.266,4.261,4.2057,4.1706,4.148,4.1128,4.0676,4.0199,4.0199,3.9973,3.9697,0.0,0.0,0.0,0.0,0.0,2.4627,2.5465,2.6004,2.7021,2.9026,2.9475,3.0013,3.112,3.1362,3.1482,3.1482,0.0,0.0,0.0,0.0,0.0,0.0,0.0,0.0,0.0,0.0,3.1691,3.2228,3.1958,3.2048,0.0,0.0,3.1839,3.1809,0.0,0.0,0.0,0.0,0.0,0.0,0.0,0.0,0.0,0.0,0.0,0.0,0.0,0.0,0.0,0.0,0.0,4.0457,4.0187,0.0,0.0,4.7668,5.1259,5.4461,5.6436,5.8052,5.8919,5.7812,5.47,5.1409,4.9434,4.6561,4.4137,4.3479,4.3329,4.3329,4.3329,4.3329,4.3688,4.4825,4.4766,4.6022,5.0062,4.945,4.9665,5.2366,5.1761,5.1387,5.1833,5.2528,5.2528,5.1599,5.1373,5.0845,4.9891,4.954,4.8912,4.7933,4.7757,4.723,4.6326,4.6301,4.6301,4.6301,4.5573,4.5095,4.4844,4.3966,4.3438,4.3212,4.3062,4.2986,4.2936,4.2559,4.2308,4.2108,4.1731,4.1153,4.0526,4.0526,4.0174,3.9697,0.0,0.0,0.0,0.0,0.0,0.0,0.0,2.5615,2.6333,2.8338,2.9175,2.9834,3.0432,3.112,3.1482,3.1482,0.0,0.0,0.0,0.0,0.0,0.0,0.0,0.0,0.0,0.0,3.1482,3.1482,3.2198,3.2497,3.2527,3.2497,3.2497,3.2467,0.0,0.0,0.0,0.0,0.0,0.0,0.0,0.0,0.0,0.0,0.0,0.0,0.0,0.0,0.0,0.0,0.0,0.0,0.0,0.0,0.0,0.0,4.8147,5.1708,5.3713,5.5658,5.6974,5.6346,5.3683,5.072,4.8745,4.6232,4.4137,4.3479,4.3329,4.3329,4.3329,4.3329,4.3539,4.4227,4.4855,4.6232,4.8895,4.9274,4.9452,4.9744,4.9158,4.9101,4.9517,5.1624,5.2703,5.2126,5.1599,5.1021,5.0444,4.9364,4.851,4.7933,4.7405,4.6878,4.6326,4.6301,4.6301,4.6301,4.5171,4.492,4.5422,4.374,4.3288,4.3765,4.3212,4.2986,4.2986,4.2961,4.266,4.2158,4.2158,4.148,4.0526,4.0526,4.0174,3.9697,0.0,0.0,0.0,0.0,0.0,0.0,0.0,2.5315,2.6153,2.7709,2.8068,2.8786,3.0342,3.0702,3.1031,3.1422,0.0,0.0,0.0,0.0,0.0,0.0,0.0,0.0,0.0,0.0,3.13,3.2198,3.2407,3.2736,3.3185,3.3185,3.3185,3.3155,3.2497,3.2198,0.0,0.0,0.0,0.0,0.0,0.0,3.5519,0.0,0.0,0.0,0.0,0.0,0.0,0.0,0.0,0.0,0.0,0.0,0.0,4.1504,4.4766,4.8297,5.0301,5.1947,5.2935,5.2276,5.0301,4.8267,4.7189,4.5244,4.3599,4.3389,4.3329,4.3329,4.3329,4.3329,4.3688,4.4796,4.5155,4.5903,4.7668,4.7462,4.7791,4.9693,5.0979,5.1707,5.18,5.2503,5.2553,5.1599,5.1373,5.087,4.9916,4.9163,4.851,4.7933,4.7405,4.6878,4.6326,4.6301,4.6301,4.6301,4.5949,4.5673,4.5447,4.4518,4.3991,4.3765,4.3212,4.2986,4.2986,4.2986,4.2861,4.271,4.271,4.2057,4.1078,4.1078,4.0501,3.9697,0.0,0.0,0.0,0.0,0.0,0.0,0.0,2.4986,2.5704,2.7021,2.746,2.8218,2.9953,3.0372,3.0791,3.1422,0.0,0.0,0.0,0.0,0.0,0.0,0.0,0.0,0.0,3.112,3.142,3.2527,3.2766,3.3095,3.3514,3.3754,3.3724,3.3484,3.3066,3.2886,0.0,0.0,0.0,0.0,0.0,0.0,3.5519,0.0,0.0,0.0,0.0,0.0,0.0,0.0,0.0,0.0,0.0,0.0,0.0,0.0,4.1594,4.4317,4.704,4.8925,5.0032,4.9613,4.8207,4.677,4.6082,4.4586,4.3329,4.3329,4.3329,4.3329,4.3329,4.3329,4.3688,4.4766,4.5125,4.5753,4.713,4.6728,4.6859,4.8444,5.0434,5.1674,5.1674,5.2427,5.2477,5.1373,5.1272,5.0795,4.9665,4.9063,4.851,4.7933,4.7405,4.6979,4.6627,4.6426,4.6301,4.6301,4.61,4.5924,4.5773,4.4769,4.4242,4.4066,4.3313,4.2986,0.0,4.2986,4.2986,4.2986,4.2986,4.2434,4.1656,4.1656,4.1078,4.0275,0.0,0.0,0.0,0.0,0.0,0.0,0.0,0.0,2.497,2.6363,2.7051,2.7979,2.9415,3.0018,3.0675,3.1422,0.0,0.0,0.0,0.0,0.0,0.0,0.0,0.0,0.0,3.1422,3.1809,3.2527,3.3125,3.3484,3.3574,3.4143,3.4143,3.3634,3.3544,3.3514,0.0,0.0,0.0,0.0,0.0,0.0,0.0,0.0,0.0,0.0,0.0,0.0,0.0,0.0,0.0,0.0,0.0,0.0,0.0,0.0,0.0,0.0,0.0,4.6352,4.7848,4.7848,4.698,4.5933,4.5304,4.4197,0.0,4.3329,4.3329,4.3329,4.3389,4.3359,4.3489,4.4154,4.4833,4.5699,4.6899,4.6979,4.6839,4.661,4.8485,4.9791,4.9665,5.1624,5.2477,5.1373,5.1272,5.0795,4.9665,4.9113,4.856,4.7983,4.7456,4.7154,4.7079,4.6577,4.6301,4.6301,4.5799,4.5799,4.62,4.4593,4.4116,4.4518,4.3438,4.2986,4.2986,4.2986,4.2986,4.2986,4.2986,4.2635,4.2158,4.2158,4.1806,4.1254,0.0,0.0,0.0,0.0,0.0,0.0,0.0,0.0,0.0,0.0,2.556,2.6482,2.9271,2.9104,2.9519,0.0,0.0,0.0,0.0,0.0,0.0,0.0,0.0,0.0,0.0,3.1031,3.133,3.2527,3.2677,3.3275,3.4233,3.3873,3.4203,3.4981,3.3963,3.3784,0.0,0.0,0.0,0.0,0.0,0.0,0.0,0.0,0.0,0.0,3.5669,3.6058,0.0,0.0,0.0,0.0,0.0,0.0,0.0,0.0,3.7764,3.8302,4.0277,0.0,4.3748,4.3748,4.3898,4.3988,0.0,0.0,0.0,0.0,0.0,4.3479,4.3988,4.3688,4.3545,4.4297,4.4896,4.5194,4.5016,4.7052,4.8616,4.8838,5.0795,5.1649,5.0343,5.1875,5.2477,5.1373,5.1272,5.0795,4.9665,4.9464,4.9138,4.8586,4.8033,4.733,4.6502,4.6376,4.6301,4.6301,4.6175,4.5974,4.5648,4.4819,4.4267,4.3966,4.3263,4.2986,4.2986,4.2986,4.2986,4.2986,4.2986,4.2635,4.2158,4.2158,4.1806,4.1254,0.0,0.0,0.0,0.0,0.0,0.0,0.0,0.0,0.0,0.0,0.0,0.0,0.0,0.0,0.0,0.0,0.0,0.0,0.0,0.0,0.0,0.0,0.0,0.0,3.1452,3.115,3.148,3.2527,3.2826,3.3185,3.3574,3.4173,3.4472,3.4592,3.4472,0.0,0.0,0.0,0.0,0.0,3.5519,0.0,0.0,0.0,0.0,0.0,3.5519,3.5729,0.0,3.6028,3.6267,3.6537,0.0,0.0,0.0,0.0,3.6746,3.7135,3.7883,3.9738,4.1594,4.2222,4.2851,4.3329,4.3329,0.0,0.0,0.0,0.0,4.3359,4.3419,4.293,4.2831,4.3747,4.3949,4.4322,4.5159,4.6827,4.8444,4.9769,5.1046,5.1724,5.1574,5.2151,5.2201,5.1348,5.1046,5.0519,4.964,4.9364,4.8962,4.8385,4.7832,4.728,4.6702,4.6175,4.6075,4.6301,4.5799,4.5522,4.5472,4.4618,4.4091,4.3765,4.3212,4.2986,4.2986,4.2986,4.2986,4.2986,4.2986,4.2785,4.2509,4.2258,4.1957,4.1605,0.0,0.0,0.0,0.0,0.0,0.0,0.0,0.0,0.0,0.0,0.0,0.0,0.0,0.0,0.0,0.0,0.0,0.0,0.0,0.0,0.0,0.0,0.0,3.0941,3.1452,3.1482,3.1898,3.2647,3.3036,3.3066,3.2856,3.4262,3.4382,3.3544,3.4891,3.5519,0.0,0.0,0.0,0.0,3.5519,0.0,0.0,0.0,0.0,0.0,0.0,0.0,0.0,3.5519,3.5519,3.5519,3.5519,0.0,0.0,0.0,0.0,0.0,3.6686,3.8482,4.0516,4.1624,4.2491,4.303,4.303,0.0,0.0,0.0,0.0,0.0,4.2425,4.2012,4.1965,4.2877,4.274,4.366,4.6626,4.7136,4.7988,5.0147,5.0645,5.1272,5.2427,5.2277,5.1875,5.1322,5.0745,5.0142,4.9515,4.9038,4.846,4.7807,4.7355,4.7104,4.7004,4.5999,4.5723,4.6175,4.5121,4.4844,4.5196,4.4242,4.3765,4.3639,4.3187,4.2986,4.2986,4.2986,4.2986,4.2986,4.2986,4.2936,4.2785,4.2333,4.2108,4.1882,0.0,0.0,0.0,0.0,0.0,0.0,0.0,0.0,0.0,0.0,0.0,0.0,0.0,0.0,0.0,0.0,0.0,0.0,0.0,0.0,0.0,0.0,3.1719,3.1362,3.1482,3.1482,3.2138,3.3335,3.2317,3.2647,3.4143,3.2766,3.2617,3.3544,3.4891,3.5519,3.5519,0.0,0.0,0.0,3.5519,0.0,0.0,0.0,0.0,0.0,0.0,0.0,0.0,3.5519,3.5519,3.5519,3.5519,0.0,0.0,0.0,0.0,0.0,3.7644,3.8811,3.9619,3.9828,4.0786,4.1683,4.1683,0.0,0.0,0.0,0.0,0.0,0.0,4.2045,4.199,4.1329,4.2138,4.4386,4.8773,4.9302,4.9469,5.0293,5.1674,5.2076,5.0921,5.1599,5.1875,5.1322,5.0745,4.9967,4.8962,4.8812,4.8309,4.728,4.7179,4.6903,4.6451,4.5799,4.5522,4.5598,4.4945,4.4418,4.4066,4.389,4.3539,4.3112,4.3011,4.2986,4.2986,4.2986,4.2986,4.2986,4.2986,4.2685,4.2258,4.2183,4.1856,4.1379,0.0,0.0,0.0,0.0,0.0,0.0,0.0,0.0,0.0,0.0,0.0,0.0,0.0,0.0,0.0,0.0,0.0,0.0,0.0,0.0,0.0,3.224,3.1753,3.1482,3.1482,3.1482,3.1839,3.2437,3.2168,3.2347,3.2886,3.2677,3.3095,3.4053,3.507,3.5519,3.5519,0.0,0.0,0.0,0.0,0.0,0.0,0.0,0.0,0.0,0.0,0.0,0.0,0.0,3.5519,3.5519,3.5519,0.0,0.0,0.0,0.0,0.0,3.6596,3.7554,3.8422,3.8781,4.0666,4.2342,0.0,0.0,0.0,0.0,0.0,0.0,0.0,4.1936,4.2378,4.245,4.3533,4.5304,4.8007,4.8306,4.8686,4.9841,5.067,5.1071,5.0896,5.1071,5.1096,5.082,5.0017,4.9314,4.8786,4.8209,4.7657,4.7154,4.6853,4.6426,4.5874,4.5296,4.5171,4.5472,4.4292,4.3765,4.379,4.3489,4.3212,4.2986,4.2986,4.2986,4.2986,4.2986,4.2986,4.2986,4.2986,4.2811,4.2534,4.1932,4.1178,4.0425,0.0,0.0,0.0,0.0,0.0,0.0,0.0,0.0,0.0,0.0,0.0,0.0,0.0,0.0,0.0,0.0,0.0,0.0,0.0,0.0,3.1473,3.2164,3.2048,3.178,3.1482,3.1482,3.1541,3.1691,3.2108,3.2018,3.1511,3.2706,3.3604,3.4292,3.4951,3.534,3.5519,3.5519,3.5519,0.0,0.0,0.0,0.0,0.0,0.0,0.0,0.0,0.0,0.0,0.0,0.0,0.0,0.0,0.0,0.0,3.5519,3.5519,3.5579,3.5878,3.6656,3.7614,3.8422,0.0,0.0,0.0,0.0,0.0,0.0,0.0,0.0,4.1369,4.1599,4.2404,4.3624,4.507,4.6451,4.7556,4.7933,4.8586,4.9841,4.9992,5.0318,5.1197,5.0645,5.0218,5.0218,4.9188,4.851,4.8385,4.7581,4.7079,4.6954,4.6527,4.61,4.5673,4.497,4.4794,4.507,4.3664,4.3212,4.3589,4.3162,4.2986,4.2986,4.2986,4.2986,4.2986,4.2986,4.2986,4.2986,4.2986,4.2811,4.2484,4.1505,4.0526,3.9697,0.0,0.0,0.0,0.0,0.0,0.0,0.0,0.0,0.0,0.0,0.0,0.0,0.0,0.0,0.0,0.0,0.0,0.0,0.0,0.0,3.1439,3.2407,3.3005,3.2766,3.1511,3.1482,3.1839,3.2437,3.1869,3.1511,3.1482,3.2258,3.2946,3.3604,3.4262,3.4921,3.5519,3.5519,3.5519,0.0,0.0,0.0,0.0,0.0,0.0,0.0,0.0,0.0,0.0,0.0,0.0,0.0,0.0,0.0,3.5519,3.5519,3.5519,3.5759,3.6956,3.7345,3.7704,3.902,3.9529,0.0,4.1953,4.288,0.0,4.242,0.0,0.0,0.0,4.0642,4.1947,4.3514,4.6024,4.8134,4.9264,5.0318,5.1021,5.1147,5.1172,5.1197,5.1272,5.0293,4.9665,4.9665,4.8611,4.7757,4.728,4.7179,4.6903,4.6376,4.6326,4.6301,4.625,4.5171,4.4392,4.3915,4.3288,4.3011,4.3037,4.2986,4.2986,4.2986,4.2986,4.2986,4.2986,4.2986,4.2986,4.2986,4.2986,4.2359,4.1379,4.0802,4.0199,3.9697,0.0,0.0,0.0,0.0,0.0,0.0,0.0,0.0,0.0,0.0,0.0,0.0,0.0,0.0,0.0,0.0,0.0,0.0,0.0,0.0,3.0459,3.1562,3.2049,3.2048,3.1482,3.1482,3.1601,3.1898,3.1601,3.1691,3.2168,3.2826,3.3484,3.4143,3.4801,3.525,3.5519,3.5519,3.5519,3.5519,0.0,0.0,0.0,0.0,0.0,0.0,0.0,0.0,0.0,0.0,3.5519,3.5519,3.5519,3.5519,3.5519,3.5519,3.5519,3.5609,3.6088,3.7105,3.8153,3.8661,3.9709,0.0,0.0,4.3778,4.4571,4.4722,4.6575,0.0,0.0,4.3256,4.3413,4.5095,4.738,4.9213,4.9992,5.0795,5.1147,5.0795,5.0745,5.0469,4.9791,4.9339,4.8937,4.8586,4.7857,4.733,4.7154,4.6803,4.6527,4.6326,4.5974,4.5623,4.5271,4.4493,4.384,4.3288,4.3087,4.2986,4.2986,4.2986,4.2986,4.2986,4.2986,4.2986,4.2986,4.2986,4.2986,4.2936,4.261,4.2007,4.1279,4.0727,4.0174,3.9697,0.0,0.0,0.0,0.0,0.0,0.0,0.0,0.0,0.0,0.0,0.0,0.0,0.0,0.0,0.0,0.0,0.0,0.0,2.7397,2.8825,3.0096,3.107,3.1574,3.1839,3.1839,3.1396,3.1219,3.1482,3.1482,3.1691,3.2228,3.2886,3.3425,3.3903,3.4771,3.519,3.519,3.54,3.5519,3.5519,3.5519,3.5519,0.0,0.0,0.0,0.0,0.0,0.0,0.0,0.0,3.5519,3.5519,3.5519,3.5519,3.5519,3.5519,3.5519,3.5424,3.5133,3.6246,3.7545,3.786,0.0,0.0,4.3638,4.5125,4.6207,4.7022,4.7683,4.772,4.6734,4.5043,4.4292,4.5799,4.8058,4.9715,5.0117,5.0645,5.0795,5.0218,5.0167,4.9791,4.8862,4.8611,4.8259,4.7707,4.7179,4.6878,4.6878,4.6351,4.6125,4.6301,4.5598,4.5121,4.4895,4.4166,4.3614,4.3237,4.3062,4.2986,4.2986,4.2986,4.2986,4.2986,4.2986,4.2986,4.2986,4.2986,4.2986,4.2911,4.2359,4.1831,4.1279,4.0727,4.0174,3.9697,0.0,0.0,0.0,0.0,0.0,0.0,0.0,0.0,0.0,0.0,0.0,0.0,0.0,0.0,0.0,0.0,0.0,0.0,2.7092,2.9132,3.0589,3.1195,3.2047,3.2467,3.2527,3.1039,3.0718,3.1482,3.1482,3.1482,3.1511,3.2198,3.2527,3.2587,3.3873,3.4472,3.4502,3.522,3.5489,3.5489,3.5489,3.5489,0.0,0.0,0.0,0.0,0.0,0.0,0.0,0.0,3.5519,3.5519,3.5519,3.5519,3.5519,3.5519,3.5519,3.5294,3.4245,3.4773,3.577,0.0,0.0,0.0,4.4911,4.683,4.7674,4.8963,4.7122,4.582,4.7047,4.5332,4.4166,4.5296,4.7782,4.9565,4.9565,5.0067,5.0193,4.964,4.959,4.9364,4.8812,4.8234,4.7682,4.7154,4.6627,4.6301,4.6301,4.5773,4.5723,4.6276,4.5196,4.4895,4.5472,4.4367,4.379,4.379,4.3237,4.2986,4.2986,4.2986,4.2986,4.2986,4.2986,4.2986,4.2986,4.2961,4.2961,4.2911,4.2359,4.1806,4.1254,4.0701,4.0174,3.9697,0.0,0.0,0.0,0.0,0.0,0.0,0.0,0.0,0.0,0.0,0.0,0.0,0.0,0.0,0.0,0.0,0.0,0.0,2.7092,2.7778,2.9109,3.1309,3.0898,3.1219,3.2437,3.1604,3.0955,3.0658,3.1219,3.1779,3.2228,3.2437,3.2766,3.3245,3.4083,3.4233,3.3814,3.4502,3.4771,3.4771,3.4771,3.507,0.0,0.0,0.0,0.0,0.0,0.0,0.0,0.0,0.0,0.0,3.5519,3.5519,3.5519,3.5519,3.5519,3.5294,3.4245,3.4911,0.0,3.5789,0.0,0.0,0.0,4.4522,0.0,0.0,4.7598,4.5287,4.6223,4.5296,4.4493,4.4819,4.6552,4.7983,4.836,4.8912,4.9038,4.8485,4.8761,4.8661,4.7707,4.7456,4.7129,4.6602,4.605,4.5723,4.5723,4.5196,4.4945,4.5121,4.4418,4.4116,4.4292,4.3589,4.3212,4.3212,4.3062,4.2986,4.2986,4.2986,4.2986,4.2986,4.2986,4.2986,4.2936,4.2559,4.2409,4.2308,4.1379,4.0902,4.0701,4.0149,3.9848,3.9697,0.0,0.0,0.0,0.0,0.0,0.0,0.0,0.0,0.0,0.0,0.0,0.0,0.0,0.0,0.0,0.0,0.0,0.0,0.0,2.7138,2.8256,3.062,3.009,3.0303,3.1406,3.1362,3.1041,3.0329,3.1102,3.1691,3.2138,3.2407,3.2587,3.2766,3.3664,3.3724,3.3155,3.3814,3.4233,3.4472,3.4472,3.4891,3.5519,0.0,0.0,0.0,0.0,0.0,0.0,0.0,0.0,0.0,3.5519,3.5519,3.5424,3.5001,3.4905,3.461,3.3255,3.4084,0.0,3.6003,3.7373,3.9176,4.1599,0.0,0.0,0.0,4.849,4.6183,4.6637,4.55,4.4694,4.492,4.6175,4.7305,4.7832,4.8209,4.8309,4.7958,4.8209,4.8083,4.723,4.7129,4.6803,4.605,4.5673,4.5397,4.5171,4.4618,4.4392,4.4618,4.3865,4.3589,4.379,4.3263,4.2986,4.2986,4.2986,4.2986,4.2986,4.2986,4.2986,4.2961,4.2735,4.266,4.261,4.2057,4.1831,4.1731,4.0852,4.0526,4.045,3.9898,3.9697,3.9697,0.0,0.0,0.0,0.0,0.0,0.0,0.0,0.0,0.0,0.0,0.0,0.0,0.0,0.0,0.0,0.0,0.0,0.0,0.0,0.0,2.7813,2.9475,2.9834,2.9921,2.98,3.0651,3.084,3.0329,3.1102,3.1482,3.1482,3.2138,3.2108,3.1599,3.2856,3.3036,3.2467,3.3125,3.3754,3.4292,3.4292,3.4711,3.534,3.534,0.0,0.0,0.0,0.0,0.0,0.0,0.0,0.0,3.5519,3.5519,3.5294,3.4312,3.4013,3.3602,3.1736,3.267,3.4657,3.6736,3.7638,3.8903,4.2367,4.582,4.898,5.0766,4.9266,4.7529,4.7476,4.5936,4.4844,4.5271,4.6301,4.7179,4.7556,4.7707,4.7732,4.7631,4.7707,4.7556,4.7029,4.6979,4.6577,4.5573,4.5397,4.5095,4.4568,4.4016,4.394,4.4392,4.3413,4.3112,4.3564,4.3087,4.2836,4.2836,4.2836,4.2836,4.2836,4.2936,4.2961,4.2861,4.2308,4.2082,4.2032,4.148,4.1254,4.1204,4.0651,4.045,4.0375,3.9873,3.9697,3.9697,0.0,0.0,0.0,0.0,0.0,0.0,0.0,0.0,0.0,0.0,0.0,0.0,0.0,0.0,0.0,0.0,0.0,0.0,0.0,0.0,2.7092,2.9629,3.0678,3.0692,2.9475,3.0527,3.084,3.0329,3.1102,3.1482,3.1482,3.1631,3.1601,3.1511,3.2377,3.2347,3.1721,3.2437,3.2796,3.2946,3.2946,3.3335,3.3933,3.3933,3.4262,0.0,0.0,0.0,0.0,0.0,0.0,0.0,3.5519,3.5519,3.5294,3.4312,3.4013,3.3687,3.2246,3.2431,3.3436,3.4908,3.7636,4.0335,4.2011,4.3738,4.5236,4.6689,4.6056,4.5196,4.4763,4.5001,4.5045,4.4292,4.5472,4.6225,4.5447,4.61,4.6326,4.5447,4.6125,4.6426,4.5899,4.5849,4.5748,4.5497,4.4669,4.4116,4.3991,4.3463,4.3011,4.271,4.2459,4.2183,4.1882,4.1756,4.1706,4.1706,4.1706,4.1706,4.1731,4.2585,4.2735,4.2308,4.1756,4.1505,4.148,4.0927,4.0701,4.0651,4.0099,3.9873,3.9848,3.9747,3.9697,3.9697,0.0,0.0,0.0,0.0,0.0,0.0,0.0,0.0,0.0,0.0,0.0,0.0,0.0,0.0,0.0,0.0,0.0,0.0,0.0,0.0,2.6595,2.8881,2.9583,2.9954,3.0008,2.9979,3.0249,3.0896,3.0951,3.121,0.0,3.1482,3.1482,3.1482,3.1898,3.1869,3.1511,3.1898,3.2228,3.2527,3.2527,3.2916,3.3484,3.3484,3.3694,3.4053,3.4352,0.0,0.0,0.0,0.0,0.0,0.0,0.0,3.4677,3.4177,3.3671,3.3157,3.2257,3.241,3.3495,3.5697,3.8888,4.1516,4.1663,4.2208,4.2982,4.413,4.4472,4.4468,4.389,4.4493,4.4794,4.394,4.4769,4.5296,4.4694,4.5121,4.5296,4.4694,4.5146,4.5397,4.5095,4.507,4.497,4.4694,4.4141,4.3564,4.3037,4.2735,4.2333,4.1781,4.1756,4.163,4.1329,4.1329,4.1329,4.1329,4.1329,4.1329,4.1354,4.1932,4.2032,4.1731,4.1178,4.0953,4.0902,4.035,4.0124,4.0099,3.9798,3.9697,3.9697,3.9697,3.9697,3.9697,0.0,0.0,0.0,0.0,0.0,0.0,0.0,0.0,0.0,0.0,0.0,0.0,0.0,0.0,0.0,0.0,0.0,0.0,0.0,0.0,0.0,2.8047,2.8197,2.8944,3.0596,2.9498,2.9775,3.1482,3.0851,0.0,0.0,0.0,0.0,3.1482,3.1482,3.1424,3.1278,3.1424,3.1722,3.2139,3.2288,3.2677,3.3155,3.3034,3.3093,3.3395,3.3809,3.3984,3.4193,3.4877,0.0,0.0,0.0,0.0,3.3869,3.3984,3.3325,3.2516,3.2106,3.2787,3.4198,3.7136,3.9953,4.1905,4.1291,4.1279,4.1605,4.2509,4.3413,4.394,4.3589,4.389,4.4016,4.3463,4.3915,4.4292,4.4217,4.4292,4.4342,4.4342,4.4418,4.4493,4.4493,4.4493,4.4242,4.3689,4.3564,4.3087,4.2057,4.2007,4.1756,4.1229,4.1204,4.1153,4.1053,4.1053,4.1053,4.1053,4.1053,4.1053,4.1053,4.1053,4.1103,4.1178,4.0601,4.0375,4.035,3.9873,3.9697,3.9697,3.9697,3.9697,3.9697,3.9697,3.9697,3.9697,0.0,0.0,0.0,0.0,0.0,0.0,0.0,0.0,0.0,0.0,0.0,0.0,0.0,0.0,0.0,0.0,0.0,0.0,2.4104,0.0,0.0,2.8047,2.8574,2.9357,3.0528,2.9937,3.0227,3.1482,0.0,0.0,0.0,0.0,0.0,3.1482,0.0,3.1102,3.051,3.1219,3.1132,3.0655,3.1338,3.1719,3.1662,3.0951,3.1513,3.2527,3.1857,3.1985,3.2564,3.3165,3.253,0.0,0.0,0.0,3.3388,3.3869,3.3325,3.2516,3.2106,3.3553,3.5554,3.6935,3.8995,4.0736,4.0601,4.1003,4.1379,4.153,4.1681,4.1907,4.2308,4.2434,4.2308,4.1756,4.2534,4.3037,4.2559,4.2886,4.3187,4.3187,4.3614,4.3915,4.3915,4.3915,4.3689,4.3137,4.266,4.2108,4.148,4.1455,4.1204,4.0651,4.0626,4.04,3.9923,3.9923,3.9923,3.9923,3.9923,3.9923,3.9923,3.9923,4.0174,4.0601,4.0049,3.9798,3.9798,3.9722,3.9697,3.9697,3.9697,3.9697,3.9697,3.9697,3.9697,3.9697,0.0,0.0,0.0,0.0,0.0,0.0,0.0,0.0,0.0,0.0,0.0,0.0,0.0,0.0,0.0,2.2698,2.3477,2.413,2.4431,2.5134,2.6038,2.7143,2.7419,2.8213,2.958,2.8647,2.8926,3.0432,0.0,0.0,0.0,3.1601,3.1605,0.0,0.0,0.0,0.0,3.0804,3.0896,3.0955,3.0896,3.1102,3.1364,3.0221,3.0424,3.1187,3.0306,0.0,3.1743,3.2371,3.1848,3.1165,3.2939,0.0,0.0,0.0,3.2876,3.2591,3.2644,3.4307,3.6341,3.7404,3.9092,4.044,4.0077,4.0249,4.0501,4.0802,4.0626,4.0676,4.153,4.1706,4.163,4.1379,4.1756,4.1982,4.1731,4.1907,4.2057,4.2057,4.2283,4.2434,4.2434,4.2434,4.2308,4.2082,4.1831,4.1455,4.0902,4.0877,4.0626,4.0074,4.0049,3.9948,3.9697,3.9697,3.9697,3.9697,3.9697,3.9697,3.9697,3.9697,3.9823,4.0049,3.9798,3.9697,3.9697,3.9697,3.9697,3.9697,3.9697,3.9697,3.9697,3.9697,3.9697,3.9697,0.0,0.0,0.0,0.0,0.0,0.0,0.0,0.0,0.0,0.0,0.0,0.0,0.0,0.0,0.0,0.0,2.3301,2.4029,2.4582,2.4607,2.5159,2.6483,2.6533,2.7162,2.8465,2.768,2.7907,0.0,0.0,0.0,3.1721,3.1958,3.2193,0.0,3.2452,0.0,0.0,0.0,0.0,0.0,0.0,0.0,0.0,0.0,0.0,3.0147,2.9101,0.0,0.0,0.0,0.0,3.0533,3.1808,3.1786,0.0,0.0,0.0,3.2307,3.2408,3.4007,3.5859,3.6874,3.8549,3.9814,3.955,3.9597,3.9798,4.0224,3.9973,3.9948,4.0777,4.0927,4.0927,4.0927,4.0927,4.0978,4.1103,4.1128,4.1178,4.1329,4.1329,4.1329,4.1329,4.1329,4.1279,4.1153,4.1128,4.0877,4.035,4.03,4.0124,3.9697,3.9697,3.9697,3.9697,3.9697,3.9697,3.9697,3.9697,3.9697,3.9697,3.9697,3.9697,3.9697,3.9697,3.9697,3.9697,3.9697,3.9697,3.9697,3.9697,3.9697,3.9697,3.9697,3.9697,3.9697,0.0,0.0,0.0,0.0,0.0,0.0,0.0,0.0,0.0,0.0,0.0,0.0,0.0,2.3065,2.3065,2.304,2.309,2.3427,2.4004,2.4029,2.4757,2.6458,2.6533,0.0,2.7736,2.7778,0.0,0.0,0.0,0.0,3.2467,3.3095,3.3613,3.3869,3.263,3.1737,3.1161,0.0,0.0,0.0,0.0,0.0,0.0,0.0,0.0,0.0,0.0,0.0,0.0,0.0,0.0,0.0,0.0,2.9862,3.0284,0.0,0.0,0.0,3.0849,3.1996,3.3507,3.46,3.6483,3.829,3.8793,3.932,3.9697,3.9722,3.9722,3.9722,3.9772,3.9772,3.9772,3.9772,3.9772,3.9973,4.0475,4.0551,4.0752,4.1279,4.1329,4.1329,4.1329,4.1329,4.1128,4.0601,4.0551,4.0325,3.9772,3.9747,3.9722,3.9697,3.9697,3.9697,3.9697,3.9697,3.9697,3.9697,3.9697,3.9697,3.9697,3.9697,3.9697,3.9697,3.9697,3.9697,3.9697,3.9697,3.9697,3.9697,3.9697,3.9697,3.9697,3.9697,3.9697,3.9697,0.0,0.0,0.0,0.0,0.0,0.0,0.0,0.0,0.0,0.0,0.0,0.0,0.0,2.3065,2.3065,2.3065,2.3065,2.3165,2.3427,2.3778,2.4431,2.536,2.5737,2.6374,2.7201,2.7291,0.0,0.0,0.0,2.9295,3.124,3.148,3.2318,3.3701,3.3229,3.2533,3.1737,3.0931,0.0,0.0,0.0,0.0,0.0,0.0,0.0,0.0,0.0,0.0,0.0,0.0,0.0,0.0,0.0,0.0,0.0,0.0,3.0624,3.0394,3.0939,3.2081,3.339,3.4426,3.6197,3.7645,3.7758,3.8216,3.8617,3.8617,3.8617,3.8718,3.9094,3.9446,3.9697,3.9697,3.9697,3.9772,3.9948,3.9998,4.0074,4.0249,4.0275,4.0275,4.0275,4.0275,4.0199,3.9998,3.9998,3.9898,3.9697,3.9697,3.9697,3.9697,3.9697,3.9697,3.9697,3.9697,3.9697,3.9697,3.9697,3.9697,3.9697,3.9697,3.9697,3.9697,3.9697,3.9697,3.9697,3.9697,3.9697,3.9697,3.9697,3.9697,3.9697,3.9697,3.9697,3.9697,0.0,0.0,0.0,0.0,0.0,0.0,0.0,0.0,0.0,0.0,0.0,0.0,0.0,0.0,2.3365,2.3125,2.3065,2.3065,2.3065,2.3502,2.4029,2.4782,2.5159,2.5859,2.6938,0.0,0.0,0.0,0.0,0.0,0.0,3.0402,3.145,3.3155,3.2677,3.2524,0.0,0.0,0.0,3.175,0.0,0.0,3.0831,0.0,0.0,0.0,0.0,0.0,0.0,0.0,0.0,0.0,0.0,0.0,0.0,0.0,0.0,0.0,3.0608,3.1598,3.259,3.3568,3.5021,3.6199,3.6546,3.7061,3.7513,3.7688,3.7739,3.7914,3.8467,3.8894,3.9195,3.9396,3.9245,3.912,3.912,3.9295,3.9421,3.9421,3.9572,3.9697,3.9697,3.9697,3.9697,3.9697,3.9697,3.9697,3.9697,3.9697,3.9697,3.9697,3.9521,3.9421,3.9421,3.9421,3.932,3.912,3.932,3.9421,3.9421,3.9622,3.9697,3.9697,3.9697,3.9697,3.9697,3.9697,3.9697,3.9697,3.9697,3.9697,3.9697,3.9697,3.9697,3.9697,0.0,0.0,0.0,0.0,0.0,0.0,0.0,0.0,0.0,0.0,0.0,0.0,0.0,0.0,0.0,2.3185,2.3065,2.3065,2.3065,2.3065,2.3566,2.4757,2.4808,2.5486,2.6903,0.0,0.0,0.0,0.0,0.0,0.0,0.0,3.118,3.2407,3.1061,3.1569,3.3304,0.0,3.1623,3.2318,0.0,3.072,3.2288,0.0,0.0,0.0,3.0932,3.0932,0.0,2.987,0.0,0.0,0.0,0.0,0.0,0.0,0.0,0.0,0.0,0.0,0.0,3.1913,3.3018,3.4123,3.5228,3.5881,3.6433,3.701,3.7136,3.7287,3.7864,3.7965,3.814,3.8718,3.8366,3.8015,3.8015,3.8492,3.8843,3.8843,3.932,3.9647,3.9647,3.9647,3.9647,3.9672,3.9647,3.9647,3.9672,3.9647,3.9647,3.9647,3.912,3.8843,3.8843,3.8843,3.8567,3.8015,3.8567,3.8843,3.8894,3.9421,3.9672,3.9697,3.9697,3.9697,3.9697,3.9697,3.9697,3.9697,3.9697,3.9697,3.9697,3.9697,3.9697,3.9697,0.0,0.0,0.0,0.0,0.0,0.0,0.0,0.0,0.0,0.0,0.0,0.0,0.0,0.0,2.4015,2.3185,2.3065,2.3065,2.3065,2.3065,2.3452,2.4205,2.5215,2.6136,2.7094,0.0,0.0,0.0,0.0,0.0,0.0,0.0,0.0,0.0,3.0193,3.0402,3.133,3.0834,0.0,3.2378,3.1337,3.1455,0.0,0.0,0.0,0.0,0.0,3.1678,3.235,0.0,3.1594,3.258,0.0,0.0,0.0,0.0,0.0,0.0,2.9227,0.0,0.0,0.0,0.0,0.0,3.3495,3.3872,3.4374,3.573,3.568,3.5805,3.7161,3.7086,3.6985,3.7563,3.7839,3.8015,3.8015,3.814,3.8241,3.8241,3.8391,3.8467,3.8467,3.8467,3.8642,3.9069,3.8718,3.8642,3.9069,3.8693,3.8467,3.8467,3.8316,3.8241,3.8241,3.8241,3.8165,3.8015,3.8165,3.8467,3.8868,3.9019,3.932,3.9697,3.9697,3.9697,3.9697,3.9697,3.9697,3.9697,3.9697,3.9697,3.9697,3.9697,3.9697,3.9697,0.0,0.0,0.0,0.0,0.0,0.0,0.0,0.0,0.0,0.0,0.0,0.0,0.0,0.0,2.3961,2.3502,2.3276,2.3065,2.3065,2.3065,2.3498,2.4448,2.552,2.6715,2.8043,0.0,0.0,0.0,0.0,0.0,0.0,0.0,0.0,0.0,0.0,0.0,0.0,0.0,0.0,0.0,3.1869,0.0,0.0,3.2625,3.2436,0.0,0.0,0.0,3.3782,3.2652,3.2376,0.0,0.0,0.0,0.0,0.0,0.0,0.0,0.0,0.0,0.0,3.0482,0.0,0.0,3.2164,3.2365,3.2717,3.3897,3.3897,3.4048,3.5253,3.5403,3.5504,3.6056,3.6609,3.7061,3.7287,3.7513,3.7663,3.7663,3.7864,3.8015,3.8015,3.8015,3.814,3.8492,3.8191,3.814,3.8492,3.7965,3.7764,3.799,3.7789,3.7663,3.7663,3.7663,3.7538,3.7337,3.7563,3.7965,3.8517,3.8768,3.917,3.9697,3.9697,3.9697,3.9697,3.9697,3.9697,3.9697,3.9697,3.9697,3.9697,3.9697,3.9697,3.9697,0.0,0.0,0.0,0.0,0.0,0.0,0.0,0.0,0.0,0.0,0.0,0.0,0.0,0.0,0.0,0.0,2.3502,2.309,2.3226,2.3115,2.3653,2.4985,2.572,2.7045,2.9058,2.9319,0.0,0.0,0.0,0.0,0.0,0.0,0.0,0.0,0.0,0.0,0.0,0.0,0.0,3.0522,3.1958,3.2946,0.0,0.0,3.4381,3.4245,3.5198,3.5288,3.4929,3.4146,3.297,0.0,0.0,0.0,0.0,0.0,2.9357,0.0,0.0,0.0,0.0,0.0,3.0608,0.0,3.121,3.1311,3.1486,3.2089,3.2164,3.234,3.3043,3.3571,3.4073,3.4625,3.5177,3.573,3.6282,3.6784,3.7086,3.7086,3.7538,3.7814,3.7814,3.7814,3.7839,3.7914,3.7914,3.7889,3.7839,3.7362,3.7312,3.7814,3.7337,3.7086,3.7086,3.7086,3.6835,3.6358,3.686,3.7387,3.7939,3.8517,3.9044,3.9521,3.9647,3.9672,3.9597,3.9672,3.9697,3.9697,3.9697,3.9697,3.9697,3.9697,3.9697,3.9697,0.0,0.0,0.0,0.0,0.0,0.0,0.0,0.0,0.0,0.0,0.0,0.0,0.0,0.0,0.0,0.0,2.3728,2.3326,2.3803,2.3401,2.3535,2.4405,2.5697,2.6832,2.7821,2.9454,2.9759,0.0,0.0,0.0,0.0,0.0,0.0,0.0,0.0,0.0,0.0,0.0,0.0,2.9924,3.1779,3.3215,3.4292,3.4412,3.4763,3.5198,3.5424,3.5448,3.5149,3.3422,3.2861,3.2815,0.0,0.0,0.0,3.1101,0.0,0.0,0.0,0.0,0.0,0.0,3.0608,0.0,3.0834,3.0758,3.1035,3.2014,3.1863,3.1989,3.347,3.3822,3.4073,3.4625,3.5177,3.573,3.6282,3.6458,3.6533,3.6533,3.6609,3.6684,3.6684,3.6684,3.686,3.7312,3.7337,3.7161,3.6709,3.6584,3.6584,3.6684,3.6584,3.6533,3.6533,3.6533,3.6458,3.6358,3.6458,3.681,3.7362,3.7914,3.8241,3.8391,3.9295,3.9446,3.9069,3.9521,3.9697,3.9697,3.9697,3.9697,3.9697,3.9697,3.9697,3.9697,0.0,0.0,0.0,0.0,0.0,0.0,0.0,0.0,0.0,0.0,0.0,0.0,0.0,0.0,0.0,0.0,0.0,0.0,0.0,0.0,2.4976,2.5356,2.6386,2.7281,2.8018,2.9372,2.9564,2.8607,2.8936,0.0,0.0,0.0,0.0,0.0,0.0,0.0,0.0,0.0,2.9594,2.9744,3.1719,0.0,3.4023,3.4352,3.4891,3.5519,3.5519,3.5519,3.5419,3.4787,3.467,0.0,3.326,3.2443,3.1766,0.0,3.0477,2.9729,0.0,0.0,0.0,3.0206,0.0,0.0,0.0,3.0407,3.0432,3.126,3.0984,3.0934,3.2064,3.2265,3.2516,3.3345,3.3947,3.46,3.5429,3.6006,3.6358,3.6358,3.6358,3.6358,3.6358,3.6358,3.6483,3.6759,3.6784,3.6659,3.6383,3.6358,3.6358,3.6358,3.6358,3.6358,3.6358,3.6358,3.6358,3.6358,3.6358,3.6659,3.7186,3.7462,3.7739,3.8065,3.8919,3.912,3.8919,3.9471,3.9697,3.9697,3.9697,3.9697,3.9697,3.9697,3.9697,3.9697,0.0,0.0,0.0,0.0,0.0,0.0,0.0,0.0,0.0,0.0,0.0,0.0,0.0,0.0,0.0,0.0,0.0,0.0,0.0,0.0,0.0,2.6472,2.6985,2.7652,2.8397,2.9056,2.9056,2.8397,2.8547,2.8248,0.0,0.0,0.0,0.0,0.0,0.0,0.0,0.0,0.0,2.9924,0.0,3.2826,3.3395,3.4173,3.4831,3.531,3.5459,3.5519,3.5579,3.5889,3.5933,3.5457,3.3715,3.3003,0.0,0.0,0.0,0.0,0.0,0.0,0.0,0.0,0.0,3.0281,0.0,0.0,0.0,3.0382,3.0105,2.9955,3.0507,3.0608,3.0934,3.1888,3.2641,3.3395,3.4274,3.5353,3.6081,3.6182,3.6107,3.6081,3.6182,3.6107,3.6081,3.6207,3.6207,3.6257,3.6358,3.6358,3.6358,3.6358,3.6358,3.6358,3.6358,3.6358,3.6358,3.6358,3.6358,3.6584,3.7036,3.7136,3.7362,3.7739,3.8417,3.8718,3.8743,3.9195,3.9496,3.9697,3.9697,3.9697,3.9697,3.9697,3.9697,3.9697,2.5385,2.6336,0.0,0.0,0.0,0.0,0.0,0.0,0.0,3.1452,0.0,0.0,0.0,0.0,0.0,0.0,0.0,0.0,2.7589,0.0,0.0,0.0,2.6582,0.0,2.7679,2.8368,2.8368,2.7679,2.8308,2.8248,2.761,0.0,0.0,0.0,2.761,0.0,0.0,0.0,2.9894,0.0,3.1958,3.2557,0.0,3.3993,3.4532,3.4681,3.528,3.5519,3.5389,3.4563,3.3716,3.3071,0.0,3.1889,3.0548,3.2045,0.0,0.0,0.0,0.0,0.0,0.0,3.1286,3.1587,3.0206,0.0,3.0407,2.998,0.0,2.9955,3.0507,0.0,0.0,3.1386,3.239,3.3119,3.3244,3.4223,3.5102,3.5579,3.5203,3.5102,3.5579,3.5203,3.5102,3.5604,3.5629,3.5855,3.6332,3.6358,3.6358,3.6358,3.6358,3.6358,3.6358,3.6358,3.6358,3.6358,3.6358,3.6383,3.6458,3.696,3.696,3.6609,3.7638,3.809,3.8115,3.8165,3.8793,3.9697,3.9697,3.9697,3.9697,3.9697,3.9697,3.9697,0.0,0.0,0.0,0.0,2.9344,0.0,0.0,0.0,3.2108,3.2108,0.0,0.0,0.0,0.0,0.0,0.0,0.0,2.7227,0.0,0.0,0.0,0.0,0.0,0.0,0.0,2.7859,2.7859,2.761,2.7859,2.7859,2.761,2.761,0.0,0.0,2.761,0.0,2.8637,0.0,2.9953,0.0,3.1958,3.2527,3.2647,3.3963,3.4711,3.513,3.54,3.5519,3.5424,3.4971,3.4506,3.3903,3.3151,0.0,0.0,3.1575,0.0,0.0,0.0,0.0,0.0,0.0,3.1185,3.111,3.0432,3.0206,3.0156,3.0256,0.0,0.0,0.0,0.0,0.0,0.0,3.1336,3.1763,3.2064,3.2491,3.337,3.4876,3.4876,3.47,3.46,3.4374,3.4349,3.4575,3.4876,3.5303,3.5855,3.5881,3.6031,3.6358,3.6358,3.6358,3.6358,3.6358,3.6358,3.6358,3.6358,3.6358,3.6358,3.6609,3.6584,3.6408,3.7186,3.7713,3.804,3.8366,3.8969,3.9697,3.9697,3.9697,3.9697,3.9697,3.9697,3.9697,0.0,0.0,0.0,0.0,0.0,0.0,0.0,0.0,0.0,0.0,0.0,0.0,3.3425,3.1836,0.0,0.0,3.0219,2.9407,0.0,0.0,2.9295,0.0,0.0,0.0,0.0,0.0,2.7769,2.761,2.761,2.761,2.761,0.0,0.0,0.0,0.0,2.8248,2.8936,0.0,3.0492,3.118,3.2527,3.3155,3.3425,3.4173,3.4891,3.5519,3.5519,3.5519,3.5519,3.5519,3.5163,3.4507,3.3211,3.2705,3.2279,0.0,0.0,0.0,3.1562,3.1738,3.1788,3.1461,3.111,3.0758,3.0457,3.0206,3.0131,3.0532,3.0407,0.0,0.0,0.0,3.0306,3.0583,0.0,3.0909,3.1135,3.1311,3.2114,3.4048,3.4399,3.4274,3.3721,3.3796,3.3847,3.3696,3.4198,3.4675,3.5077,3.5102,3.5353,3.5906,3.6056,3.6132,3.6132,3.6282,3.6358,3.6358,3.6358,3.6358,3.6358,3.6358,3.6358,3.6383,3.6784,3.7287,3.7814,3.8241,3.8818,3.9471,3.9471,3.9572,3.9697,3.9697,3.9697,3.9697,2.5382,2.6551,0.0,0.0,0.0,0.0,0.0,0.0,0.0,0.0,0.0,0.0,0.0,0.0,0.0,0.0,0.0,3.0221,3.2258,0.0,2.9295,0.0,0.0,2.8936,0.0,0.0,0.0,2.761,0.0,2.761,2.761,0.0,0.0,0.0,2.8278,2.8936,2.9624,3.0941,3.178,3.2557,3.3873,3.4801,3.534,3.4711,3.4891,3.5519,3.5519,3.5519,3.5519,3.5519,3.4868,3.3951,3.3501,3.2361,3.1307,3.1356,3.1386,3.1512,3.2039,3.2591,3.2767,3.1662,3.1386,3.1085,3.0055,3.0206,3.0583,3.0608,3.1009,3.1336,3.1361,3.1361,3.1185,0.0,3.1035,0.0,0.0,3.106,3.1813,3.2993,3.3596,3.3696,3.3169,3.3596,3.3671,3.3144,3.3621,3.3922,3.3947,3.3947,3.4198,3.4751,3.5303,3.5579,3.5579,3.6107,3.6358,3.6358,3.6358,3.6358,3.6358,3.6358,3.6358,3.6358,3.6383,3.6709,3.7211,3.7236,3.7889,3.8894,3.8894,3.922,3.9697,3.9697,3.9697,3.9697,0.0,0.0,0.0,0.0,0.0,0.0,0.0,3.127,0.0,0.0,0.0,0.0,0.0,3.4907,3.4396,0.0,0.0,3.2406,3.3125,3.1719,0.0,0.0,0.0,2.9774,0.0,0.0,0.0,0.0,0.0,0.0,0.0,0.0,0.0,0.0,0.0,2.8966,0.0,0.0,0.0,3.2617,3.3933,3.4891,3.5489,3.525,3.531,3.5519,3.5519,3.5519,3.5519,3.5519,3.4409,3.3073,3.2913,3.2155,3.1286,3.0939,3.1662,3.2466,3.2265,3.2641,3.2893,3.2139,3.1662,3.121,3.0507,3.0482,3.0507,3.0156,3.0783,3.1286,3.0934,3.116,3.1336,0.0,0.0,3.121,0.0,3.0758,3.1009,3.1411,3.1913,3.2315,3.2491,3.234,3.2164,3.1964,3.2139,3.239,3.2767,3.3144,3.3621,3.4148,3.4726,3.5177,3.5554,3.573,3.6006,3.6358,3.6358,3.6358,3.6358,3.6358,3.6358,3.6358,3.6358,3.6684,3.7186,3.7186,3.7839,3.8868,3.8868,3.922,3.9697,3.9697,3.9697,3.9697,2.7889,0.0,0.0,0.0,0.0,0.0,0.0,0.0,0.0,0.0,3.4891,0.0,3.7255,0.0,3.5848,0.0,3.4861,3.3993,3.3514,3.2916,0.0,3.1511,3.133,0.0,0.0,0.0,0.0,0.0,0.0,2.9175,0.0,0.0,0.0,0.0,0.0,2.9175,2.9684,3.124,3.2258,3.2976,3.4322,3.51,3.5519,3.5519,3.5519,3.5519,3.5519,3.5519,3.5519,3.5519,3.4706,3.3533,3.2806,3.2401,3.194,3.0947,3.1637,3.2692,3.2315,3.2641,3.2943,3.2365,3.1938,3.1486,3.0783,3.0758,3.0783,3.0432,3.0909,3.1411,3.1486,3.1436,3.1386,0.0,0.0,3.0934,0.0,3.0331,3.0407,3.0583,3.1235,3.1738,3.1913,3.1964,3.1738,3.116,3.1286,3.1537,3.1913,3.2265,3.2817,3.3596,3.4148,3.47,3.5253,3.5454,3.5805,3.6358,3.6358,3.6358,3.6358,3.6358,3.6358,3.6358,3.6358,3.6558,3.691,3.7111,3.7739,3.8592,3.8793,3.922,3.9697,3.9697,3.9697,3.9697,0.0,0.0,0.0,0.0,2.9235,0.0,0.0,0.0,3.3036,0.0,3.5699,3.6776,3.7434,3.6956,3.6567,3.6567,3.5938,3.5011,3.3724,3.4173,0.0,0.0,3.2258,3.1958,3.0642,0.0,0.0,0.0,0.0,0.0,0.0,0.0,0.0,0.0,2.9295,0.0,2.9714,3.1689,3.2916,3.3664,3.4981,3.5519,3.5519,3.5519,3.5519,3.5519,3.5519,3.5519,3.5519,3.5519,3.5424,3.5067,3.3255,3.2963,3.3043,3.1188,3.1386,3.224,3.2215,3.2641,3.2943,3.239,3.224,3.1938,3.0934,3.1085,3.1411,3.1411,3.1411,3.1738,3.2792,3.2114,3.1386,3.1386,3.0959,3.0432,2.9905,2.9804,2.998,3.0507,3.1486,3.1938,3.1436,3.234,3.2315,3.0733,3.106,3.1336,3.1311,3.1386,3.1913,3.2968,3.3545,3.4148,3.4726,3.5253,3.5805,3.6358,3.6358,3.6358,3.6358,3.6358,3.6358,3.6358,3.6358,3.6358,3.6408,3.6935,3.7487,3.8065,3.8592,3.9145,3.9647,3.9697,3.9697,3.9697,2.9351,3.0112,3.0791,0.0,3.0492,3.0672,3.1809,0.0,0.0,0.0,3.6357,3.7614,3.8781,3.8302,3.7913,3.7913,3.6866,0.0,0.0,0.0,0.0,3.3754,3.3425,3.2856,3.2018,3.2168,0.0,3.0253,0.0,0.0,3.0253,0.0,0.0,0.0,0.0,2.9594,2.9714,3.1689,3.3185,3.4292,3.516,3.5519,3.5519,3.5519,3.5519,3.5519,3.5519,3.5519,3.5519,3.5519,3.4971,3.4312,3.3808,3.3311,3.2824,3.1888,3.2184,3.2767,3.234,3.2641,3.3043,3.2893,3.2541,3.2139,3.1863,3.1913,3.1888,3.1461,3.1712,3.1964,3.1838,3.1587,3.1386,3.1386,3.0959,3.0557,3.0432,3.0055,2.9854,2.998,3.0608,3.111,3.1361,3.1311,3.106,3.0658,3.0733,3.0633,3.0231,3.1336,3.1938,3.1838,3.2767,3.3746,3.4726,3.4876,3.5403,3.6358,3.6358,3.6358,3.6358,3.6358,3.6358,3.6358,3.6358,3.6358,3.6358,3.6508,3.7136,3.799,3.7713,3.8216,3.912,3.9546,3.9697,3.9647,3.0432,0.0,0.0,3.2347,0.0,3.2497,3.3245,3.3694,0.0,3.537,3.6626,0.0,3.8452,3.8452,3.8392,3.8392,3.7225,0.0,3.6088,0.0,0.0,3.4472,3.4113,3.3604,3.2946,3.2946,0.0,3.0941,0.0,0.0,3.0941,0.0,0.0,0.0,0.0,2.9983,3.0103,3.2108,3.3544,3.4502,3.4891,3.525,0.0,3.5519,3.5519,3.5519,3.5519,3.5519,3.5519,3.5519,3.5133,3.461,3.4177,3.41,3.3984,3.3252,3.3409,3.3733,3.3399,3.3216,3.3068,3.3068,3.2842,3.2516,3.2265,3.2215,3.2114,3.1813,3.1813,3.1838,3.1763,3.1361,3.0959,3.0733,3.0457,3.0256,0.0,2.998,2.9804,2.9804,3.0055,3.0382,3.0658,3.0658,3.0507,3.0281,3.0683,3.0708,3.0181,3.1712,3.234,3.1763,3.2842,3.3746,3.4349,3.4851,3.5403,3.6006,3.6232,3.6358,3.6358,3.6358,3.6358,3.6358,3.6358,3.6358,3.6358,3.6358,3.686,3.7663,3.7839,3.8467,3.9245,3.932,3.9496,3.9647,3.1539,0.0,0.0,0.0,0.0,3.4681,3.4831,3.4861,3.507,3.5669,3.6866,3.7674,3.7674,3.8182,3.8482,3.8392,3.7285,3.6327,3.5669,3.5549,3.525,3.4651,3.4622,3.4292,3.3634,3.3544,3.2886,0.0,0.0,0.0,3.139,0.0,0.0,0.0,3.0223,3.0552,3.0761,3.2766,3.3903,3.4352,3.4532,3.4981,3.5519,3.5519,3.5519,3.5519,3.5519,3.5519,3.5519,3.5519,3.5519,3.5359,3.4476,3.4975,3.5726,3.4864,3.4679,3.4677,3.4677,3.3953,3.3068,3.3068,3.3068,3.2943,3.2441,3.2265,3.224,3.2315,3.1838,3.1562,3.2114,3.1336,3.0432,2.988,2.9804,2.9804,2.9804,0.0,0.0,0.0,2.9804,0.0,2.9804,3.0231,3.0306,2.9829,3.0733,3.106,3.0532,3.1989,3.2616,3.2114,3.3119,3.3771,3.3997,3.4876,3.5429,3.5655,3.6056,3.6282,3.6358,3.6358,3.6358,3.6358,3.6358,3.6358,3.6358,3.6358,3.6684,3.7287,3.8341,3.9094,3.9521,3.9044,3.922,3.9672,3.2317,0.0,0.0,0.0,0.0,3.5669,3.6746,3.6896,3.6926,3.7075,3.8242,3.908,3.908,3.917,3.902,3.8452,3.7674,0.0,0.0,0.0,0.0,3.534,3.531,3.5011,3.4322,3.3784,3.3125,0.0,0.0,0.0,3.0672,3.0552,3.0163,2.9594,3.0223,3.0821,3.148,3.3455,3.4053,3.3754,3.4891,3.54,3.5519,3.5519,3.5519,3.5519,3.5519,3.5519,3.5519,3.5519,3.5519,3.5424,3.5294,3.5517,3.587,3.5726,3.5223,3.4677,3.4677,3.3953,3.3068,3.3068,3.3068,3.3043,3.2943,3.2566,3.234,3.2817,3.2114,3.1562,3.2114,3.1336,3.0432,2.988,2.9804,2.9804,2.9804,2.9804,0.0,0.0,2.9804,2.9804,2.9804,2.988,2.9905,2.9804,3.0382,3.0507,2.9955,3.106,3.1637,3.1537,3.2164,3.3169,3.4575,3.4324,3.4876,3.6207,3.5855,3.5931,3.6358,3.6358,3.6358,3.6358,3.6358,3.6358,3.6358,3.6358,3.6684,3.7236,3.7914,3.8517,3.8994,3.8894,3.922,3.9572,0.0,0.0,0.0,0.0,3.537,3.6327,3.7255,3.8003,3.8212,3.7494,3.7973,3.8362,3.8362,3.8691,3.8751,3.8422,3.7494,3.6806,3.6507,3.5878,3.5519,3.5519,3.5519,3.519,3.4472,3.3814,3.3335,3.3036,3.2018,3.1302,3.1031,3.1031,3.0522,2.9624,3.0612,3.142,3.2108,3.3425,3.3993,3.4053,3.4711,3.519,3.5519,3.5519,3.5519,3.5519,3.5519,3.5519,3.5519,3.5519,3.5519,3.5519,3.5519,3.5815,3.627,3.6593,3.6282,3.5691,3.5246,3.4521,3.3707,3.2861,3.2842,3.3068,3.3068,3.2867,3.2641,3.2641,3.219,3.1738,3.1436,3.0733,3.0105,2.9829,2.9804,2.9804,2.9804,2.9804,2.9804,0.0,0.0,0.0,2.9804,2.9804,2.9804,2.9804,3.0809,3.0959,2.9854,3.1361,3.1989,3.1411,3.2215,3.3043,3.3847,3.4449,3.5002,3.5504,3.583,3.6107,3.6358,3.6358,3.6358,3.6358,3.6358,3.6358,3.6358,3.6358,3.6684,3.7236,3.7789,3.8366,3.8868,3.8868,3.922,3.9622,0.0,3.4173,0.0,0.0,3.6148,3.6896,3.7524,3.8631,3.905,3.7973,3.7823,3.7764,3.7644,3.8093,3.8272,3.8003,3.7075,3.6417,3.6297,3.5789,3.5519,3.5519,3.5519,3.525,3.4711,3.3903,3.3484,3.3484,3.2317,3.1541,3.133,3.1541,3.112,3.0043,3.136,3.2168,3.2557,3.3365,3.3993,3.4472,3.4651,3.5011,3.5519,3.5519,3.5519,3.5519,3.5519,3.5519,3.5424,3.5264,3.5359,3.5424,3.5001,3.5511,3.623,3.6615,3.649,3.5986,3.525,3.4607,3.3866,3.2415,3.239,3.2742,3.2867,3.2792,3.2616,3.229,3.2215,3.1888,3.0809,3.0357,3.0055,2.9829,2.9804,2.9804,2.9804,2.9804,2.9804,0.0,0.0,0.0,2.9804,2.9804,2.9804,2.9804,3.0984,3.1135,2.9854,3.1537,3.219,3.1411,3.2365,3.3018,3.3244,3.4424,3.4977,3.4901,3.5529,3.6031,3.6358,3.6232,3.6257,3.6358,3.6358,3.6358,3.6358,3.6358,3.6684,3.7236,3.7663,3.8266,3.8868,3.8868,3.922,3.9697,0.0,0.0,3.534,3.5489,3.6507,3.7554,3.8182,3.8931,3.9379,3.926,3.923,3.899,3.8362,3.8362,3.7913,3.6776,3.6567,3.6237,3.5639,3.5549,3.5519,3.5519,3.5519,3.5459,3.54,3.4143,3.3484,3.3484,3.2766,3.1809,3.0642,3.1839,3.2048,3.1362,3.2736,3.3006,3.2587,3.3844,3.4412,3.4532,3.516,3.5459,3.5519,3.5519,3.5519,3.5519,3.5519,3.5519,3.5359,3.4476,3.4773,3.5198,3.3394,3.3889,3.5078,3.4741,3.4372,3.4073,3.3993,3.3183,3.2331,3.1612,3.1512,3.1687,3.219,3.1913,3.1662,3.2114,3.2215,3.1888,3.0809,3.0959,3.0909,2.9955,2.9804,2.9804,2.9804,2.9804,2.9804,2.9804,0.0,0.0,2.9804,2.9804,2.9804,2.9804,2.993,2.9955,2.9804,3.0457,3.1009,3.1386,3.1989,3.2792,3.3822,3.347,3.4022,3.5454,3.455,3.4901,3.6332,3.5855,3.5881,3.6358,3.6358,3.6358,3.6358,3.6358,3.6684,3.7186,3.7236,3.7914,3.8868,3.8868,3.922,3.9697,3.5669,3.5908,3.6327,3.7105,3.7345,3.7764,3.8841,3.923,3.926,3.8841,3.8811,3.8691,3.8422,3.7704,3.7045,3.6537,3.6118,3.5789,3.5519,3.5519,3.5519,3.5519,3.5519,3.5519,3.5519,3.4562,3.4292,3.4711,3.3634,3.2826,3.2287,3.2437,3.2377,3.2138,3.2677,3.2976,3.3155,3.4083,3.4472,3.4532,3.522,3.5519,3.5519,3.5519,3.5519,3.5519,3.5519,3.5519,3.5359,3.4312,3.4677,3.5133,3.3185,3.3396,3.4295,3.3963,3.4053,3.4005,3.3063,3.3013,3.2787,3.1297,3.116,3.1461,3.1662,3.1813,3.1763,3.1336,3.0984,3.0633,3.0206,3.0306,3.0281,2.9854,2.9804,2.9804,2.9804,2.9804,2.9804,2.9804,0.0,2.9804,2.9804,2.9804,2.993,3.0256,3.0281,3.0281,3.0281,3.0482,3.1009,3.1863,3.1788,3.2265,3.3395,3.352,3.4073,3.5052,3.4926,3.5403,3.6358,3.6132,3.6157,3.6358,3.6358,3.6358,3.6358,3.6358,3.6483,3.6734,3.7061,3.7462,3.7889,3.8241,3.8718,3.9195,3.6447,3.6626,3.7105,3.8212,3.8182,3.8332,3.929,3.9409,3.917,3.8482,3.8212,3.8033,3.7853,3.7015,3.6417,3.6207,3.5759,3.5519,3.5519,3.5519,3.5519,3.5519,3.5519,3.5519,3.5519,3.4831,3.4584,3.4801,3.3854,3.3291,3.3084,3.3093,3.2886,3.2527,3.2916,3.3245,3.3544,3.4203,3.4592,3.4831,3.531,3.5519,3.5519,3.5519,3.5519,3.5519,3.5519,3.5519,3.5359,3.4312,3.4677,3.5133,3.2904,3.2664,3.3157,3.2826,3.3122,3.3242,3.2095,3.2411,3.2613,3.0792,3.0658,3.0959,3.1135,3.1461,3.1537,3.0783,3.0306,2.998,2.9829,2.993,2.998,2.9829,2.9804,2.9804,2.9804,2.9804,2.9804,2.9804,2.9804,2.9804,2.9804,2.9804,2.9955,3.0357,3.0382,3.0432,3.0608,3.0608,3.1035,3.1938,3.1763,3.2164,3.3294,3.3696,3.4248,3.4977,3.5203,3.568,3.6358,3.6358,3.6358,3.6358,3.6358,3.6358,3.6358,3.6358,3.6358,3.6408,3.696,3.7186,3.7287,3.799,3.8517,3.8894,3.6357,3.6985,3.7614,3.8272,3.896,3.9409,3.9409,3.9409,3.917,3.8482,3.7823,3.7195,3.6567,3.6507,3.6237,3.5579,3.5519,3.5519,3.5519,3.5519,3.5519,3.5519,3.5519,3.5519,3.5519,3.4831,3.4061,3.3149,3.312,3.2803,3.2141,3.3735,3.3754,3.2587,3.3873,3.4083,3.3544,3.4203,3.4861,3.5489,3.5519,3.5519,3.5519,3.5519,3.5519,3.5519,3.5519,3.5519,3.5359,3.4312,3.4677,3.5001,3.2119,3.1241,3.1149,3.0722,3.0984,3.1342,3.0758,3.1009,3.1135,3.008,2.9804,2.9955,3.0507,3.0633,3.0633,3.0608,3.0608,3.0432,2.9905,3.0231,3.0432,2.988,2.9804,2.9804,2.9804,2.9804,2.9804,2.9804,2.9804,2.9804,2.9804,2.9804,2.9804,2.9804,2.9804,3.003,3.0583,3.0608,3.0859,3.1386,3.1913,3.2742,3.3872,3.3897,3.4449,3.5437,3.4977,3.5303,3.6358,3.6358,3.6358,3.6358,3.6358,3.6358,3.6358,3.6358,3.6358,3.6408,3.696,3.7186,3.7312,3.8442,3.8868,3.8944,3.7075,3.8003,3.8841,3.905,3.926,3.9409,3.9409,3.902,3.8482,3.7823,3.7165,3.6537,3.5878,3.5818,3.5729,3.5519,3.5519,3.5519,3.5519,3.5519,3.5519,3.5519,3.4839,3.4476,3.4476,3.3607,3.3014,3.2765,3.3386,3.3703,3.3765,3.4226,3.4262,3.3873,3.4292,3.4622,3.4891,3.51,3.531,3.5519,3.5519,3.5519,3.5519,3.5519,3.5519,3.5519,3.5519,3.5519,3.5424,3.5133,3.4341,3.3325,3.2451,3.2164,3.1856,3.0497,3.0432,3.0733,3.0206,3.0457,3.0683,2.998,2.9804,2.9829,3.0005,3.0055,3.0156,3.0532,3.0306,3.0005,2.9829,3.0256,3.0432,2.988,3.0105,3.0231,2.9854,2.9804,2.9804,2.9804,2.9804,2.9804,2.9804,2.9804,2.9955,3.0331,3.0357,3.0432,3.0608,3.0608,3.1035,3.1913,3.2491,3.3144,3.3897,3.4274,3.4826,3.5554,3.5378,3.5655,3.6358,3.6358,3.6358,3.6358,3.6358,3.6358,3.6358,3.6358,3.6358,3.6408,3.696,3.7186,3.7287,3.8015,3.8291,3.8366,3.7315,3.8093,3.8841,3.932,3.9409,3.932,3.908,3.8661,3.8063,3.7195,3.6716,3.6237,3.5579,3.5519,3.5519,3.5519,3.5519,3.5519,3.5519,3.5519,3.5359,3.4971,3.4312,3.3808,3.3463,3.2876,3.2341,3.1792,3.2681,3.3581,3.4351,3.4703,3.4711,3.4472,3.4472,3.4592,3.4771,3.5011,3.513,3.513,3.54,3.5519,3.5519,3.5519,3.5519,3.5519,3.5519,3.5519,3.5519,3.5519,3.4409,3.3017,3.2735,3.2379,3.1756,3.0216,3.0181,3.0482,2.9955,3.0206,3.0532,3.0181,2.9955,2.9804,2.9804,2.9955,3.0131,3.0281,3.0206,3.0105,3.0105,3.0382,3.0557,3.0407,3.0507,3.0482,3.0156,2.993,2.9804,2.9804,2.9804,2.9804,2.9804,2.998,3.0156,3.0306,3.0683,3.0809,3.0633,3.0809,3.1311,3.219,3.2767,3.3545,3.45,3.4851,3.5027,3.508,3.508,3.5536,3.6358,3.6358,3.6358,3.6358,3.6358,3.6358,3.6383,3.6584,3.6684,3.6759,3.7513,3.7563,3.7287,3.804,3.8065,3.7789,3.7165,3.7494,3.7943,3.92,3.9379,3.914,3.8482,3.8302,3.7823,3.6656,3.6447,3.6178,3.5579,3.5519,3.5519,3.5519,3.5519,3.5519,3.5519,3.5519,3.5067,3.4177,3.3945,3.3533,3.2593,3.2522,3.1918,3.0618,3.1459,3.2635,3.4109,3.5067,3.516,3.4532,3.4532,3.4173,3.3604,3.4233,3.4472,3.4532,3.519,3.5459,3.5519,3.5519,3.5519,3.5519,3.5519,3.5519,3.5519,3.5519,3.4773,3.3739,3.2876,3.1901,3.0895,3.0088,3.0156,3.0457,2.993,3.0156,3.0557,3.0608,3.0231,2.9854,2.9804,3.0206,3.0457,2.9955,3.0281,3.0658,3.0658,3.0708,3.0859,3.1311,3.0984,3.0658,3.0633,3.0131,2.9804,2.9804,2.9829,2.9854,2.9854,3.0306,3.0407,2.9955,3.0834,3.1185,3.0683,3.1235,3.1788,3.2265,3.2918,3.3997,3.5529,3.5487,3.508,3.4385,3.4483,3.5187,3.6358,3.6358,3.6358,3.6358,3.6358,3.6358,3.6408,3.691,3.7161,3.7287,3.8391,3.8165,3.7387,3.8467,3.8165,3.7262,3.7345,3.8242,3.905,3.9349,3.899,3.8571,3.8422,3.7554,3.6836,3.6537,3.6058,3.5669,3.5519,3.5519,3.5519,3.5519,3.5519,3.5519,3.5519,3.5519,3.5359,3.5133,3.3739,3.2806,3.2593,3.1901,3.2037,3.3168,3.2919,3.3599,3.5133,3.5359,3.5429,3.525,3.525,3.4891,3.4262,3.4412,3.4472,3.4472,3.4651,3.504,3.5519,3.5519,3.5519,3.5519,3.5519,3.5519,3.5519,3.5519,3.4341,3.2876,3.2664,3.1489,3.0062,2.9856,2.988,2.9955,2.9829,2.988,3.008,3.0507,3.0507,3.0306,2.988,3.0206,3.0583,3.0457,3.0834,3.121,3.121,3.1562,3.1738,3.1436,3.1286,3.106,3.0658,3.0131,2.9804,2.9804,3.0156,3.0407,3.0407,3.0532,3.0733,3.0984,3.126,3.1336,3.121,3.2541,3.3169,3.2893,3.4223,3.5152,3.5554,3.4988,3.4558,3.4385,3.5475,3.6073,3.6358,3.6358,3.6358,3.6358,3.6358,3.6358,3.6358,3.6508,3.681,3.7262,3.7939,3.804,3.7889,3.8617,3.8165,3.7262,3.7285,3.8003,3.8601,3.8901,3.8631,3.8182,3.7614,3.6926,3.6387,3.6088,3.5729,3.5519,3.5519,3.5519,3.5519,3.5519,3.5519,3.5519,3.5519,3.5519,3.5294,3.4839,3.3808,3.3017,3.2593,3.2092,3.2707,3.453,3.398,3.452,3.6006,3.6006,3.5846,3.5489,3.4861,3.4532,3.4442,3.3844,3.3933,3.4472,3.4472,3.4891,3.5519,3.5519,3.5519,3.5519,3.5519,3.5519,3.5519,3.5519,3.4206,3.2593,3.2593,3.1341,2.9804,2.9804,2.9804,2.9804,2.9804,2.9804,2.9854,3.0156,3.0608,3.0834,3.0281,3.0583,3.0959,3.0959,3.1386,3.1763,3.1763,3.2014,3.2114,3.1813,3.1562,3.121,3.0683,3.0131,2.988,3.0131,3.0432,3.0708,3.0934,3.121,3.1361,3.1386,3.1863,3.2164,3.2164,3.3495,3.4022,3.347,3.4826,3.5655,3.5906,3.492,3.4678,3.5283,3.5475,3.5763,3.6358,3.6358,3.6358,3.6358,3.6358,3.6358,3.6383,3.6634,3.7061,3.7588,3.7889,3.8015,3.8015,3.8065,3.7563,3.686,3.7045,3.7345,3.7584,3.8153,3.8153,3.7734,3.6656,3.6387,3.6148,3.5579,3.5519,3.5519,3.5519,3.5519,3.5519,3.5519,3.5519,3.5519,3.5519,3.5519,3.5133,3.4245,3.4023,3.3459,3.2695,3.2583,3.3425,3.5262,3.4816,3.537,3.6783,3.6661,3.629,3.5623,3.4265,3.3903,3.4233,3.3036,3.3155,3.4173,3.4173,3.4651,3.534,3.534,3.54,3.5519,3.5519,3.5519,3.5519,3.5519,3.4341,3.2806,3.2664,3.1415,3.0011,2.9856,2.9804,2.9804,2.9804,2.9854,2.9905,2.9804,3.0532,3.116,3.0708,3.1009,3.1411,3.1486,3.1964,3.234,3.234,3.234,3.234,3.234,3.1813,3.1235,3.0783,3.0256,3.008,3.0557,3.0758,3.1035,3.1461,3.2014,3.219,3.1788,3.2667,3.3244,3.3319,3.4299,3.4625,3.4173,3.5127,3.5787,3.6073,3.5162,3.5162,3.6073,3.5187,3.5283,3.6358,3.6358,3.6358,3.6358,3.6358,3.6358,3.6408,3.686,3.7387,3.7889,3.7889,3.7889,3.7814,3.7362,3.6835,3.6358,3.6596,3.7045,3.7434,3.7554,3.7135,3.6716,3.6507,3.6028,3.5609,3.5519,3.5519,3.5519,3.5519,3.5519,3.5519,3.5519,3.5519,3.5519,3.5519,3.5519,3.5424,3.5294,3.3981,3.3197,3.2997,3.2454,3.3304,3.5552,3.5428,3.6157,3.7589,3.6904,3.6538,3.6353,3.4936,3.4083,3.3604,3.2826,3.2647,3.2826,3.2826,3.3544,3.4651,3.4651,3.5011,3.5519,3.5519,3.5519,3.5519,3.5519,3.4773,3.3671,3.2876,3.1901,3.0846,2.9985,2.9804,2.9804,2.9804,3.0131,3.0382,2.9905,3.0256,3.0708,3.0633,3.1009,3.1512,3.1989,3.2541,3.2943,3.2943,3.2943,3.2943,3.2943,3.2064,3.1361,3.1286,3.0809,3.0507,3.0608,3.1411,3.1989,3.2089,3.2591,3.3093,3.347,3.3671,3.3972,3.4449,3.5077,3.5378,3.5278,3.5906,3.5784,3.4678,3.5667,3.5667,3.4678,3.5667,3.6168,3.6358,3.6358,3.6358,3.6358,3.6358,3.6358,3.6358,3.6458,3.681,3.7312,3.7312,3.7312,3.7287,3.7211,3.6835,3.6358,3.6417,3.6716,3.6926,3.6926,3.6656,3.6357,3.5998,3.5699,3.5519,3.5519,3.5519,3.5519,3.5519,3.5519,3.5519,3.5519,3.5519,3.5519,3.5519,3.5519,3.5519,3.5519,3.4445,3.3868,3.3868,3.3574,3.4482,3.679,3.679,3.7106,3.7806,3.7456,3.6617,3.5424,3.4424,3.3784,3.3425,3.2407,3.2407,3.3006,3.2647,3.3095,3.3993,3.4352,3.4681,3.5011,3.537,3.5519,3.5519,3.5519,3.4476,3.3157,3.2735,3.1609,3.0343,2.9934,2.9804,2.9804,2.9804,3.0206,3.0557,3.0306,3.0633,3.111,3.1411,3.1662,3.1989,3.2566,3.2893,3.3068,3.3068,3.3068,3.2968,3.2667,3.1913,3.1386,3.1386,3.0934,3.0834,3.1411,3.219,3.2792,3.3093,3.3621,3.4073,3.4324,3.4349,3.4575,3.5127,3.5403,3.568,3.5981,3.6232,3.6073,3.5475,3.6073,3.6073,3.5475,3.6073,3.6358,3.6358,3.6358,3.6358,3.6358,3.6358,3.6358,3.6358,3.6358,3.6684,3.7161,3.686,3.6935,3.7136,3.686,3.6584,3.6358,3.6148,3.6267,3.6267,3.6267,3.6267,3.6088,3.5579,3.5519,3.5519,3.5519,3.5519,3.5519,3.5519,3.5519,3.5519,3.5519,3.5519,3.5519,3.5519,3.534,3.528,3.528,3.4472,3.3933,3.3784,3.4083,3.5309,3.731,3.7662,3.7987,3.8328,3.7825,3.6673,3.5003,3.3788,3.3275,3.3185,3.2018,3.2108,3.3006,3.2497,3.2766,3.3544,3.4053,3.4442,3.4771,3.531,3.5519,3.5519,3.5519,3.4341,3.2876,3.2664,3.1489,3.0062,2.9856,2.9804,2.9804,2.9804,3.0105,3.0457,3.0583,3.0909,3.1386,3.2064,3.2215,3.2365,3.2968,3.3169,3.3219,3.3093,3.3194,3.3068,3.2516,3.1938,3.1637,3.1763,3.1436,3.1537,3.2491,3.3119,3.3621,3.4048,3.46,3.4926,3.4926,3.5027,3.5278,3.5705,3.573,3.5931,3.6358,3.6358,3.6358,3.6358,3.6358,3.6358,3.6358,3.6358,3.6358,3.6358,3.6358,3.6358,3.6358,3.6358,3.6358,3.6358,3.6358,3.6609,3.696,3.6533,3.6609,3.6935,3.6508,3.6358,3.6358,3.5579,3.5579,3.5579,3.5579,3.5579,3.5579,3.5519,3.5519,3.5519,3.5519,3.5519,3.5519,3.5519,3.5519,3.5519,3.5519,3.5519,3.5519,3.5519,3.4921,3.4562,3.4562,3.3335,3.2377,3.1691,3.2946,3.4358,3.5947,3.7206,3.8525,3.9885,3.7807,3.679,3.6518,3.378,3.2587,3.2527,3.1839,3.1541,3.1601,3.1571,3.2377,3.3514,3.3544,3.4352,3.5429,3.5489,3.5519,3.5519,3.5519,3.4773,3.3739,3.2876,3.1901,3.0895,3.0088,2.9804,2.9804,2.9804,2.9829,2.998,3.0482,3.0633,3.0934,3.1964,3.2215,3.2365,3.2968,3.3495,3.3696,3.3169,3.3495,3.3646,3.3093,3.2516,3.234,3.2893,3.2918,3.3119,3.3696,3.4248,3.4625,3.465,3.5152,3.5386,3.5386,3.5956,3.6257,3.6307,3.6307,3.6307,3.6358,3.6358,3.6358,3.6358,3.6358,3.6358,3.6358,3.6358,3.6358,3.6358,3.6358,3.6358,3.6358,3.6358,3.6358,3.6358,3.6358,3.6383,3.6408,3.6383,3.6383,3.6408,3.6383,3.6358,3.6358,3.5519,3.5519,3.5519,3.5519,3.5519,3.5519,3.5519,3.5519,3.5519,3.5519,3.5519,3.5519,3.5519,3.5519,3.5519,3.5519,3.5519,3.5519,3.5519,3.4861,3.4113,3.3305,3.2766,3.2587,3.2736,3.2826,3.3992,3.635,3.6446,3.7045,3.8024,3.6731,3.5668,3.4729,3.32,3.2287,3.1898,3.1571,3.1779,3.2138,3.2138,3.2677,3.3544,3.3933,3.4412,3.4921,3.534,3.5519,3.5519,3.5519,3.4409,3.3087,3.2735,3.1536,3.0292,2.9934,2.9804,2.9804,2.9804,3.003,3.0432,3.0959,3.1361,3.1813,3.2566,3.2742,3.2817,3.3043,3.352,3.3847,3.3621,3.4048,3.4349,3.4123,3.3621,3.3445,3.4022,3.3796,3.3796,3.4349,3.4901,3.5228,3.5228,3.573,3.6056,3.6056,3.6232,3.6358,3.6358,3.6358,3.6358,3.6358,3.6358,3.6358,3.6358,3.6358,3.6358,3.6358,3.6358,3.6358,3.6358,3.6358,3.6358,3.6358,3.6358,3.6358,3.6358,3.6358,3.6358,3.6358,3.6358,3.6358,3.6358,3.6358,3.6358,3.6358,3.5519,3.5519,3.5519,3.5519,3.5519,3.5519,3.5519,3.5519,3.5519,3.5519,3.5519,3.5519,3.5519,3.531,3.528,3.5489,3.513,3.504,3.5489,3.4861,3.3873,3.2587,3.2317,3.2527,3.3185,3.2946,3.3992,3.6358,3.6158,3.6372,3.7144,3.6153,3.5057,3.3866,3.2936,3.2161,3.1482,3.1482,3.1809,3.2228,3.2437,3.2916,3.3544,3.3993,3.4292,3.4532,3.5011,3.4966,3.4801,3.5365,3.3973,3.2236,3.2522,3.1341,2.9804,2.9804,2.9804,2.9804,2.9804,3.0306,3.0934,3.1311,3.1687,3.2164,3.2893,3.3068,3.3068,3.3068,3.3646,3.4098,3.3922,3.45,3.4926,3.4751,3.4399,3.4349,3.4901,3.465,3.4625,3.5177,3.5579,3.5805,3.5805,3.6132,3.6358,3.6358,3.6358,3.6358,3.6358,3.6358,3.6358,3.6358,3.6358,3.6358,3.6358,3.6358,3.6358,3.6358,3.6358,3.6358,3.6358,3.6358,3.6358,3.6358,3.6358,3.6358,3.6358,3.6358,3.6358,3.6358,3.6358,3.6358,3.6358,3.6358,3.6358,3.6358,3.5519,3.5519,3.5519,3.5519,3.5519,3.5519,3.5519,3.5519,3.5519,3.5519,3.5519,3.5519,3.5489,3.4891,3.4771,3.5429,3.4292,3.4083,3.54,3.4861,3.3873,3.2587,3.1898,3.178,3.2497,3.3155,3.4206,3.571,3.6326,3.709,3.7841,3.6388,3.5328,3.4622,3.3208,3.216,3.1482,3.1482,3.1482,3.1541,3.2258,3.2916,3.3484,3.3484,3.3903,3.4472,3.4472,3.3868,3.3368,3.4925,3.3561,3.1389,3.2307,3.1267,2.9804,2.9804,2.9804,2.9804,2.9804,3.0557,3.1386,3.1386,3.1411,3.1687,3.2817,3.3068,3.3068,3.3068,3.3947,3.455,3.3997,3.4801,3.5378,3.4826,3.4726,3.4926,3.5479,3.5554,3.5755,3.6307,3.6358,3.6358,3.6358,3.6358,3.6358,3.6358,3.6358,3.6358,3.6358,3.6358,3.6358,3.6358,3.6358,3.6358,3.6358,3.6358,3.6358,3.6358,3.6358,3.6358,3.6358,3.6358,3.6358,3.6358,3.6358,3.6358,3.6358,3.6358,3.6358,3.6358,3.6358,3.6358,3.6358,3.6358,3.6358,3.6358,3.5519,3.5519,3.5519,3.5519,3.5519,3.5519,3.5519,3.5519,3.5519,3.5519,3.5519,3.531,3.4831,3.504,3.507,3.4801,3.4861,3.4861,3.4771,3.4592,3.4083,3.3245,3.2587,3.2527,3.3185,3.2497,3.2998,3.4841,3.4641,3.5416,3.702,3.5613,3.4839,3.4622,3.3208,3.216,3.1482,3.1482,3.175,3.2228,3.2437,3.2916,3.3484,3.3484,3.3604,3.3781,3.3563,3.3347,3.3168,3.3403,3.2478,3.1093,3.0771,3.0216,2.9804,2.9804,2.9804,2.9804,2.9804,3.003,3.0457,3.121,3.1989,3.2667,3.2993,3.3068,3.3068,3.3068,3.3947,3.4675,3.45,3.5378,3.6056,3.5906,3.5881,3.5931,3.6081,3.6107,3.6182,3.6332,3.6358,3.6358,3.6358,3.6358,3.6358,3.6358,3.6358,3.6358,3.6358,3.6358,3.6358,3.6358,3.6358,3.6358,3.6358,3.6358,3.6358,3.6358,3.6358,3.6358,3.6358,3.6358,3.6358,3.6358,3.6358,3.6358,3.6358,3.6358,3.6358,3.6358,3.6358,3.6358,3.6358,3.6358,3.6358,3.6358,3.5519,3.5519,3.5519,3.5519,3.5519,3.5519,3.5519,3.5519,3.5519,3.5519,3.5519,3.525,3.4562,3.4861,3.4921,3.4502,3.51,3.522,3.4532,3.4472,3.4292,3.3903,3.3006,3.2826,3.3484,3.2467,3.2609,3.4094,3.4026,3.4665,3.5877,3.5262,3.4871,3.4619,3.3477,3.2571,3.191,3.1625,3.1691,3.2138,3.2407,3.2736,3.3095,3.3095,3.3095,3.3034,3.2547,3.2254,3.2139,3.225,3.1829,3.1044,3.0062,2.9804,2.9804,2.9804,2.9804,2.9804,2.9804,2.9955,3.0331,3.1185,3.1913,3.2541,3.2968,3.3068,3.3068,3.3068,3.3771,3.4399,3.4399,3.5303,3.6031,3.6031,3.6207,3.6358,3.6358,3.6358,3.6358,3.6358,3.6358,3.6358,3.6358,3.6358,3.6358,3.6358,3.6358,3.6358,3.6358,3.6358,3.6358,3.6358,3.6358,3.6358,3.6358,3.6358,3.6358,3.6358,3.6358,3.6358,3.6358,3.6358,3.6358,3.6358,3.6358,3.6358,3.6358,3.6358,3.6358,3.6358,3.6358,3.6358,3.6358,3.6358,3.6358,3.6358,3.5519,3.5519,3.5519,3.5519,3.5519,3.5519,3.5519,3.5459,3.5429,3.5489,3.54,3.51,3.4532,3.4472,3.4442,3.4382,3.5011,3.516,3.4532,3.4472,3.4472,3.4472,3.3215,3.2796,3.3395,3.2766,3.276,3.3393,3.413,3.4581,3.4708,3.5337,3.5304,3.4691,3.3903,3.3235,3.2547,3.1796,3.1482,3.1511,3.2168,3.2437,3.2437,3.2288,3.2288,3.2169,3.1286,3.074,3.0555,3.1282,3.129,3.0817,3.0062,2.9804,2.9804,2.9804,2.9804,2.9804,2.9804,3.0156,3.0658,3.1185,3.1361,3.1687,3.2817,3.3068,3.3068,3.3068,3.352,3.3897,3.3897,3.4776,3.5479,3.5479,3.5931,3.6282,3.6282,3.6332,3.6358,3.6358,3.6358,3.6332,3.6282,3.6282,3.6307,3.6358,3.6358,3.6358,3.6358,3.6358,3.6358,3.6358,3.6358,3.6358,3.6358,3.6358,3.6358,3.6358,3.6358,3.6358,3.6358,3.6358,3.6358,3.6358,3.6358,3.6358,3.6358,3.6358,3.6358,3.6358,3.6358,3.6358,3.6358,3.6358,3.6358,3.6358,3.5519,3.5519,3.5519,3.5519,3.5519,3.5519,3.5519,3.504,3.4891,3.5429,3.4592,3.4083,3.4442,3.4472,3.4262,3.3754,3.4322,3.4651,3.4472,3.4472,3.4472,3.4472,3.3215,3.2587,3.2706,3.2078,3.2047,3.2734,3.3473,3.4354,3.5465,3.5571,3.5572,3.5416,3.4129,3.3235,3.2547,3.1796,3.1482,3.1482,3.1631,3.1749,3.1632,3.1042,3.0802,3.065,2.9498,2.9013,2.9035,2.9404,2.95,2.9479,2.9731,2.9804,2.9804,2.9804,2.9804,2.9804,2.9804,2.988,3.0105,3.0658,3.1085,3.1687,3.2817,3.3068,3.3068,3.3068,3.352,3.3897,3.3897,3.4449,3.4901,3.4901,3.5378,3.573,3.573,3.6081,3.6358,3.6358,3.6358,3.6182,3.5755,3.573,3.5906,3.6332,3.6358,3.6358,3.6358,3.6358,3.6358,3.6358,3.6358,3.6358,3.6358,3.6358,3.6358,3.6358,3.6358,3.6358,3.6358,3.6358,3.6358,3.6358,3.6358,3.6358,3.6358,3.6358,3.6358,3.6358,3.6358,3.6358,3.6358,3.6358,3.6358,3.6358,3.5519,3.5519,3.5519,3.5519,3.5519,3.54,3.507,3.4711,3.4502,3.4532,3.3933,3.3514,3.3544,3.3814,3.3873,3.3514,3.3814,3.3993,3.3993,3.3724,3.3544,3.3544,3.2258,3.1569,3.1569,3.0941,3.1061,3.2048,3.2757,3.3668,3.4739,3.5003,3.5157,3.5152,3.4064,3.3235,3.2547,3.1796,3.1482,3.1482,3.1482,3.1278,3.0896,3.045,3.0025,2.956,2.849,2.8004,2.8029,2.8697,2.8925,2.9026,2.9603,2.9804,2.9804,2.9804,2.9804,2.9804,2.9804,2.9804,2.993,3.0482,3.0809,3.1311,3.2416,3.2867,3.3068,3.3068,3.3294,3.3495,3.3495,3.3947,3.4424,3.4675,3.5177,3.5629,3.5906,3.6182,3.6257,3.6006,3.5981,3.5855,3.5579,3.5554,3.578,3.6307,3.6358,3.6358,3.6358,3.6358,3.6358,3.6358,3.6358,3.6358,3.6358,3.6358,3.6358,3.6358,3.6358,3.6358,3.6358,3.6358,3.6358,3.6358,3.6358,3.6358,3.6358,3.6358,3.6358,3.6358,3.6358,3.6358,3.6358,3.6358,3.6358,3.6358,3.5519,3.5519,3.5519,3.5519,3.5519,3.5245,3.452,3.4341,3.404,3.3406,3.317,3.2874,3.2431,3.2791,3.3121,3.3121,3.3244,3.3335,3.3335,3.2826,3.2467,3.2347,3.115,3.0462,3.0342,2.9834,3.0103,3.121,3.2002,3.2707,3.3252,3.4088,3.4447,3.4366,3.3751,3.313,3.2547,3.1796,3.1482,3.1482,3.1482,3.1014,3.0269,3.0147,2.9566,2.8684,2.7802,2.7387,2.7444,2.8448,2.885,2.9026,2.9603,2.9804,2.9804,2.9804,2.9804,2.9804,2.9804,2.9804,2.993,3.0482,3.0683,3.1009,3.1989,3.2591,3.2968,3.3068,3.3068,3.3119,3.3194,3.352,3.3972,3.4625,3.5102,3.5604,3.6132,3.6307,3.6157,3.5604,3.5454,3.5429,3.5437,3.5554,3.578,3.6307,3.6358,3.6358,3.6358,3.6358,3.6358,3.6358,3.6358,3.6358,3.6358,3.6358,3.6358,3.6358,3.6358,3.6358,3.6358,3.6358,3.6358,3.6358,3.6358,3.6358,3.6358,3.6358,3.6358,3.6358,3.6358,3.6358,3.6358,3.6358,3.6358,3.6358,3.5519,3.5519,3.5519,3.5519,3.5519,3.5169,3.4196,3.3599,3.313,3.2807,3.1706,3.1232,3.1814,3.1654,3.1492,3.1492,3.2165,3.2647,3.2647,3.2557,3.2258,3.1631,3.0911,3.0253,2.9714,2.9624,2.9654,2.9834,3.1137,3.1756,3.1914,3.3157,3.3751,3.37,3.3055,3.268,3.2547,3.1796,3.1482,3.1482,3.1482,3.1014,3.0208,2.9442,2.862,2.7802,2.6985,2.6955,2.7369,2.7996,2.8524,2.9026,2.9603,2.9804,2.9804,2.9804,2.9804,2.9804,2.9804,2.9804,2.993,3.0482,3.0959,3.1461,3.2064,3.2265,3.2466,3.2968,3.3068,3.3219,3.3696,3.347,3.352,3.455,3.4776,3.5027,3.5579,3.6056,3.6157,3.5604,3.5127,3.5027,3.5504,3.5554,3.578,3.6307,3.6358,3.6358,3.6358,3.6358,3.6358,3.6358,3.6358,3.6358,3.6358,3.6358,3.6358,3.6358,3.6358,3.6358,3.6358,3.6358,3.6358,3.6358,3.6358,3.6358,3.6358,3.6358,3.6358,3.6358,3.6358,3.6358,3.6358,3.6358,3.6358,3.6358,3.5519,3.5519,3.5519,3.5519,3.5519,3.524,3.4404,3.4044,3.3369,3.1999,3.1575,3.1124,3.0311,3.0107,2.996,2.996,3.0335,3.0549,3.0549,3.0549,3.0434,3.0086,2.9201,2.8541,2.8283,2.7981,2.7847,2.7847,2.9967,3.1205,3.1632,3.2228,3.2678,3.3024,3.236,3.2013,3.1966,3.1625,3.1482,3.1482,3.1482,3.0718,2.9504,2.9129,2.8168,2.696,2.6645,2.6816,2.7369,2.7921,2.8473,2.9026,2.9603,2.9804,2.9804,2.9804,2.9804,2.9804,2.9804,2.9804,2.9854,3.0105,3.0557,3.1085,3.1637,3.1989,3.2466,3.3345,3.3545,3.3696,3.4248,3.4148,3.4248,3.5052,3.5177,3.5378,3.5931,3.6207,3.6157,3.5604,3.5052,3.4926,3.5479,3.5554,3.578,3.6307,3.6358,3.6358,3.6358,3.6358,3.6358,3.6358,3.6358,3.6358,3.6358,3.6358,3.6358,3.6358,3.6358,3.6358,3.6358,3.6358,3.6358,3.6358,3.6358,3.6358,3.6358,3.6358,3.6358,3.6358,3.6358,3.6358,3.6358,3.6358,3.6358,3.6358]}]]